GFSSW_sfc_rhum_000.txt.gz
RH
66 66 66 69 70 66 67 68 69 69 69 68 68 71 77 82 85 85 94 59 45 59 59 32 34 33 32 37 34 32 43 35 31 25 23 23 24 21 21 20 20 18 26 41 46
68 66 66 68 67 66 66 66 67 67 68 69 68 71 76 84 74 90 69 63 59 65 34 36 36 33 40 37 38 42 50 32 20 21 28 25 26 23 25 22 21 21 30 45 50
68 67 72 65 66 69 67 65 66 67 68 68 69 72 78 77 87 74 69 65 65 67 33 30 31 33 43 40 37 38 43 30 20 23 26 26 25 23 23 28 23 21 32 41 54
68 70 73 69 68 70 67 67 68 70 71 74 73 78 82 78 88 42 68 68 70 64 44 37 36 42 47 45 32 39 28 24 23 25 27 26 24 25 24 23 20 20 26 39 51
71 66 66 70 69 67 67 68 68 68 71 72 76 82 86 96 73 35 69 73 63 69 52 43 41 41 46 37 32 33 26 22 21 22 28 23 25 26 25 21 19 19 22 36 41
66 67 68 68 67 66 68 67 70 74 83 80 81 83 88 94 44 38 58 65 60 71 50 44 38 35 37 34 32 26 28 25 23 22 23 24 25 27 22 21 21 20 22 25 32
69 68 69 70 70 69 66 67 72 81 85 84 77 77 86 70 38 42 57 63 56 49 53 38 33 35 37 36 26 25 30 30 26 24 24 26 28 26 21 23 23 21 21 21 23
71 72 71 71 70 70 69 70 76 83 84 81 76 80 81 55 63 54 51 60 42 40 38 34 32 36 34 26 28 33 34 41 26 24 24 27 35 20 19 36 23 21 21 22 21
71 70 72 74 72 72 73 77 90 91 83 81 72 79 78 68 75 59 50 54 40 39 40 34 34 35 29 36 44 36 39 33 27 23 24 28 33 25 20 21 22 21 21 19 19
75 72 77 82 83 77 78 86 87 85 80 72 68 87 83 70 59 72 54 48 52 48 44 47 39 36 34 36 51 38 33 27 28 28 28 29 29 22 20 20 22 20 21 19 18
83 81 86 87 82 81 88 97 96 97 86 82 72 67 62 79 72 78 58 60 56 53 66 46 44 41 32 31 27 30 28 25 23 26 33 28 26 25 19 19 29 18 22 22 20
82 86 86 90 94 92 94 91 93 93 98 89 80 79 83 89 94 93 71 72 73 84 52 46 44 28 24 27 33 29 30 29 30 26 34 28 29 21 20 20 20 23 26 29 27
82 86 88 89 95 96 91 91 94 92 96 95 89 81 87 91 93 95 69 68 73 79 55 40 29 24 31 36 34 33 35 36 36 31 30 34 35 26 22 22 24 26 29 30 32
82 88 88 90 98 86 91 93 90 88 93 97 88 91 90 90 92 86 74 63 75 73 33 30 31 31 34 33 31 37 34 35 33 38 46 32 47 31 26 29 28 34 36 36 34
84 88 88 93 91 92 88 83 91 97 98 92 93 88 89 81 87 78 65 53 46 30 34 40 36 36 36 31 33 41 39 37 36 39 41 35 44 31 28 33 33 33 37 37 36
85 86 86 93 94 82 82 86 93 96 99 96 90 88 80 78 68 71 63 48 28 28 30 33 28 30 32 30 34 34 33 34 37 41 52 36 36 35 29 31 35 34 35 35 36
87 89 85 68 77 81 70 90 97 96 93 96 93 84 73 76 70 57 39 35 38 40 40 34 29 25 26 32 32 33 42 56 62 61 51 31 40 33 24 27 30 34 37 38 37
88 88 82 62 59 64 82 91 90 88 89 86 88 82 81 72 66 45 35 45 38 37 38 50 51 31 26 34 35 33 43 58 71 59 45 34 47 33 21 23 26 31 36 37 38
88 68 67 68 64 72 87 88 94 78 77 83 85 84 90 82 71 65 43 48 46 47 49 45 49 33 30 28 27 41 51 39 45 59 53 42 40 28 22 25 26 31 36 41 40
72 62 59 53 57 79 75 77 76 64 62 63 77 72 87 82 72 61 56 55 60 54 51 45 53 37 36 31 31 32 27 44 45 57 63 42 48 36 28 27 26 33 38 40 39
77 62 52 48 64 72 73 70 67 55 52 60 52 62 71 76 62 52 50 58 52 56 50 48 51 59 44 45 43 37 38 34 35 38 51 51 42 30 30 25 25 35 39 41 42
73 63 53 57 62 67 75 60 62 56 53 52 52 50 50 51 52 54 61 60 52 54 56 60 58 64 60 46 45 40 38 33 48 48 45 47 45 28 30 36 37 39 39 40 43
63 58 52 60 69 71 61 59 57 56 60 52 58 54 51 58 65 59 64 54 53 62 63 55 57 69 75 62 53 59 46 39 43 48 60 52 43 31 33 37 39 40 43 42 44
62 61 62 58 50 53 54 57 62 58 57 52 56 50 50 58 56 66 62 65 64 58 76 62 56 58 58 50 47 59 55 50 52 58 53 45 40 31 32 36 35 35 43 41 43
60 64 62 66 60 52 50 48 53 58 54 50 54 48 49 59 58 59 57 59 53 62 57 56 55 49 47 45 42 42 44 42 51 46 55 36 36 29 26 27 27 42 44 42 44
66 54 54 53 48 42 55 54 49 49 51 54 58 48 45 55 52 59 52 53 56 56 56 55 58 52 50 34 32 36 33 31 35 37 39 38 38 27 26 50 48 50 44 47 46
59 52 56 64 52 46 57 52 53 49 51 51 50 51 59 51 41 40 42 47 52 52 50 53 50 49 50 38 44 50 40 39 37 34 35 40 33 31 37 44 48 50 52 49 50

GFSSW_sfc_rhum_003.txt.gz
RH
68 67 66 65 66 69 68 68 68 69 72 70 69 67 70 77 84 93 91 68 73 62 54 42 43 44 46 44 42 41 53 45 36 36 30 29 30 25 23 25 21 28 38 48 51
68 67 66 64 68 70 69 66 67 69 69 69 69 68 70 79 92 96 64 67 66 68 56 45 49 44 49 44 44 49 60 44 29 32 28 30 30 29 27 26 28 40 59 56 55
67 66 68 66 69 66 67 66 66 66 68 67 68 69 74 79 84 73 61 68 70 65 52 41 39 43 52 52 50 47 54 41 34 32 28 29 27 27 30 32 28 24 48 60 64
66 67 65 67 70 72 71 71 65 67 68 68 68 70 78 79 85 47 55 65 69 64 61 41 47 53 57 57 45 54 40 36 34 29 30 30 27 27 32 27 24 26 36 62 66
67 65 63 64 69 71 69 70 70 67 69 70 72 76 84 92 75 38 64 68 64 66 70 54 50 52 60 52 50 51 41 34 28 28 28 28 31 28 27 24 25 28 40 52 63
67 67 67 68 67 66 65 68 69 67 68 71 73 79 89 96 48 44 49 68 67 72 71 56 46 48 54 50 53 36 36 32 30 28 29 31 28 32 24 24 25 23 33 44 50
69 71 71 70 70 69 68 66 66 69 72 78 74 80 86 68 44 44 44 72 66 72 70 56 48 51 48 50 37 36 40 37 34 32 30 29 30 27 22 26 24 26 27 27 38
69 68 69 71 74 71 70 69 70 76 77 80 78 87 86 55 57 56 46 59 68 65 55 53 60 45 44 40 34 41 46 55 38 32 31 26 39 27 24 26 25 24 25 27 25
72 69 80 86 78 75 74 74 78 80 77 77 82 89 80 71 72 53 49 72 75 66 68 52 51 46 40 48 54 53 58 49 38 29 30 30 38 28 25 26 26 26 25 23 23
77 84 81 85 88 86 78 84 89 90 79 64 68 87 75 68 64 64 61 68 75 60 64 69 79 53 45 48 67 57 53 42 38 32 32 35 34 30 26 25 28 29 27 28 30
81 85 87 84 84 80 86 98 93 97 82 78 77 76 64 63 56 69 76 78 58 62 86 76 84 73 55 45 41 41 43 38 33 32 32 34 35 29 24 23 29 32 34 33 32
82 85 86 87 90 88 95 93 82 81 87 68 68 67 85 66 80 78 74 80 66 83 68 73 73 50 37 38 39 37 39 38 34 30 34 36 35 28 22 26 32 37 39 38 39
84 84 85 85 90 98 95 92 90 88 88 88 68 78 82 92 84 88 78 71 67 74 74 74 56 39 34 39 39 37 45 49 44 36 37 48 42 30 28 30 36 37 37 40 42
85 88 87 87 98 95 94 96 94 90 95 97 92 92 88 88 95 93 80 73 86 74 68 52 33 37 41 41 37 42 37 37 40 44 52 41 52 38 35 36 40 45 43 43 44
87 85 87 91 98 96 96 96 96 95 98 87 87 80 87 88 89 83 74 71 85 70 59 45 40 39 42 37 34 43 42 40 42 47 57 44 47 40 40 43 43 46 46 43 44
88 88 88 96 99 93 94 93 97 99 99 92 92 94 84 90 78 80 67 74 69 70 39 40 36 36 36 35 35 35 40 43 47 48 61 46 43 44 41 42 43 45 45 41 41
88 89 91 76 88 92 92 99 99 99 94 93 93 78 78 86 75 70 79 81 79 55 51 37 33 29 30 34 34 37 49 65 66 67 62 38 42 38 30 36 36 43 46 46 44
88 89 86 66 76 79 92 100 98 90 92 87 84 80 88 83 77 68 60 61 32 34 53 58 53 32 29 35 38 39 45 68 75 70 55 39 46 33 27 35 39 41 45 44 45
87 86 85 80 70 79 100 96 98 86 80 87 89 86 91 87 65 60 52 55 62 48 50 52 58 37 32 30 33 42 51 44 51 66 60 54 48 28 34 40 44 46 47 47 45
97 81 76 80 70 94 88 92 92 84 76 76 85 80 79 68 63 63 67 62 67 60 62 50 58 41 39 34 34 35 34 46 53 61 68 54 57 43 37 37 38 48 50 49 47
94 80 60 72 82 88 92 90 78 66 61 75 75 77 70 78 67 60 69 63 58 59 58 59 57 63 46 47 47 45 42 38 43 51 57 60 47 36 31 31 36 45 49 49 50
92 65 51 66 77 92 92 73 66 66 61 57 60 64 69 72 60 74 76 68 57 61 66 63 63 72 66 50 48 46 42 40 52 55 56 54 48 34 46 38 46 48 46 50 52
85 71 55 61 92 93 76 69 68 68 67 61 63 59 56 63 72 70 71 62 61 63 65 61 64 80 68 57 57 61 54 46 49 56 59 54 48 36 55 46 47 52 50 50 53
85 68 72 72 73 74 74 71 74 64 62 58 60 54 60 65 63 72 70 68 63 59 75 60 54 56 62 55 55 64 57 55 53 63 58 56 49 40 43 43 45 43 52 55 56
77 71 73 78 62 62 61 63 68 69 62 55 57 54 58 68 66 66 67 64 54 60 56 55 54 52 48 44 42 43 45 47 58 57 54 38 39 33 38 39 41 48 52 54 53
80 70 70 70 58 56 68 65 63 61 60 62 65 60 59 67 62 63 61 60 58 56 57 54 57 48 46 40 37 37 36 37 40 43 52 49 45 34 35 42 51 58 53 54 50
81 73 61 68 61 64 70 64 61 58 54 52 55 61 62 54 46 45 47 51 55 54 57 56 50 51 52 48 48 51 44 42 44 40 38 46 36 36 44 45 54 57 55 55 52

GFSSW_sfc_rhum_006.txt.gz
RH
70 69 68 66 65 67 69 70 71 70 73 72 74 70 70 76 81 90 97 70 79 70 71 49 51 47 54 51 45 44 55 53 38 37 32 29 32 28 28 27 25 39 40 43 52
67 67 67 66 65 68 71 71 70 70 71 73 76 70 71 77 92 96 70 61 66 72 74 54 54 52 56 50 46 50 63 52 37 37 39 32 34 30 31 32 32 45 61 64 63
64 65 66 68 67 69 69 71 69 69 71 73 70 70 73 78 82 70 65 64 60 68 74 63 49 48 58 55 52 51 56 46 39 38 39 35 33 31 33 34 29 29 51 64 69
65 66 66 66 67 68 70 72 72 70 69 71 69 69 76 83 87 51 57 62 66 64 73 63 51 59 62 60 52 60 45 42 41 39 38 34 31 32 31 29 28 26 33 64 66
66 66 66 65 67 68 71 70 70 70 69 69 69 72 82 85 70 42 55 57 60 74 82 60 51 56 64 59 55 58 50 43 39 40 35 31 34 34 31 25 28 26 49 62 64
69 69 69 69 69 67 67 67 68 73 69 70 73 79 89 96 47 42 45 55 68 77 81 59 54 46 57 56 56 49 42 37 35 33 35 35 34 36 28 26 25 28 42 57 63
67 69 73 72 71 70 68 66 66 74 70 68 69 79 88 69 48 39 41 58 70 76 77 56 50 46 55 60 47 41 49 43 36 35 34 35 34 30 26 28 26 27 29 34 48
69 71 73 72 74 73 71 69 67 71 69 70 74 84 81 53 53 53 51 59 67 72 63 56 63 61 53 50 39 45 49 56 41 40 35 32 47 31 27 34 29 27 32 28 29
75 76 75 82 83 79 74 72 70 72 73 73 88 85 80 71 75 54 50 60 69 75 73 61 61 62 50 58 51 56 61 55 43 34 35 34 40 30 32 27 28 33 31 32 37
78 84 90 86 88 84 82 77 80 83 78 72 82 86 75 78 70 56 55 54 83 82 85 86 89 71 54 50 72 61 60 50 47 34 40 39 36 31 32 25 30 32 39 40 40
80 84 84 88 90 83 87 96 94 94 96 80 84 75 66 63 61 65 60 62 82 88 95 92 93 91 77 45 48 47 49 48 39 31 36 38 38 32 33 31 34 39 42 44 44
80 82 83 85 89 85 91 96 78 75 90 75 71 73 76 67 66 73 69 78 89 88 78 98 94 75 59 54 44 45 47 47 38 34 36 38 34 34 28 34 42 41 44 47 51
82 84 86 87 88 95 93 89 91 86 83 80 76 65 68 71 78 80 79 82 81 77 83 83 74 64 50 47 46 50 50 47 46 40 39 56 45 34 36 41 44 45 45 47 49
84 88 89 91 97 94 96 95 95 92 94 89 83 70 76 85 91 88 88 79 74 74 69 74 55 56 54 47 42 51 39 39 43 48 51 46 57 43 41 42 46 50 47 47 49
90 90 90 92 99 95 96 95 95 97 99 87 84 86 84 83 89 93 90 88 71 69 77 70 52 55 46 43 40 41 40 44 45 52 60 51 52 45 41 44 46 50 49 48 52
89 92 94 98 99 96 97 96 96 99 98 95 94 96 88 88 88 91 93 75 60 59 59 53 40 42 42 38 37 39 40 48 55 55 64 50 48 46 47 39 47 53 50 46 52
88 91 95 89 96 97 96 98 100 99 90 94 95 83 81 89 89 86 90 90 82 77 77 63 37 32 35 38 38 42 52 68 67 69 64 51 50 40 34 41 35 46 50 48 53
89 89 90 75 92 96 98 100 99 94 89 79 79 81 88 77 84 84 86 80 63 53 63 74 50 34 29 38 41 46 49 67 70 75 61 44 46 33 36 40 42 45 49 49 54
88 98 92 87 91 95 99 99 96 85 77 82 75 85 96 80 74 75 78 61 51 52 47 50 56 42 37 31 36 44 54 49 58 70 62 56 46 36 47 53 51 54 50 51 54
99 90 82 80 84 97 99 94 93 79 68 70 89 84 90 72 74 68 80 60 68 51 65 54 60 49 42 36 36 45 39 51 60 65 65 59 52 45 52 57 55 56 53 52 51
94 84 86 71 78 99 97 94 91 66 73 89 76 81 70 72 67 71 75 69 64 62 60 56 58 72 48 50 49 45 46 43 50 57 59 63 50 41 38 47 50 53 52 53 54
93 71 85 70 90 91 94 89 89 88 85 82 54 58 71 74 66 81 80 74 64 61 62 68 66 76 68 53 48 49 45 43 51 52 60 58 49 35 49 36 43 49 50 56 56
89 74 84 79 87 92 75 73 86 89 78 68 79 70 62 70 77 72 73 64 63 64 63 58 73 84 77 67 61 61 51 47 52 57 62 59 52 38 50 42 51 55 57 53 58
87 66 68 78 82 79 73 77 76 78 74 63 63 63 68 68 66 74 74 70 66 61 75 59 60 64 65 61 60 66 62 54 50 63 55 60 58 47 46 47 51 52 52 58 61
79 69 76 63 66 72 67 66 72 68 65 64 61 59 62 68 68 73 72 64 57 63 58 49 53 55 52 48 48 52 54 60 60 59 50 49 48 43 39 37 37 40 54 63 60
74 71 73 73 63 67 73 68 66 66 62 67 66 56 55 63 62 66 64 62 59 55 57 52 54 46 43 39 41 42 40 41 47 53 55 54 44 37 38 45 67 71 62 62 57
89 81 58 73 65 67 72 64 60 60 56 54 55 51 52 53 44 45 51 51 53 52 54 51 45 44 44 51 48 50 49 48 44 43 38 41 35 41 43 52 63 69 62 59 60

GFSSW_sfc_rhum_009.txt.gz
RH
68 69 69 68 67 66 67 69 71 73 75 74 76 76 73 77 81 90 98 74 69 71 74 61 61 55 56 60 48 47 56 60 48 38 32 33 38 32 30 32 29 42 46 50 53
65 66 66 67 67 67 68 71 72 73 72 74 77 78 74 78 92 97 71 64 63 68 81 57 60 55 64 59 49 52 66 56 42 34 40 40 42 34 33 33 32 33 66 67 75
63 64 66 66 66 68 69 70 72 72 74 72 74 77 76 77 84 73 62 66 61 61 77 73 55 54 64 58 53 55 58 48 42 36 43 44 39 34 35 35 32 30 30 66 74
65 65 66 66 65 67 68 69 70 72 72 73 76 77 78 80 84 56 54 60 63 55 73 84 75 62 66 64 56 62 49 44 44 45 47 43 35 35 33 30 28 29 30 63 67
65 67 66 66 65 65 66 68 72 70 71 74 75 75 87 89 77 46 54 56 56 60 80 82 63 63 67 64 61 65 53 48 45 46 46 41 39 37 34 29 30 27 32 54 66
68 68 71 70 69 69 66 69 72 71 75 75 77 79 94 92 51 46 46 59 62 67 86 81 57 54 61 60 59 55 52 47 41 39 38 38 38 41 34 31 28 27 27 45 66
70 69 70 72 72 71 69 67 66 72 76 75 71 82 90 68 49 48 42 57 61 74 88 76 59 47 53 62 52 50 50 44 41 41 40 39 39 37 29 31 30 29 29 33 43
73 72 72 73 73 75 74 69 67 72 77 73 69 89 86 56 55 56 49 66 64 73 81 70 61 56 63 50 44 46 53 58 43 42 39 34 49 37 32 39 30 33 34 34 37
72 76 84 83 79 78 78 77 73 70 70 70 88 92 80 59 68 53 50 65 65 72 83 62 60 64 65 70 71 55 65 61 44 39 41 41 45 34 35 32 29 35 37 40 44
73 78 81 88 88 84 81 76 73 76 79 73 79 91 78 77 72 56 53 57 86 74 93 92 85 90 67 71 82 65 67 56 54 40 46 46 42 33 36 29 34 40 46 48 48
78 81 80 81 89 92 87 92 93 97 87 84 83 81 68 61 65 59 52 59 81 81 92 92 95 91 84 68 56 57 52 54 47 37 41 43 40 34 36 33 36 42 47 50 50
76 79 83 84 87 92 90 89 77 73 94 79 71 70 74 70 83 71 52 70 83 87 82 98 92 73 69 56 51 50 58 58 42 40 42 45 41 37 32 34 40 44 49 52 56
80 84 90 90 89 94 86 85 88 88 87 77 73 75 72 74 73 82 62 72 83 80 83 82 80 72 65 70 60 56 58 58 47 43 43 48 48 44 38 46 46 48 50 52 56
84 88 92 93 97 93 92 89 94 92 97 89 90 74 66 73 79 69 59 68 82 84 73 86 70 77 79 67 62 74 47 49 48 52 57 56 63 48 41 49 50 58 56 55 60
87 91 94 89 98 96 94 89 93 88 99 79 85 74 68 75 85 87 87 84 76 74 85 82 76 80 85 65 46 57 41 45 50 53 64 56 58 49 46 48 49 52 54 59 62
88 90 95 99 98 96 95 89 86 99 99 93 83 85 81 85 80 94 90 92 54 69 60 62 54 63 62 49 42 44 45 51 61 59 69 55 51 50 49 39 52 56 54 57 64
87 89 95 92 95 96 95 97 100 99 86 96 92 84 80 83 91 87 91 95 77 84 82 60 58 44 39 38 44 45 55 72 72 73 70 59 61 39 38 38 39 48 52 56 63
87 89 90 81 97 96 95 99 100 92 94 84 85 81 90 77 87 80 94 95 65 64 68 67 83 41 34 41 47 51 51 68 69 78 64 53 54 36 41 42 40 45 50 55 62
91 96 89 86 95 95 98 100 95 85 79 86 88 95 95 79 84 86 94 82 59 53 62 67 57 41 38 36 38 48 57 52 62 74 73 60 50 41 53 59 56 54 54 56 60
91 98 88 82 92 98 98 95 90 71 67 70 84 89 85 83 88 86 90 71 55 47 49 52 59 49 42 37 37 44 42 55 65 72 71 62 59 49 53 63 63 60 56 56 59
96 93 92 85 89 99 99 94 83 64 69 77 72 85 68 78 79 87 82 66 62 56 56 54 53 72 47 51 47 44 46 50 55 63 63 68 54 44 41 54 58 56 53 54 58
96 83 88 83 99 98 96 93 71 67 88 87 72 62 70 69 72 79 87 78 63 60 66 67 64 66 66 64 51 54 44 44 56 58 65 64 53 42 50 48 56 56 57 60 58
94 98 83 87 94 96 96 95 88 91 85 74 64 65 72 74 83 83 78 71 69 63 62 59 74 84 78 67 71 69 53 48 55 60 65 62 51 39 49 44 51 56 56 55 60
95 84 98 98 87 80 77 94 94 89 75 70 73 70 71 74 73 84 81 72 67 63 72 58 67 64 59 67 65 71 62 54 53 66 61 61 57 45 48 49 55 57 55 61 66
89 70 78 88 79 68 70 77 90 85 77 74 73 69 66 74 75 80 73 64 60 62 56 46 54 56 57 53 61 62 63 59 55 55 52 52 54 47 47 46 41 42 52 60 67
82 76 76 77 65 64 70 67 72 68 75 80 74 68 68 64 64 72 66 66 61 58 58 53 59 50 49 48 44 47 48 64 64 62 58 59 52 44 44 49 52 66 66 68 65
92 87 62 74 68 69 72 67 64 58 56 63 57 61 65 50 46 51 53 53 57 55 56 48 48 45 49 57 54 48 48 45 44 46 43 39 35 46 57 62 71 74 67 66 64

GFSSW_sfc_rhum_012.txt.gz
RH
67 67 68 69 69 68 67 68 70 73 76 78 76 77 79 78 80 91 98 78 70 66 72 68 64 59 59 64 49 48 58 64 53 41 34 36 42 39 34 36 32 36 43 45 62
66 65 65 66 67 68 68 67 71 72 74 76 76 76 79 79 92 97 72 64 63 64 79 80 72 57 64 66 52 55 68 58 45 36 38 41 49 40 37 36 34 34 43 69 77
66 65 66 66 66 67 69 68 70 72 73 74 74 76 80 77 86 76 63 66 62 59 69 83 67 56 67 61 56 57 62 52 45 38 41 49 48 42 40 38 33 30 29 42 76
64 65 66 66 66 66 67 68 68 70 71 73 75 79 81 76 92 57 54 56 62 57 63 88 84 65 72 67 57 66 51 49 47 47 50 52 44 42 38 34 29 30 32 38 60
65 67 68 68 67 65 65 66 67 71 71 73 78 78 89 88 79 48 55 53 55 63 69 87 72 68 72 67 63 70 59 53 48 50 52 49 46 43 37 32 31 32 31 32 50
68 69 69 71 71 69 69 66 68 70 70 73 74 78 92 97 54 49 48 50 66 69 71 86 68 59 65 63 61 59 57 55 51 47 45 42 42 41 38 36 31 30 31 31 44
71 72 72 71 71 71 71 69 66 69 72 72 77 80 90 76 52 58 53 47 60 68 73 85 70 51 53 64 56 56 60 49 43 44 44 45 42 42 34 37 32 32 35 34 34
71 77 76 76 73 73 72 70 68 69 69 72 75 86 89 59 54 55 55 58 67 68 69 84 64 58 56 49 43 52 56 64 50 44 40 40 38 35 35 42 34 32 38 48 50
69 71 74 79 84 78 77 77 74 70 66 74 90 86 84 57 69 62 57 62 72 73 75 73 65 66 60 64 68 57 66 64 50 40 43 46 51 33 37 34 34 35 55 52 53
72 72 76 80 82 87 82 75 73 74 78 72 74 86 78 79 69 61 55 52 73 77 84 86 80 88 86 84 84 78 68 65 59 46 48 46 45 34 37 39 37 52 61 62 57
75 75 78 86 82 88 87 92 93 91 84 87 80 82 71 60 67 66 54 56 73 90 93 86 97 93 84 67 72 61 64 66 50 42 47 45 47 38 36 37 38 44 52 61 58
80 83 85 89 87 90 89 92 73 77 89 77 76 70 65 72 86 70 50 70 87 77 77 98 92 74 74 69 65 55 52 62 53 46 46 46 45 39 40 36 37 43 53 60 63
82 84 90 92 92 96 90 76 88 80 88 82 76 75 72 72 82 80 55 66 88 69 82 86 77 66 71 67 62 66 63 73 65 50 49 52 50 48 42 48 49 50 54 61 61
83 81 90 94 98 94 94 93 92 81 99 89 86 77 71 77 88 69 48 61 78 72 68 89 86 74 78 82 70 90 58 52 54 58 64 52 65 55 44 50 54 60 61 64 66
86 86 91 92 94 95 86 92 92 96 97 74 78 63 70 78 78 83 50 54 88 80 76 91 97 88 80 70 69 81 50 51 53 66 68 67 62 52 52 52 53 59 62 66 69
89 88 91 97 98 94 93 90 93 100 96 92 84 88 87 76 78 74 70 73 67 67 69 72 71 80 83 72 58 50 45 47 61 61 74 60 53 57 50 47 56 62 58 62 69
89 89 92 92 95 96 90 94 99 99 93 92 85 80 76 91 77 79 86 88 89 91 86 70 79 63 53 67 48 49 51 67 75 76 74 67 67 51 43 41 42 49 56 64 71
90 90 90 83 95 94 95 97 100 88 95 77 79 78 82 81 81 82 83 90 90 72 74 87 94 61 45 66 70 56 57 72 73 79 67 62 62 41 54 55 45 46 51 64 71
92 85 91 86 94 94 94 100 97 89 82 89 77 79 85 72 78 77 87 88 78 58 71 71 84 48 49 37 58 55 60 56 66 77 80 68 52 42 54 59 63 57 56 65 69
84 94 94 82 93 96 98 98 94 81 74 73 89 81 86 73 91 91 92 77 76 53 58 63 62 48 38 33 37 48 45 61 67 75 78 70 62 53 42 56 70 63 60 64 68
96 97 92 90 95 98 99 95 90 65 63 71 77 85 76 83 76 84 86 79 62 58 54 53 57 65 40 49 46 46 52 57 59 68 67 71 53 48 44 46 59 63 59 63 67
96 94 96 91 99 96 96 90 80 78 82 82 68 66 70 80 78 87 87 77 56 59 60 62 63 69 57 66 47 47 46 48 63 65 72 70 56 45 54 58 60 61 58 61 62
96 96 93 98 100 99 94 88 78 83 86 80 68 61 56 72 87 86 88 67 68 63 64 60 71 86 70 70 73 64 54 50 57 63 68 64 55 45 53 58 63 62 61 58 60
96 98 99 99 96 95 94 91 90 94 88 74 73 61 69 76 78 88 87 72 67 62 72 58 68 64 67 68 64 74 62 58 54 70 68 64 59 59 54 55 57 58 66 64 68
94 80 87 99 96 83 77 89 93 93 80 73 77 65 70 83 82 83 77 72 65 71 62 48 63 66 58 61 63 60 60 58 56 54 57 58 54 49 59 62 62 62 58 65 71
87 81 84 77 64 72 70 86 88 70 78 81 80 74 66 70 71 82 71 71 69 66 56 51 59 54 54 51 50 57 64 63 61 62 58 59 57 49 56 64 69 72 64 64 70
95 84 66 68 63 63 67 78 68 62 80 64 65 70 62 57 56 57 58 58 58 54 56 49 49 52 63 58 55 46 46 71 66 63 59 64 51 49 69 61 68 67 66 67 70

GFSSW_sfc_rhum_015.txt.gz
RH
65 64 64 66 67 69 69 68 69 71 77 80 80 80 82 81 81 84 95 71 67 60 61 71 65 64 50 54 42 40 50 54 47 40 34 26 37 33 29 29 28 24 29 30 48
67 64 64 64 65 66 68 68 68 71 72 74 75 79 80 81 82 92 71 66 63 60 66 83 73 59 58 57 48 48 60 54 42 35 32 31 40 37 35 32 29 25 26 36 49
65 65 65 65 66 67 67 70 69 70 71 73 74 75 78 73 86 75 63 68 65 59 61 70 85 57 63 54 51 52 57 50 42 37 33 40 43 38 34 39 30 26 25 27 39
63 64 64 65 66 66 66 67 70 69 71 72 74 75 78 72 90 52 55 53 61 59 62 74 89 66 70 64 50 52 47 44 43 42 43 44 41 41 36 32 28 27 29 29 27
66 65 66 68 69 67 66 65 66 68 71 71 72 74 87 94 79 50 51 54 53 60 71 79 85 64 70 62 57 56 50 48 44 47 49 47 47 42 38 31 28 30 32 30 28
69 69 70 70 70 72 70 69 66 68 71 69 73 76 88 97 52 48 53 48 47 65 74 73 77 56 62 60 57 56 52 47 49 46 45 43 42 40 33 31 29 29 28 28 29
70 72 74 72 72 71 71 70 68 66 71 71 72 79 93 77 52 55 56 55 46 63 77 68 74 54 54 62 55 54 56 49 45 40 40 43 43 44 32 33 29 28 28 33 39
70 73 77 76 80 75 72 70 70 71 66 70 74 82 89 60 56 56 53 57 56 63 68 63 72 62 55 46 46 54 47 66 48 38 38 34 47 32 31 34 32 28 32 42 47
70 71 71 73 79 83 80 76 74 71 66 68 91 87 84 56 72 58 51 60 60 75 72 60 77 71 61 56 56 54 75 60 53 42 41 40 43 35 29 29 28 26 36 41 46
74 77 74 73 81 84 85 75 71 76 77 72 75 93 80 76 68 60 63 54 65 84 79 77 94 86 75 72 82 65 65 54 54 41 41 41 42 34 32 33 31 27 39 45 49
77 80 78 80 83 86 94 90 88 90 89 83 80 79 67 58 61 68 59 60 61 85 84 82 98 95 76 71 61 55 58 59 54 40 39 42 42 35 32 33 33 33 43 47 49
80 82 83 87 87 87 95 90 72 69 89 74 73 70 64 68 81 73 54 66 84 84 75 86 96 76 69 69 58 57 56 55 51 43 40 44 42 35 36 35 32 34 46 48 50
80 84 82 84 91 96 94 80 85 71 89 78 70 77 75 66 78 75 61 64 87 69 79 86 76 65 70 74 71 63 63 62 61 51 43 45 45 41 35 34 40 41 47 49 50
84 85 83 89 99 96 96 88 90 82 99 92 85 77 74 73 78 60 55 60 83 67 59 84 85 71 72 76 70 83 58 57 57 62 66 42 56 48 36 37 44 49 52 52 55
88 87 86 91 97 96 91 92 93 93 98 82 82 62 74 70 74 79 54 55 77 65 64 90 95 79 81 74 65 75 63 60 59 57 51 50 51 44 41 40 46 51 56 57 57
90 90 87 96 97 93 93 93 94 100 96 94 84 92 88 79 74 72 66 57 78 60 55 89 90 70 68 68 65 47 48 50 51 49 63 53 48 47 39 36 47 50 54 58 59
91 91 92 89 95 96 94 93 100 99 84 96 91 88 76 88 78 75 77 79 97 84 79 88 95 93 78 65 64 58 67 97 76 65 65 55 55 43 40 36 40 45 50 58 60
91 90 91 85 90 93 93 99 100 77 90 74 80 80 84 83 79 79 81 89 87 90 62 96 96 80 66 77 82 81 70 68 70 71 59 58 57 36 36 45 45 43 47 60 62
92 87 92 88 92 93 96 100 89 82 88 82 80 81 85 79 78 82 83 78 79 80 62 83 80 66 50 55 71 77 85 52 63 64 66 60 49 38 42 48 51 52 54 61 63
82 90 90 78 90 93 99 98 88 88 87 68 68 73 85 82 82 84 87 71 73 73 63 66 66 57 42 40 44 60 50 71 61 67 69 62 54 48 39 39 55 57 56 62 64
94 99 91 89 93 95 100 97 86 71 78 70 81 88 73 77 86 83 89 78 70 74 60 53 59 64 47 50 48 58 68 59 55 62 62 58 47 41 40 40 44 56 55 59 62
98 92 98 94 98 96 97 87 84 84 69 69 67 78 80 63 80 87 89 77 62 64 56 50 61 76 60 57 50 46 50 49 59 62 62 57 50 38 48 49 52 56 54 56 59
97 96 96 98 99 98 88 89 84 83 71 83 75 65 66 74 90 87 80 64 68 65 61 54 69 80 66 60 67 55 47 46 53 56 62 57 50 40 51 56 58 58 54 54 58
98 98 100 99 96 98 94 91 92 89 89 87 70 62 75 83 78 90 85 75 72 60 70 56 64 66 72 66 63 65 56 52 46 59 58 54 45 43 49 52 56 57 56 55 57
98 92 91 97 96 97 97 91 88 95 87 87 74 63 71 95 90 88 86 71 66 74 57 53 60 63 58 60 56 59 59 55 51 44 45 47 50 42 43 46 49 48 55 58 64
96 90 89 78 72 98 97 95 88 91 88 80 75 63 68 83 79 88 76 71 67 62 59 54 62 53 56 58 59 64 62 52 48 55 52 51 50 43 46 52 55 55 53 56 65
96 92 71 70 65 75 72 85 91 89 88 72 64 70 80 66 57 62 57 59 59 57 58 53 51 58 64 54 48 56 52 64 54 59 45 54 41 49 62 60 59 60 58 61 64

GFSSW_sfc_rhum_018.txt.gz
RH
65 64 63 63 64 66 67 68 68 70 76 78 81 78 79 83 82 66 66 47 48 54 54 50 54 51 48 43 35 29 34 35 33 32 28 19 27 25 23 23 18 17 18 19 27
65 64 63 63 64 64 66 67 67 68 70 71 74 76 78 81 67 76 56 64 64 61 44 57 58 52 51 45 40 36 39 35 28 26 27 26 29 30 29 23 21 16 16 16 18
64 64 63 64 63 65 65 66 69 69 70 72 74 75 78 68 72 59 56 66 67 59 48 49 70 62 57 43 41 39 40 32 31 28 26 30 30 29 31 31 22 21 17 16 18
65 63 63 63 65 64 64 65 67 71 70 72 73 74 80 60 60 53 58 56 56 51 52 48 74 78 73 55 38 44 35 31 32 32 34 33 30 32 30 30 23 22 21 21 18
68 66 65 67 68 68 65 63 65 67 69 72 73 77 70 77 53 43 52 45 37 50 60 50 66 71 67 50 41 44 34 32 31 33 33 34 36 33 32 25 22 22 23 22 18
70 69 70 71 71 70 70 68 67 64 70 72 73 78 68 81 36 36 39 40 39 49 66 47 57 46 53 54 46 38 39 35 32 34 33 39 32 34 26 22 21 20 22 20 20
72 72 76 75 72 72 69 69 68 68 68 72 72 63 74 60 37 36 43 39 39 37 63 48 49 58 45 61 46 38 46 40 37 36 35 33 37 33 24 19 20 18 19 23 29
71 74 76 77 76 76 73 70 70 73 67 69 72 66 76 46 39 44 40 44 42 35 42 43 50 79 62 43 52 49 52 53 35 35 34 34 41 25 21 20 21 20 19 27 33
72 76 77 73 73 78 81 82 73 75 70 67 73 71 70 48 55 42 39 46 48 46 40 46 61 89 57 66 68 59 59 54 40 34 34 35 35 24 21 21 20 17 20 26 30
74 77 80 77 74 78 82 81 74 74 71 63 64 81 59 58 48 44 41 41 44 58 61 74 81 96 73 71 83 58 56 38 44 32 33 35 34 25 21 22 21 18 21 26 29
78 80 81 81 78 81 88 94 92 89 78 62 59 55 56 51 51 52 46 47 44 65 87 68 94 95 84 58 45 40 38 44 38 32 35 34 33 28 23 23 21 20 22 26 30
80 83 83 82 82 85 90 91 66 61 78 65 60 57 55 54 69 55 46 54 61 77 82 72 95 70 68 57 44 40 43 43 36 34 34 34 36 30 25 22 21 20 23 28 33
80 84 85 82 81 93 94 83 83 72 92 79 66 68 64 54 64 63 55 49 57 73 92 76 75 68 67 49 51 50 48 43 41 41 38 37 37 28 24 24 25 22 23 28 31
83 84 87 86 96 90 96 91 86 80 99 90 81 67 61 64 73 45 50 47 58 74 89 61 62 73 71 55 46 57 42 41 50 57 55 37 44 31 22 24 28 26 30 31 33
88 87 87 88 94 92 93 91 87 89 97 73 81 53 53 60 55 54 51 50 67 75 87 82 84 89 78 56 46 44 47 46 52 57 56 44 45 29 28 25 27 29 32 33 34
90 89 88 87 84 87 92 90 91 99 94 95 84 82 74 63 49 63 62 48 74 74 66 52 80 78 56 48 46 49 48 46 42 46 57 39 38 29 22 23 27 30 34 35 35
92 90 86 70 75 89 93 93 100 98 80 97 96 74 64 70 67 80 70 75 98 98 97 68 84 86 53 65 58 47 52 93 87 74 51 37 39 27 23 24 25 31 34 35 38
93 90 81 62 69 92 94 98 100 71 87 86 70 68 70 64 62 74 64 69 87 86 79 97 98 91 59 60 73 59 50 50 59 53 44 42 41 24 24 27 27 25 31 37 39
96 92 88 72 74 91 96 100 80 78 87 93 67 77 66 61 55 68 61 61 72 75 88 81 97 88 80 64 57 76 66 39 44 44 38 34 31 26 28 30 32 29 35 41 40
88 78 72 65 82 97 99 97 87 78 85 81 67 61 64 58 63 68 66 52 60 61 63 48 94 84 88 76 64 66 51 71 47 51 49 38 37 28 26 26 35 33 37 39 40
84 94 78 84 92 98 99 98 88 76 79 90 55 55 47 55 54 61 57 61 50 49 58 50 49 62 69 81 71 66 83 73 45 41 38 35 31 24 26 27 30 31 34 38 42
82 95 97 89 98 98 98 91 81 81 79 78 57 40 44 46 53 92 57 63 44 44 61 51 37 52 75 47 46 50 58 54 57 50 39 34 29 24 28 30 33 32 35 38 40
73 95 97 93 98 97 90 89 85 85 87 83 72 41 39 42 51 80 53 43 54 53 49 41 42 56 57 51 42 54 50 47 39 36 41 40 32 27 32 36 37 36 35 39 42
79 98 100 99 94 95 94 92 94 80 77 82 74 51 41 44 47 65 64 59 59 52 64 54 43 38 47 40 39 53 48 42 44 47 40 36 30 28 32 36 38 37 34 37 43
76 77 80 97 95 94 90 87 88 93 87 90 81 53 43 46 65 60 62 66 63 63 58 51 46 41 40 42 37 41 47 43 45 40 42 34 34 27 23 30 34 34 35 36 40
68 73 72 74 80 90 95 88 89 83 86 86 91 55 43 43 56 66 64 60 65 58 58 48 50 42 42 45 42 43 38 40 43 41 37 33 32 25 25 29 31 33 37 38 40
83 70 60 60 59 94 92 92 91 78 88 68 67 55 56 46 47 43 44 48 50 57 59 50 49 46 49 40 44 50 42 41 35 32 32 38 30 30 36 34 35 37 36 39 40

GFSSW_sfc_rhum_021.txt.gz
RH
66 65 63 63 64 65 66 67 68 71 74 77 79 80 81 83 82 64 58 41 42 56 56 40 36 44 42 45 34 29 34 34 30 26 22 19 22 18 20 21 18 15 16 17 17
67 66 64 64 64 66 65 66 66 67 71 72 74 75 78 78 60 66 51 55 58 62 44 39 39 36 51 46 38 38 39 33 22 21 22 21 24 25 26 23 20 17 14 14 14
67 65 66 64 65 65 67 65 66 69 69 70 72 74 77 64 61 51 52 60 63 61 46 37 42 56 56 45 39 38 40 27 24 22 23 24 26 22 27 30 23 20 17 17 16
67 67 65 64 66 67 65 65 64 69 70 69 72 75 79 51 55 44 54 49 57 52 49 43 40 58 63 63 38 41 32 28 26 25 29 30 24 27 26 26 21 21 20 20 19
68 69 68 66 69 69 69 65 62 65 66 70 72 77 68 62 46 45 53 46 33 41 52 47 42 44 52 43 49 43 33 27 26 25 28 28 29 30 28 23 20 19 21 21 20
69 71 71 71 72 73 72 70 67 63 66 72 73 77 65 69 26 25 38 37 36 39 46 45 40 35 40 45 45 42 34 31 27 28 28 31 29 28 26 22 20 19 18 18 18
70 73 76 75 76 74 74 70 70 68 65 68 70 60 68 54 30 28 31 32 32 34 44 45 39 39 42 51 36 45 47 34 32 29 30 28 36 33 24 21 19 15 14 15 18
71 74 79 76 77 76 75 72 70 72 68 66 69 61 81 38 34 36 33 36 32 32 34 34 47 44 54 47 47 47 56 66 35 30 29 32 44 26 18 20 18 15 14 18 24
74 77 80 79 77 75 79 80 79 72 70 65 62 66 69 43 46 36 33 38 34 37 34 31 44 58 71 83 81 60 62 62 50 28 29 33 39 25 20 20 18 16 14 19 24
80 79 81 82 78 78 79 81 81 74 68 60 54 70 49 52 40 39 34 36 38 39 45 44 58 75 85 91 92 63 58 54 51 30 32 34 34 27 22 19 20 17 14 18 22
84 81 82 83 82 78 84 92 93 90 87 70 59 50 43 36 38 48 35 41 43 45 69 55 86 87 73 78 49 45 46 48 34 26 29 31 32 26 21 21 21 18 16 18 23
85 84 85 84 83 81 90 94 69 68 88 66 53 49 39 48 57 50 37 52 53 62 50 70 92 56 46 60 74 52 47 41 29 28 32 32 30 25 22 23 22 19 17 19 27
86 85 85 84 82 82 89 88 75 63 93 83 65 62 54 51 59 51 45 49 46 53 54 77 61 51 44 73 79 60 50 37 35 31 32 34 37 32 26 24 20 18 16 19 27
87 85 86 85 87 66 90 86 86 80 100 85 83 71 64 79 82 44 41 49 50 55 52 75 58 76 56 77 74 69 38 38 35 44 47 35 40 25 21 24 23 19 18 23 26
89 86 87 86 67 89 95 90 90 92 97 69 78 55 58 86 48 47 36 52 64 53 90 84 76 83 69 81 73 50 38 38 39 42 48 52 49 29 22 23 22 21 22 26 28
92 89 89 80 74 70 87 82 90 99 94 91 84 89 81 78 55 51 48 47 46 61 90 60 56 62 60 68 74 49 44 45 44 47 68 43 40 28 25 22 19 21 25 28 28
93 91 87 53 63 83 86 92 100 98 72 95 97 93 74 68 64 57 76 80 96 99 100 76 88 84 75 90 78 55 62 90 82 75 49 30 36 26 22 21 20 24 28 29 31
94 94 88 52 57 88 91 98 100 66 79 91 90 74 77 52 51 61 90 95 73 84 98 98 98 91 73 88 81 72 60 47 64 52 38 33 40 26 20 21 20 23 27 30 33
95 97 92 71 66 88 96 99 87 77 88 94 94 87 74 50 51 64 90 70 54 65 100 87 93 82 89 83 58 68 53 38 38 33 34 36 29 22 22 27 25 24 29 33 34
96 98 91 70 70 95 99 97 92 75 86 90 94 58 60 55 58 62 72 52 47 57 76 79 99 94 91 65 69 55 38 54 39 47 44 34 29 28 25 23 27 25 30 33 33
92 98 68 64 88 99 98 97 92 72 81 93 87 63 42 44 45 59 58 46 36 48 76 83 97 97 88 92 83 71 56 53 38 36 36 36 29 21 23 24 25 26 29 33 35
96 96 91 89 99 97 97 94 85 80 82 88 77 53 38 33 40 51 48 41 35 45 82 73 79 99 93 61 47 56 52 46 45 48 34 32 31 20 23 27 26 26 29 31 35
96 92 94 88 98 97 94 93 88 89 87 90 84 56 32 34 44 53 51 32 46 49 56 56 55 97 98 83 66 62 57 52 41 38 39 35 33 22 27 29 28 29 29 33 36
92 98 100 98 88 90 96 94 95 79 86 81 62 43 36 36 34 48 55 44 46 39 64 51 45 41 51 53 64 65 62 49 44 46 40 34 29 25 28 31 31 30 30 33 36
95 86 69 97 94 92 90 87 95 93 84 76 87 52 41 39 38 42 45 46 46 55 47 51 47 36 31 34 39 46 51 52 52 44 42 32 31 23 22 26 27 28 30 34 37
93 69 73 85 73 84 93 92 95 88 88 94 92 58 39 32 35 50 48 46 56 53 49 50 47 40 42 38 35 36 36 40 41 39 35 32 30 22 20 21 27 28 30 34 37
96 72 56 57 60 85 83 89 86 83 80 73 75 69 44 29 27 40 40 38 43 53 56 56 56 45 47 38 41 48 36 35 35 33 32 38 31 24 27 28 28 30 31 32 34

GFSSW_sfc_rhum_024.txt.gz
RH
65 65 65 65 66 66 66 68 69 72 75 78 80 79 78 82 84 72 72 48 52 57 59 42 39 37 47 56 48 40 55 53 41 36 32 24 27 23 24 28 24 21 22 25 26
67 66 65 66 66 66 68 66 68 69 70 73 74 75 76 79 68 71 57 54 55 58 50 43 42 35 48 55 55 52 62 51 32 28 28 24 27 30 32 30 27 26 21 20 21
68 67 65 65 65 66 66 68 66 71 69 69 71 74 76 70 72 57 54 59 59 58 56 47 40 43 63 52 53 52 61 42 31 26 25 29 30 26 31 39 31 30 28 27 27
68 67 67 66 64 68 68 65 67 67 72 70 71 74 79 59 67 55 58 50 51 51 58 56 49 52 61 63 46 56 43 39 36 30 31 35 31 32 30 33 28 27 27 27 27
68 69 69 68 67 69 69 68 65 65 68 70 72 76 69 68 52 49 56 48 45 54 61 59 57 48 58 50 54 56 45 36 31 31 29 31 37 35 33 29 26 25 26 28 27
69 70 72 72 72 73 73 70 69 67 66 71 74 78 74 75 30 26 40 38 37 37 47 52 53 43 44 46 48 48 48 44 36 31 30 34 35 35 32 28 28 26 27 24 26
72 74 78 77 74 76 73 73 70 70 69 67 74 65 70 58 28 29 30 34 34 36 41 40 42 52 40 47 40 41 55 47 45 35 34 32 39 39 31 28 29 28 23 20 24
75 76 78 81 77 77 74 73 73 74 72 67 69 64 78 41 40 40 35 36 33 33 35 36 39 51 62 52 60 60 58 74 50 46 34 38 52 37 30 29 29 26 22 25 29
79 80 79 81 81 78 74 77 77 78 72 67 69 69 65 44 52 40 37 40 36 35 37 32 39 64 60 71 87 74 83 69 63 44 39 38 47 35 30 28 30 28 23 25 32
84 84 81 82 84 80 76 74 83 84 78 62 57 71 57 49 41 40 38 38 41 39 46 53 55 76 82 81 87 79 83 62 67 51 44 45 40 36 30 30 29 27 24 28 33
86 86 84 84 84 81 78 89 88 88 91 76 67 57 43 41 34 42 37 42 43 50 67 56 76 87 75 70 65 57 60 63 49 39 45 45 39 36 32 31 32 30 28 28 34
86 88 85 85 83 83 82 94 74 75 91 76 65 58 45 42 53 46 38 53 57 71 58 68 86 58 52 57 63 67 75 71 49 38 42 42 38 35 32 30 27 27 29 28 40
88 89 86 86 82 85 84 81 72 67 96 82 74 68 58 50 64 52 47 51 55 66 66 76 62 56 50 56 63 61 76 71 79 42 36 43 49 42 32 27 27 28 28 30 38
88 89 88 86 83 70 76 67 83 84 100 89 87 74 66 72 90 57 45 53 66 68 58 62 50 52 67 61 56 72 58 63 76 56 70 45 70 43 35 32 30 33 30 36 36
88 89 87 78 78 80 90 85 87 91 98 75 77 51 64 85 66 61 49 58 80 67 60 85 70 65 68 73 62 64 57 76 72 73 70 62 66 53 35 34 32 32 30 37 36
89 90 87 86 81 83 84 82 89 99 95 90 80 84 83 83 75 56 58 52 61 71 64 69 60 73 57 52 61 60 68 85 86 69 86 58 68 54 38 32 31 30 32 37 36
90 92 88 63 77 85 81 92 100 99 67 96 94 84 77 80 79 70 68 76 89 99 98 82 82 68 75 77 61 69 90 99 100 99 89 50 58 48 32 26 27 30 37 37 40
90 94 88 62 84 83 87 98 99 55 79 88 90 84 96 67 66 63 83 94 70 77 95 90 75 89 77 90 80 88 96 92 97 90 62 41 61 46 30 28 27 31 37 39 42
94 98 98 79 86 86 94 100 81 64 86 94 95 99 96 63 54 61 70 71 65 71 99 99 98 77 62 76 74 87 98 74 56 42 53 53 45 32 34 37 32 37 39 43 45
98 99 96 75 90 93 99 95 81 69 85 90 96 88 78 60 63 82 68 56 65 59 67 82 98 86 80 83 85 85 70 72 72 63 67 58 50 45 39 41 34 39 43 44 45
97 99 81 83 96 99 98 95 79 76 83 94 94 84 64 54 53 82 76 53 56 62 71 81 93 95 96 94 94 96 84 66 59 53 65 63 50 35 34 36 37 38 40 43 46
98 98 87 92 99 98 97 84 86 88 82 89 90 80 62 44 49 56 65 50 40 66 92 80 97 100 97 80 78 68 62 63 61 70 62 52 51 31 35 34 36 34 39 42 45
97 97 94 91 98 98 84 91 92 91 88 92 93 81 53 55 46 45 48 37 48 58 75 84 95 99 99 87 92 84 58 58 55 55 63 56 53 36 41 39 37 39 43 42 47
98 97 100 99 94 84 87 96 97 87 89 83 80 71 66 64 35 50 49 48 49 39 64 79 92 98 96 86 73 76 68 65 66 73 60 52 45 44 45 43 41 41 44 45 46
98 94 82 98 96 94 88 93 96 96 90 84 86 82 67 52 41 41 52 50 57 53 62 63 84 78 71 66 63 69 66 67 69 62 68 51 38 38 42 44 43 42 44 46 48
98 92 88 87 71 82 91 94 95 91 90 91 89 71 66 48 38 42 46 50 55 55 53 51 73 55 48 62 65 64 59 61 58 56 56 52 47 28 35 37 41 44 44 46 47
98 84 77 76 76 89 85 89 87 88 83 77 79 77 75 52 30 56 34 39 50 56 66 62 69 60 59 45 50 60 48 55 52 52 51 57 41 37 37 38 40 42 43 48 50

GFSSW_sfc_rhum_027.txt.gz
RH
66 66 65 65 66 66 68 68 69 70 74 77 83 86 81 83 86 83 86 63 61 55 58 50 47 48 47 69 69 69 81 75 64 51 40 33 28 27 26 32 32 29 28 29 36
68 67 66 65 66 66 67 68 68 71 70 73 75 76 78 83 77 90 68 62 57 55 60 61 63 52 60 71 76 78 88 70 49 42 39 32 29 31 37 39 38 34 29 30 41
68 68 68 66 65 65 66 66 68 68 72 70 72 76 80 78 82 74 59 63 62 58 65 65 63 61 69 61 75 76 81 58 47 39 36 35 38 34 40 44 38 35 32 34 29
67 68 68 67 65 65 68 67 64 66 70 70 70 75 81 77 91 69 53 56 53 56 66 72 74 76 73 81 63 83 63 58 51 45 42 41 35 39 38 37 34 33 33 35 32
71 68 69 70 69 68 70 69 67 62 66 69 71 75 78 88 80 58 53 52 52 60 73 76 82 80 73 64 64 71 58 52 47 44 40 37 40 39 41 35 31 29 30 33 33
76 71 72 74 72 72 73 74 70 67 65 67 72 79 88 98 45 40 48 47 44 63 73 72 69 63 68 59 57 52 53 54 53 48 40 39 42 43 39 35 34 32 33 33 32
79 78 78 79 75 74 76 72 73 70 69 65 66 72 88 73 42 43 42 49 44 47 49 47 58 65 61 65 54 59 60 50 47 52 54 46 47 46 39 36 36 33 35 30 28
81 81 79 80 79 77 74 72 75 77 72 69 64 81 90 50 50 48 46 48 42 42 44 44 41 57 65 63 66 74 80 78 53 53 52 46 60 44 38 40 40 36 37 32 33
83 83 81 82 84 83 78 74 73 76 76 72 82 91 92 48 61 50 47 50 43 43 44 34 48 64 73 79 90 92 93 87 70 53 55 55 60 41 39 38 38 40 36 31 39
85 86 84 84 85 85 79 73 79 81 81 69 64 82 69 57 53 52 49 46 52 51 49 60 67 81 96 89 87 80 92 85 86 59 58 62 61 46 40 38 37 40 34 36 41
84 87 88 86 87 84 86 93 95 92 92 82 78 65 46 50 43 50 47 52 54 63 77 68 91 91 83 88 72 69 77 82 68 52 57 56 56 50 43 39 45 39 36 40 45
83 86 90 86 86 83 90 95 80 79 93 79 74 66 50 45 60 54 46 66 68 81 75 81 89 67 61 64 79 75 85 85 66 58 58 58 59 46 40 40 36 39 38 46 52
83 86 90 86 86 91 90 88 77 66 98 80 78 80 72 60 67 68 53 60 71 82 77 83 67 54 60 68 73 74 84 80 69 63 62 67 65 55 44 36 37 35 34 40 47
82 86 88 88 90 92 95 80 81 82 100 85 87 76 72 70 83 53 51 53 65 79 72 72 59 59 70 73 63 77 54 55 61 73 87 64 93 61 46 41 38 38 41 42 48
82 86 88 75 85 89 91 86 84 91 97 75 78 56 65 82 68 71 55 70 93 86 80 90 73 69 70 66 63 70 54 61 62 77 85 77 84 68 47 48 38 33 47 46 47
84 87 89 78 87 92 86 83 88 96 96 90 83 84 90 82 74 61 69 61 67 92 89 88 67 76 63 52 54 56 68 71 71 79 98 80 89 76 56 41 39 37 46 46 48
87 90 91 70 83 87 82 90 99 97 68 91 90 80 74 77 84 74 83 94 92 99 98 91 85 76 76 87 77 71 88 93 98 97 86 73 82 72 44 34 34 38 46 46 53
92 93 89 66 85 83 89 97 100 65 82 81 82 75 90 76 83 82 84 91 83 84 97 97 95 86 71 74 77 85 83 89 89 76 71 72 98 57 40 34 33 39 43 50 60
92 98 97 94 84 82 92 99 85 70 77 90 94 99 94 76 72 78 88 77 69 76 92 94 92 71 64 61 60 78 93 64 95 96 81 73 56 39 42 43 45 46 48 57 64
98 99 97 89 83 92 98 92 82 76 84 89 99 93 93 84 82 78 78 64 67 65 63 86 97 68 79 82 70 72 60 92 99 96 98 71 60 51 48 44 48 49 52 59 62
99 99 96 89 93 98 99 95 70 66 75 92 96 96 89 92 74 88 81 65 54 59 65 94 99 91 96 95 87 92 91 79 79 73 96 83 62 43 44 39 48 49 50 59 61
99 98 97 94 99 98 99 85 76 79 78 88 91 94 91 76 86 78 85 66 51 63 84 91 98 99 92 78 69 71 75 78 87 99 85 64 55 40 42 41 43 49 49 56 56
98 99 97 93 98 98 87 78 79 82 92 94 94 89 71 72 86 61 56 48 59 69 84 92 98 100 99 96 91 94 82 74 86 85 72 68 56 46 45 44 43 50 51 54 57
99 98 100 99 95 91 91 89 95 86 92 88 88 83 85 84 72 74 53 55 64 59 71 83 97 100 99 90 86 96 93 86 77 84 78 63 60 58 51 47 52 50 49 54 57
98 96 89 99 98 90 86 92 97 98 92 90 94 89 82 89 77 67 56 55 61 60 71 89 99 94 91 80 72 74 76 78 86 80 68 55 52 52 50 49 48 52 53 56 58
98 98 88 89 79 96 95 95 94 93 92 94 96 81 82 84 69 51 57 61 67 61 62 74 96 87 90 65 67 70 66 73 71 68 63 66 64 42 51 52 51 54 53 55 57
98 92 85 88 85 94 94 94 84 86 84 81 85 84 84 76 64 57 57 54 53 63 60 67 79 87 83 68 67 76 70 70 71 66 61 70 54 45 49 46 47 56 51 54 57

GFSSW_sfc_rhum_030.txt.gz
RH
67 66 66 66 66 66 66 68 68 70 72 77 81 89 86 84 87 84 93 66 66 56 57 53 50 54 54 68 74 76 91 87 69 60 50 38 36 28 28 34 34 33 31 30 38
68 68 67 66 67 66 66 66 68 70 71 72 76 77 84 84 79 93 74 65 61 58 65 68 70 67 66 70 75 92 98 83 59 51 48 42 40 34 40 42 42 39 34 38 48
70 69 69 69 66 65 66 67 67 68 72 71 73 76 78 82 87 83 60 66 65 62 65 72 73 72 72 68 78 88 90 66 56 47 46 49 43 34 39 43 39 39 40 38 38
71 69 69 69 68 65 68 68 65 65 69 72 71 76 79 82 66 67 56 54 61 63 69 76 84 86 77 86 72 86 74 66 64 56 56 58 43 43 40 37 34 36 36 39 37
74 72 69 71 71 69 68 70 68 64 65 71 72 76 80 95 88 55 51 53 56 67 79 85 89 87 85 71 68 78 72 60 59 60 56 50 54 48 43 35 35 34 33 35 35
78 77 74 73 75 73 73 74 72 68 67 66 72 78 90 93 53 47 50 54 54 68 80 82 86 78 84 76 72 62 60 59 58 57 58 58 53 50 42 38 39 35 35 36 36
81 83 81 80 77 75 76 75 73 71 71 67 66 74 95 78 47 48 49 53 50 63 65 74 74 78 77 78 64 66 76 64 58 54 56 57 66 61 42 40 40 38 37 38 36
81 83 84 82 78 78 77 74 73 77 74 70 65 83 91 57 59 56 52 53 47 44 46 46 49 60 68 67 74 82 84 91 62 54 55 60 78 56 43 45 43 42 42 44 39
83 84 86 84 84 84 82 76 73 75 74 72 79 85 84 52 67 54 54 56 51 47 49 36 51 67 72 86 91 92 97 89 78 51 60 65 66 53 44 47 47 46 46 42 39
82 83 87 85 85 86 81 74 76 79 80 75 66 89 74 63 59 56 54 52 58 58 57 65 68 82 96 95 87 79 90 89 86 71 59 64 66 58 51 48 45 40 38 45 41
84 83 86 87 86 86 86 95 92 96 94 86 76 74 52 56 48 59 56 59 61 69 80 75 93 94 84 91 81 78 85 90 81 61 72 67 62 52 51 55 53 48 48 44 44
80 84 86 87 86 85 88 92 83 75 93 84 79 74 58 53 64 57 52 70 75 88 81 85 90 68 67 70 84 92 94 88 67 57 58 73 74 59 48 45 48 42 46 42 54
80 82 83 87 86 91 86 86 77 71 94 80 76 78 74 65 72 67 57 67 77 84 82 89 68 58 68 74 79 82 94 86 83 66 57 53 67 64 52 49 43 40 38 45 49
80 81 83 88 91 92 83 79 80 78 99 88 87 79 73 73 83 55 50 56 69 82 79 82 66 64 69 76 73 88 70 70 68 66 92 71 85 68 59 53 48 41 47 48 50
86 80 87 79 87 95 80 90 83 92 90 69 88 59 69 78 70 71 53 60 91 85 83 89 84 77 75 70 64 75 56 60 61 63 72 71 86 73 59 56 52 45 42 43 50
93 82 90 92 88 85 87 81 88 91 94 90 82 86 91 82 75 65 71 62 75 87 90 91 68 79 66 55 55 61 67 70 74 77 98 68 78 68 66 55 49 43 44 49 52
93 93 91 73 93 87 82 89 97 97 68 91 90 88 84 84 76 78 91 95 99 99 95 94 96 82 74 77 67 63 84 97 98 97 84 56 77 61 64 56 42 38 46 52 54
93 94 86 68 89 84 89 94 99 66 87 76 72 74 85 75 74 86 90 93 87 88 94 99 92 95 81 82 84 82 81 93 94 99 65 77 88 68 52 39 37 40 44 53 63
91 98 97 92 85 82 90 99 86 73 76 76 76 88 87 74 76 86 90 91 84 87 95 97 92 75 69 67 64 88 95 65 88 84 98 85 83 59 53 50 51 53 56 62 68
98 97 98 84 82 87 97 89 79 81 79 76 89 86 87 80 94 97 92 74 72 73 66 84 96 78 70 75 71 64 64 91 96 99 98 91 78 43 50 58 61 59 63 68 74
99 100 98 86 84 97 98 97 80 80 77 87 85 94 94 86 83 91 83 68 62 64 72 71 98 89 90 99 91 96 90 77 69 80 96 98 80 41 38 48 58 59 64 73 78
98 99 97 93 99 98 99 83 72 78 81 83 82 93 94 93 94 86 87 67 54 57 88 86 99 98 90 75 71 73 74 70 79 74 72 97 74 48 44 50 48 54 63 69 72
99 98 97 91 100 98 93 77 75 81 82 88 94 90 82 90 97 80 64 54 58 63 92 92 99 98 100 98 84 80 71 62 54 82 73 88 72 46 53 55 52 60 67 67 74
99 100 100 99 93 92 89 83 89 78 79 85 92 88 91 94 78 88 73 54 58 61 79 88 99 99 97 90 88 98 84 69 62 89 72 94 85 57 55 54 62 63 65 68 73
99 97 87 93 98 90 82 84 88 96 84 87 95 94 94 94 91 91 74 66 70 69 85 92 100 100 96 93 94 77 89 83 78 68 79 62 78 63 49 52 59 60 64 68 74
100 97 89 86 85 88 88 93 90 91 93 96 98 85 92 94 82 67 64 61 67 70 85 87 99 99 98 83 91 91 82 78 82 84 92 68 62 44 55 58 66 64 63 66 70
98 93 86 88 85 92 95 84 87 80 84 79 89 95 87 87 75 70 70 64 62 70 74 85 96 99 99 76 89 99 93 87 95 83 80 76 53 51 53 51 64 65 58 62 66

GFSSW_sfc_rhum_033.txt.gz
RH
68 67 67 67 68 69 68 68 70 71 73 76 80 88 93 90 89 87 92 73 72 56 57 56 58 63 57 68 77 75 91 90 70 66 54 46 45 36 33 35 37 37 40 35 44
71 69 68 68 68 69 68 68 69 70 74 73 78 79 88 87 84 92 76 69 64 60 69 70 70 69 69 72 78 93 97 80 65 59 54 45 43 41 39 41 43 42 40 50 60
74 71 69 70 69 68 68 69 66 69 72 72 74 77 80 83 90 84 62 67 68 64 65 74 76 76 77 76 84 92 88 69 67 56 51 55 51 46 46 46 40 40 40 38 53
74 73 72 70 71 69 68 70 68 64 69 73 72 77 79 84 72 68 55 55 58 66 71 80 86 87 84 88 79 86 76 75 71 64 66 67 54 51 45 40 38 38 39 42 38
76 75 73 71 71 72 69 72 70 66 66 72 73 77 80 95 91 54 60 55 63 78 86 88 91 89 89 79 74 82 79 67 64 66 67 64 67 64 55 44 39 37 39 39 39
81 80 79 76 73 76 73 74 74 70 68 66 72 79 87 89 52 52 50 52 57 77 87 88 91 84 90 87 84 70 67 65 58 62 62 64 63 67 59 46 44 41 40 38 38
79 83 83 82 75 78 76 76 74 74 72 67 68 76 95 77 50 52 49 56 55 69 81 82 81 85 83 86 72 74 84 72 67 60 59 58 60 62 58 51 48 44 43 39 38
80 81 86 84 81 78 76 78 75 77 74 70 65 86 90 59 63 61 57 55 51 51 53 58 55 67 60 58 77 86 88 93 64 60 58 55 66 62 52 54 54 47 48 45 43
80 83 82 86 84 84 83 78 74 74 74 74 81 85 79 51 68 58 55 54 55 52 52 38 48 65 66 84 92 93 93 95 77 57 62 68 68 52 53 55 55 51 50 46 46
82 80 82 85 86 86 85 76 73 78 80 76 67 83 74 67 60 58 59 54 59 63 60 65 69 79 81 89 90 86 81 87 87 73 68 65 66 62 56 61 59 56 53 49 47
90 81 82 83 87 87 85 94 92 95 98 80 76 78 59 59 52 62 58 60 60 70 84 78 92 92 76 86 87 88 91 90 84 64 74 79 77 67 60 57 55 62 56 51 50
87 91 80 84 87 86 86 91 81 73 92 82 85 72 62 61 71 62 55 70 77 90 86 90 95 78 71 75 86 94 93 92 77 64 65 67 66 58 47 48 55 50 52 52 51
82 92 86 83 87 92 86 82 78 75 93 77 82 82 77 73 74 70 60 71 84 93 90 89 71 60 68 80 82 85 92 81 82 70 67 74 62 44 39 47 52 49 44 44 47
80 90 92 80 97 90 90 79 79 75 99 83 89 83 78 75 83 59 53 60 72 91 88 86 68 70 75 77 80 88 72 71 77 88 95 76 82 58 53 50 52 50 50 48 50
79 85 95 86 93 94 80 84 86 81 97 75 90 65 71 78 70 78 56 60 80 81 87 89 92 89 87 75 66 75 61 72 80 89 89 74 91 68 53 50 50 62 52 54 51
80 85 96 91 89 80 83 81 88 94 96 89 86 87 91 81 75 68 73 62 76 86 80 73 67 84 79 64 60 65 73 78 93 82 96 70 82 60 47 52 59 55 54 53 48
80 83 97 84 86 85 83 90 99 96 72 88 84 78 76 79 75 78 88 96 97 100 97 98 96 85 80 87 71 64 99 98 98 98 88 62 73 60 46 56 56 54 54 51 55
83 87 92 82 88 82 84 93 98 69 91 70 76 82 89 82 81 87 86 95 87 94 93 97 91 87 81 85 88 81 87 94 95 90 79 61 81 57 42 35 30 29 48 55 61
86 94 97 97 86 86 85 96 85 72 77 74 71 83 77 72 70 86 91 84 77 84 95 98 93 82 81 74 70 96 97 71 90 92 96 82 68 48 43 45 56 53 50 61 68
97 98 94 94 81 87 93 84 82 74 74 69 90 79 74 74 86 93 93 78 73 79 75 84 98 78 75 76 71 76 69 95 99 94 94 83 80 50 43 30 22 55 63 68 71
95 98 98 92 92 91 98 97 78 82 76 84 85 81 85 79 85 93 88 74 72 80 75 77 90 91 95 99 86 92 97 81 73 88 97 99 69 68 40 32 35 67 70 75 79
95 99 98 91 100 99 98 86 71 89 84 88 80 77 85 81 85 92 90 69 60 66 91 76 99 97 84 80 68 70 81 78 80 90 78 96 71 52 59 51 60 74 74 82 81
99 97 97 87 99 99 89 82 76 90 89 82 84 76 75 94 98 86 79 59 62 67 83 87 99 97 96 96 96 99 95 94 69 69 75 72 52 56 41 66 63 77 83 86 85
99 100 99 97 96 86 94 87 86 80 80 81 85 81 94 96 83 91 86 65 61 58 70 82 99 99 92 86 97 98 94 96 84 78 71 69 51 36 39 65 75 86 83 88 84
98 97 92 99 98 82 78 82 83 94 80 79 94 94 95 98 92 86 82 76 65 68 81 88 99 99 95 92 94 98 90 83 83 65 70 59 68 59 44 57 69 78 81 85 86
97 98 91 82 86 90 87 88 80 79 92 94 97 85 93 96 75 87 81 75 63 82 85 91 98 100 98 83 94 98 96 76 72 60 64 75 67 48 51 56 68 72 74 80 83
98 96 88 89 85 92 93 85 82 80 86 79 92 96 95 86 70 73 75 76 73 76 90 96 99 100 99 97 96 99 94 77 76 65 60 91 68 52 58 58 64 69 68 75 78

GFSSW_sfc_rhum_036.txt.gz
RH
71 69 67 67 67 69 70 69 69 72 74 74 80 85 89 89 89 89 88 78 77 60 58 61 59 65 61 70 82 78 92 93 80 70 59 50 48 40 37 36 38 39 44 39 52
74 71 70 68 68 69 70 69 68 71 73 74 75 80 87 89 87 95 74 69 68 62 76 72 72 71 71 74 83 94 98 84 68 62 59 51 53 47 44 46 45 42 40 56 68
79 75 72 71 69 70 69 69 69 69 71 75 74 77 80 80 79 81 61 68 70 66 66 75 76 77 82 80 86 94 91 76 73 66 64 62 58 53 55 56 44 46 40 46 72
77 79 75 73 70 72 70 69 70 66 70 75 74 77 77 82 80 69 56 54 59 69 69 81 84 84 86 86 80 88 82 83 77 70 72 76 64 69 56 50 40 46 41 43 42
77 79 80 75 72 72 72 69 71 69 66 73 74 78 78 91 88 58 58 56 70 76 76 78 90 86 88 84 82 86 85 70 67 63 71 69 74 76 71 52 48 48 44 43 42
80 79 81 81 76 75 76 71 74 71 70 68 72 77 85 72 52 54 53 52 63 85 91 83 91 85 90 91 87 79 75 72 65 61 63 67 65 70 64 59 56 50 47 45 45
85 81 81 83 80 76 78 74 75 76 74 69 69 76 94 72 53 61 53 59 58 73 92 90 79 86 83 92 78 80 89 80 74 67 65 61 66 67 51 57 60 57 52 46 44
86 86 79 80 84 79 78 75 79 80 75 72 66 86 86 60 66 62 60 57 56 56 58 71 75 82 65 69 73 84 87 98 68 68 62 60 72 55 48 49 59 61 57 52 44
79 89 82 80 83 84 83 78 80 74 74 75 86 81 84 52 64 61 56 53 54 53 54 45 53 64 67 82 80 75 96 96 81 64 66 73 77 64 56 60 67 66 62 54 49
68 83 90 81 81 86 85 79 74 76 80 76 68 86 76 67 61 60 63 54 60 60 61 65 67 84 82 80 96 90 98 89 90 76 73 76 76 62 54 56 58 63 67 61 54
67 81 88 91 80 86 85 90 91 94 84 82 82 78 64 62 57 66 60 60 63 70 84 81 92 93 78 77 73 94 97 95 84 68 81 79 73 63 58 68 72 62 59 61 57
70 75 89 90 83 86 85 87 77 69 97 82 83 80 66 66 74 67 59 72 77 92 86 90 96 78 71 75 87 93 90 78 66 69 74 71 68 56 52 54 56 54 56 58 56
72 73 81 92 94 94 84 80 78 70 88 77 84 82 78 72 77 75 64 75 86 94 95 92 74 68 76 84 86 90 93 81 74 71 66 78 65 40 35 37 42 39 41 48 52
69 71 76 87 99 92 89 80 77 71 94 81 95 86 82 76 81 62 59 68 84 91 92 92 72 74 81 85 86 86 72 76 79 89 91 80 78 50 49 42 36 37 49 54 56
74 72 74 82 98 96 87 80 81 72 97 81 90 65 73 75 73 82 59 61 77 82 86 86 93 96 90 78 74 78 68 78 80 92 96 85 94 64 54 46 44 64 63 54 55
73 73 77 91 99 84 75 78 85 90 94 92 85 90 93 83 74 72 72 63 74 78 79 75 67 77 83 72 69 70 75 81 88 96 98 72 86 58 43 38 43 51 55 54 58
80 75 80 82 97 84 78 91 98 97 76 89 86 80 74 84 80 79 88 96 95 100 99 84 91 78 75 85 77 78 97 98 99 97 86 66 78 60 44 42 46 47 57 62 62
81 77 84 80 94 85 85 95 97 74 90 74 75 76 78 67 72 86 87 91 84 91 95 93 90 90 78 80 82 88 83 93 94 95 86 65 84 54 46 36 33 31 39 53 62
81 98 94 97 93 86 94 98 82 76 75 76 79 78 86 82 81 88 89 81 62 86 98 96 93 77 83 80 71 94 96 71 92 81 95 72 78 53 41 36 39 56 44 44 66
99 95 93 94 95 93 97 86 77 72 72 71 88 83 89 83 88 90 88 81 72 78 68 81 96 76 82 83 79 81 68 97 98 96 94 86 83 63 47 42 32 26 35 60 76
96 95 91 87 94 99 99 91 78 80 67 78 83 89 80 74 76 84 86 79 73 80 75 85 90 92 93 98 84 97 98 99 80 87 94 92 55 56 55 64 63 57 30 66 78
95 99 96 91 100 100 99 81 78 89 84 86 81 80 84 79 75 83 94 71 67 80 91 76 96 97 83 59 67 63 88 80 97 94 89 90 58 50 70 65 65 68 74 88 88
98 97 97 91 99 100 90 85 83 91 89 86 87 80 77 80 97 85 77 64 67 79 89 76 97 99 87 93 80 100 96 95 84 92 82 85 56 34 34 36 75 91 96 94 88
99 100 99 98 96 92 93 87 96 80 86 81 81 71 85 95 87 92 85 72 67 66 68 73 92 95 88 73 79 100 98 98 97 97 81 76 53 35 34 48 68 92 95 95 92
98 98 91 98 99 90 79 76 92 96 87 82 93 81 76 96 93 96 92 77 70 67 70 83 99 98 94 84 87 96 99 98 98 86 91 61 56 45 47 47 74 88 96 92 88
98 99 95 81 87 93 83 94 80 93 85 88 93 70 77 96 90 87 75 74 76 88 90 87 99 100 97 83 95 99 96 98 95 91 79 63 60 41 49 75 72 89 95 93 86
96 97 96 92 94 97 92 86 82 74 86 78 79 83 90 86 84 80 74 70 82 81 87 96 99 100 93 91 98 100 97 97 94 74 70 80 57 43 56 57 68 84 87 87 81

GFSSW_sfc_rhum_039.txt.gz
RH
79 74 71 68 67 67 69 70 71 71 72 73 74 82 88 90 90 88 90 74 73 64 58 57 53 59 53 60 70 64 77 78 65 59 46 39 37 32 30 30 31 27 29 31 50
75 79 74 71 69 68 69 71 70 70 72 74 72 78 84 85 89 95 72 67 69 63 69 63 64 61 61 64 75 80 89 74 62 53 49 44 44 41 37 40 37 32 29 40 53
77 75 80 75 71 68 70 70 69 70 72 74 73 76 79 76 72 70 60 66 68 68 63 66 65 63 65 64 74 86 83 69 64 58 61 61 58 45 44 51 41 36 34 34 47
79 80 77 81 74 70 71 70 70 71 67 74 74 76 77 75 84 61 59 56 60 71 66 71 70 68 72 73 68 81 75 78 70 62 63 65 60 64 55 47 38 35 39 37 35
75 82 81 79 79 73 72 72 70 71 68 72 74 77 75 81 88 55 56 51 71 77 75 80 77 74 74 72 69 79 74 66 63 59 58 64 69 64 64 55 46 46 48 45 40
68 78 83 84 81 80 74 74 69 72 72 68 71 75 75 64 47 53 52 50 64 79 83 72 74 73 77 80 73 68 71 69 64 61 56 60 58 65 54 53 53 53 49 45 41
66 68 80 86 82 82 76 76 72 76 74 70 70 75 90 70 52 61 53 55 53 75 91 82 73 76 78 87 72 71 82 72 69 64 63 55 64 65 46 46 51 50 48 47 43
66 66 74 86 87 82 79 76 76 80 79 74 70 83 81 58 65 60 57 53 52 57 67 81 78 77 72 62 61 71 68 81 62 64 60 54 57 49 40 46 48 46 43 45 40
64 66 68 82 88 84 84 80 78 79 77 75 84 77 87 52 60 59 56 52 53 53 52 60 56 64 62 76 81 74 83 89 73 58 59 64 68 53 53 53 53 52 50 50 46
69 69 69 83 87 90 84 81 76 77 80 79 72 86 76 66 60 62 61 54 58 59 60 62 67 77 74 78 84 83 93 87 83 60 65 67 66 55 47 49 47 46 48 50 50
68 73 72 76 88 93 89 90 90 89 93 84 81 76 66 61 58 66 59 58 60 66 86 75 84 90 78 76 70 82 90 85 66 60 67 67 66 55 49 49 53 48 44 45 50
67 75 72 72 89 91 87 88 78 67 95 80 81 78 69 66 71 70 58 70 74 87 80 89 91 73 69 72 77 78 83 78 65 58 66 68 68 53 47 45 40 39 40 43 41
68 75 72 72 80 91 89 77 72 62 75 79 79 82 80 71 80 76 65 73 81 92 91 89 70 67 73 79 83 87 89 77 74 63 60 65 59 37 31 35 36 38 37 37 39
69 74 74 72 87 88 95 81 74 69 91 78 95 86 82 73 81 64 61 67 80 90 90 90 74 74 84 84 82 84 68 71 78 83 81 64 70 41 33 31 28 28 33 38 38
68 72 71 70 90 95 90 82 79 70 89 75 95 65 77 78 69 78 61 63 81 82 84 85 87 94 85 76 76 75 64 72 77 86 93 75 89 48 45 44 38 34 35 34 37
69 70 72 85 88 87 92 88 80 90 97 95 85 93 94 75 76 74 69 62 71 72 78 74 69 73 76 70 68 66 77 74 84 94 96 65 81 53 39 33 31 28 28 44 43
81 74 78 79 88 82 95 94 99 94 74 95 89 86 78 86 84 78 91 92 95 99 98 85 85 77 70 80 76 74 99 94 94 97 81 60 78 56 38 37 34 34 35 38 44
76 81 80 77 84 93 96 99 97 75 85 68 71 78 82 75 75 84 84 93 86 89 92 89 88 83 76 78 67 81 81 88 94 87 73 64 76 50 40 36 33 32 32 31 48
86 93 96 92 84 95 97 99 84 74 78 77 74 80 83 68 74 76 88 82 76 82 94 96 89 72 84 80 70 84 96 69 89 72 88 58 53 38 32 34 39 35 33 43 40
99 97 95 86 87 98 99 98 76 74 73 75 88 78 82 77 91 92 92 78 73 73 66 78 94 72 80 82 80 83 70 94 97 96 92 68 65 51 44 36 40 55 54 49 40
96 97 89 82 91 99 99 100 83 75 66 74 84 89 80 89 85 90 83 78 72 79 75 76 82 83 86 95 84 90 96 99 95 96 88 70 48 39 35 43 64 63 68 68 46
97 99 93 90 99 100 100 82 82 89 81 82 77 77 78 80 82 76 77 80 68 81 88 78 93 99 84 68 67 65 73 80 97 94 91 82 62 33 55 68 63 66 81 85 77
98 98 97 87 99 100 94 86 88 87 84 81 86 80 79 84 89 76 74 64 74 80 87 80 97 96 83 84 80 96 80 71 94 95 95 92 58 32 33 40 53 65 84 88 86
99 100 99 97 95 86 98 96 95 81 86 80 84 73 81 86 80 83 78 69 71 72 69 68 96 90 87 65 65 98 98 98 99 97 78 88 60 43 38 38 52 53 88 88 83
98 100 94 100 99 84 85 80 93 94 89 84 90 77 78 86 85 89 74 78 75 69 68 85 100 91 79 76 82 96 98 97 99 89 94 60 67 54 44 57 53 53 86 84 86
99 99 93 84 93 88 88 83 80 92 90 96 87 85 76 87 74 91 82 81 78 80 75 88 98 99 97 81 82 100 95 98 96 87 92 80 76 54 45 57 62 67 83 81 84
96 96 98 90 96 98 94 89 81 82 86 77 81 83 78 78 72 71 73 77 77 81 88 89 97 100 95 79 84 95 97 98 95 87 80 94 70 56 55 51 56 71 76 82 81

GFSSW_sfc_rhum_042.txt.gz
RH
78 75 74 73 70 68 67 69 72 71 70 71 73 76 85 88 89 83 76 53 54 62 58 46 40 39 39 41 50 45 36 31 31 28 26 27 26 20 21 21 23 19 20 25 31
76 76 78 75 74 71 69 70 72 70 69 71 73 74 80 81 83 94 58 64 65 63 50 49 46 40 39 43 46 44 43 33 27 28 30 28 30 26 28 25 23 22 22 26 33
72 80 77 81 77 73 70 71 71 70 69 70 73 74 78 69 68 62 66 69 68 65 56 48 45 42 45 44 47 46 47 33 43 37 43 41 40 33 30 31 26 24 23 26 29
65 72 77 79 81 77 72 72 71 71 69 70 74 74 76 60 52 59 59 55 61 59 58 57 51 51 50 50 42 54 45 42 44 46 49 48 39 42 34 27 25 29 28 29 28
63 67 73 74 81 81 77 73 71 71 71 70 74 75 62 56 51 43 53 44 54 60 69 70 59 53 56 48 51 50 40 42 40 48 43 39 42 40 38 31 30 31 33 32 28
64 63 68 72 79 85 81 75 73 71 72 70 70 75 56 46 37 40 39 40 58 56 63 64 64 51 56 54 52 48 51 47 45 43 41 46 39 36 33 28 27 28 30 29 28
60 65 66 66 73 84 85 79 75 72 75 72 71 58 67 47 36 41 40 41 51 57 61 54 50 57 53 60 54 52 57 43 41 39 43 40 45 41 30 27 28 27 25 26 24
60 64 68 67 72 80 89 80 79 78 78 72 72 61 64 48 42 46 40 41 49 52 58 54 54 56 54 50 49 52 52 50 40 45 40 42 41 26 26 28 31 28 24 24 25
58 66 69 70 70 78 89 86 82 79 78 76 69 66 69 48 52 40 38 40 44 44 50 56 54 51 53 54 54 49 42 49 47 44 45 46 44 33 38 33 33 27 27 28 28
59 68 68 74 73 77 86 92 84 77 71 70 62 82 62 57 46 49 44 40 45 50 56 54 49 54 49 54 47 42 52 46 47 39 42 44 43 35 33 33 32 30 28 29 30
61 70 69 73 72 73 89 99 96 91 73 58 57 59 56 50 47 54 43 46 45 49 61 57 68 69 50 48 45 51 52 55 44 40 43 39 36 31 28 28 28 27 26 26 24
66 68 67 73 72 71 92 98 72 55 80 59 68 55 57 50 61 58 45 52 56 62 59 72 78 52 48 48 55 53 55 51 43 39 43 39 39 30 28 28 27 24 21 19 18
67 70 68 73 71 77 90 92 62 54 56 73 63 65 63 57 59 63 47 52 54 67 65 65 55 51 56 60 64 58 56 51 50 43 42 45 42 28 22 21 21 22 21 20 20
67 69 66 70 75 78 84 85 89 63 95 76 74 59 64 58 64 50 43 49 61 61 62 62 49 58 61 61 54 61 46 54 56 59 61 47 50 30 24 23 22 19 19 20 21
63 71 69 68 84 82 88 95 95 84 97 67 82 54 56 57 60 70 47 51 62 62 65 72 69 71 70 61 53 60 50 52 56 65 69 56 82 30 23 27 22 20 18 18 18
71 79 74 77 74 64 74 96 96 98 90 89 85 87 87 63 63 68 66 52 50 62 66 54 52 57 52 51 54 54 59 59 59 77 87 43 60 32 17 15 17 18 18 18 17
69 78 79 73 81 61 80 97 100 96 62 92 82 86 73 74 84 70 84 87 83 96 94 67 67 58 57 64 62 66 86 84 84 91 64 34 42 37 20 23 23 22 18 18 19
81 87 84 72 68 74 89 100 98 64 66 62 70 76 86 66 76 76 82 90 65 64 71 75 74 66 63 64 67 84 68 69 74 54 32 41 54 26 20 25 23 21 18 24 25
86 81 82 75 70 86 98 99 88 56 61 67 72 80 85 74 70 74 78 72 64 68 85 74 81 57 60 59 54 64 86 56 76 56 65 36 26 20 18 19 20 21 29 31 29
98 88 80 70 76 94 99 85 85 59 56 56 73 61 76 75 69 69 70 54 54 52 48 64 94 56 61 66 62 59 49 80 91 84 69 40 34 32 26 24 23 24 31 30 34
97 90 72 75 86 99 99 100 75 55 54 60 65 69 61 66 63 67 61 59 50 56 53 62 71 74 74 84 68 80 90 79 75 77 69 66 40 23 24 22 22 36 34 36 45
95 100 73 81 99 100 100 96 69 65 64 64 56 58 59 62 66 61 61 54 50 58 69 57 79 87 76 47 44 44 57 62 93 87 87 80 61 27 28 26 39 35 31 36 51
98 99 89 91 98 100 96 90 73 70 68 64 68 60 57 60 73 59 58 51 56 57 60 62 92 89 75 72 59 79 65 60 84 88 94 87 56 28 29 37 33 32 31 35 55
98 100 98 97 87 79 95 95 91 76 71 66 66 58 60 63 62 74 68 60 59 53 62 61 78 92 76 50 55 96 87 94 100 97 71 75 56 37 29 32 30 29 34 45 59
98 100 95 99 92 74 71 73 78 80 72 65 70 60 62 71 69 74 67 66 66 66 65 68 99 81 75 64 61 74 85 95 100 93 96 57 50 40 36 38 35 33 38 57 70
100 99 94 78 72 70 75 70 66 78 66 75 64 63 58 63 56 71 64 68 69 63 72 75 88 83 97 58 64 93 80 94 96 95 96 91 78 44 40 38 38 44 52 71 73
95 93 96 85 83 78 78 66 67 61 68 60 59 67 68 60 52 49 62 64 70 72 74 80 91 96 94 63 66 83 85 95 94 86 78 96 62 46 47 52 49 53 56 56 73

GFSSW_sfc_rhum_045.txt.gz
RH
71 76 77 76 79 74 72 70 69 72 71 70 72 72 76 85 89 77 79 51 45 61 62 38 35 34 33 36 32 34 36 31 26 19 17 15 19 17 15 16 16 14 15 22 25
68 70 74 78 78 80 74 71 70 73 71 70 72 73 75 82 75 82 56 56 60 62 50 43 40 35 37 38 38 42 38 29 17 15 18 19 21 19 21 20 17 17 16 20 25
62 66 68 75 75 80 80 73 72 72 71 69 73 73 74 74 69 65 72 65 65 62 42 39 36 36 39 34 38 40 39 24 22 29 27 26 23 23 25 28 18 18 17 21 25
58 61 66 68 74 76 83 78 73 73 72 68 74 74 74 59 61 50 59 68 70 61 57 47 43 45 44 43 32 42 31 28 28 32 37 39 30 28 25 26 17 17 21 23 24
54 58 62 67 69 74 78 84 74 73 73 69 74 75 61 61 46 46 56 48 46 52 67 54 53 45 47 37 35 42 37 28 30 33 36 36 37 33 30 25 22 21 24 26 26
56 54 60 63 66 67 75 82 82 73 74 73 70 76 57 51 29 34 36 38 41 49 59 55 61 48 46 45 44 36 37 34 33 33 34 39 35 32 28 23 23 23 24 23 25
55 57 60 66 69 67 73 78 87 78 75 74 69 57 58 44 27 29 35 38 46 41 60 58 48 56 46 54 44 44 49 38 34 33 35 34 41 37 27 24 24 22 21 20 20
54 54 60 64 70 70 72 75 86 86 78 75 70 51 60 39 31 38 32 39 45 44 44 46 46 49 45 44 43 46 42 43 29 32 29 35 41 22 21 22 24 22 20 20 19
58 56 60 64 70 71 74 76 83 92 77 74 68 61 61 48 45 33 30 37 44 46 51 49 50 53 47 48 42 41 40 36 30 28 32 39 39 24 25 27 24 22 20 20 20
63 58 61 67 70 72 74 75 81 93 79 69 58 69 52 51 42 37 32 31 42 43 51 51 47 50 46 43 44 37 40 34 32 29 34 36 34 28 25 26 27 26 24 23 21
63 61 65 70 69 72 73 91 100 100 94 68 65 48 50 42 39 44 36 36 38 45 54 49 54 54 41 36 34 42 40 38 32 28 33 33 31 26 22 21 22 22 21 20 20
62 63 68 70 70 72 76 88 92 92 94 53 50 50 44 42 56 47 37 46 47 58 47 67 74 42 36 38 41 43 45 40 33 30 35 33 32 26 24 23 21 21 20 19 18
63 64 66 74 73 68 68 68 83 91 93 66 54 49 57 50 49 56 44 42 46 51 54 62 48 43 44 49 51 47 46 42 40 34 33 36 36 25 20 21 21 20 19 18 18
62 62 68 73 74 65 66 69 86 96 100 86 74 56 56 51 60 43 40 42 49 52 53 53 42 47 49 53 46 53 36 41 44 50 51 38 53 31 21 19 18 17 17 17 18
61 67 73 75 74 70 57 82 88 97 99 69 68 40 51 53 53 57 38 46 52 46 51 64 58 55 57 49 43 51 45 46 48 57 66 51 62 33 17 16 15 15 15 15 15
62 65 70 86 75 57 55 82 94 100 99 90 85 71 74 52 56 56 54 46 42 48 53 47 43 48 49 45 45 48 52 55 56 65 88 45 44 31 15 12 13 11 14 15 14
66 78 78 74 89 55 65 95 99 98 68 93 84 78 70 65 67 68 75 80 72 92 88 59 56 49 44 55 51 58 69 84 88 90 65 26 30 30 16 16 16 16 15 14 14
72 87 84 72 72 69 83 100 98 95 68 54 72 71 76 65 69 61 68 85 58 51 62 74 78 54 56 59 63 65 67 68 73 50 36 27 42 24 14 17 18 17 17 16 16
80 84 84 69 62 80 90 98 91 76 56 71 73 90 76 63 70 70 65 65 52 50 74 61 70 48 50 51 51 68 89 52 72 53 60 33 20 16 15 15 16 17 18 20 21
96 85 72 65 70 89 95 80 99 56 50 56 73 62 82 69 69 58 76 53 55 44 41 52 87 51 52 52 52 50 42 80 90 84 64 32 28 27 22 20 18 19 20 22 23
96 93 76 66 79 94 97 94 94 46 45 50 54 55 55 64 55 60 62 51 43 46 48 51 64 71 63 77 65 68 75 68 53 63 61 57 36 20 24 22 22 21 19 25 27
97 99 82 70 94 100 91 90 79 57 56 51 45 46 50 50 55 55 54 48 39 42 57 51 69 86 72 44 40 42 55 59 87 71 71 72 56 26 25 23 24 24 26 26 24
98 99 77 81 100 100 82 94 78 64 60 54 56 45 40 50 60 49 47 43 44 46 50 53 80 86 80 63 47 62 52 49 67 82 94 90 57 23 23 27 25 28 28 24 25
98 100 97 94 81 84 93 96 89 65 63 52 52 44 47 53 47 56 54 56 50 45 64 54 66 90 75 59 54 100 72 69 99 98 70 71 54 39 34 36 34 26 26 27 27
99 99 94 98 84 89 68 91 72 71 60 52 56 50 49 59 58 57 51 64 60 61 56 60 94 71 67 57 56 63 70 69 97 96 98 67 68 54 52 47 40 34 32 30 42
99 99 96 66 59 77 70 89 72 70 62 57 54 48 45 51 45 54 53 57 63 61 63 70 86 76 94 60 56 71 55 55 74 95 93 95 93 60 47 36 46 41 36 52 57
94 92 98 77 59 59 55 50 53 57 57 47 48 53 55 53 44 44 44 48 61 64 74 83 96 98 84 55 51 77 69 75 91 89 92 90 57 44 48 61 78 72 73 64 67

GFSSW_sfc_rhum_048.txt.gz
RH
62 65 70 72 75 76 80 76 73 71 71 73 71 72 72 77 85 82 79 59 57 57 58 49 40 39 38 45 38 35 52 50 41 32 27 17 24 21 20 22 19 22 22 31 37
55 58 62 68 72 76 76 82 75 72 72 73 71 71 72 76 77 79 57 57 56 61 50 47 46 40 48 47 45 52 64 55 33 24 28 24 26 25 26 24 24 23 20 28 32
56 55 56 61 66 74 75 77 82 74 73 73 70 73 74 70 73 62 61 59 62 60 54 46 40 38 50 44 45 49 60 38 28 23 35 36 33 28 30 35 28 24 21 26 32
56 56 56 56 61 66 71 75 77 81 74 73 70 75 75 64 67 57 60 63 67 62 57 54 48 50 53 49 37 50 40 37 37 31 39 42 34 38 31 32 26 25 25 30 31
56 56 55 56 57 62 66 69 75 81 76 74 71 75 66 69 59 60 62 57 64 71 69 70 52 50 55 45 40 42 38 33 32 33 36 38 44 45 40 32 27 26 26 33 34
60 58 57 56 60 65 69 68 72 77 86 75 72 76 66 62 29 40 40 39 47 62 72 72 56 50 60 49 46 39 40 39 37 35 36 39 40 42 36 30 31 29 31 31 32
62 62 59 58 59 62 68 68 72 75 86 78 73 65 62 55 28 29 36 36 41 44 65 65 54 62 54 57 46 47 56 49 45 41 42 39 47 45 34 31 32 29 27 26 28
63 62 62 59 60 62 67 70 72 74 77 87 73 60 68 39 36 35 31 36 40 39 50 54 54 57 63 47 49 57 57 70 39 37 36 40 55 36 30 32 33 30 28 26 26
61 64 65 62 62 66 69 70 71 71 77 89 77 70 67 50 46 36 31 39 42 42 49 48 54 60 51 64 67 55 60 56 45 36 37 41 52 36 28 34 36 31 28 26 24
62 66 66 64 65 69 70 71 70 70 78 87 70 84 54 56 45 39 32 35 47 59 68 68 66 70 61 67 70 54 58 46 43 41 41 46 45 35 30 28 35 36 34 31 29
66 65 64 65 70 67 74 78 81 97 96 84 82 52 51 42 39 43 35 37 42 57 68 64 73 76 59 55 46 44 48 51 39 32 37 39 38 33 29 28 28 28 28 28 28
66 65 67 67 69 69 76 82 73 97 94 82 70 47 43 45 57 50 38 50 53 65 54 68 78 49 39 41 45 44 53 54 41 32 39 42 41 34 30 28 26 25 24 24 25
65 66 66 71 74 72 71 68 82 81 98 83 79 53 52 45 54 59 44 45 55 62 61 67 55 44 48 50 54 55 58 52 48 41 40 44 47 39 29 28 27 25 24 23 24
66 66 64 74 78 69 70 77 88 87 100 96 89 61 54 52 57 45 42 45 48 58 47 56 45 44 54 55 50 60 44 44 47 58 72 51 82 45 32 28 26 28 28 27 24
65 65 65 71 83 76 63 81 86 92 97 93 91 47 55 54 57 58 44 44 55 50 56 71 59 60 60 52 47 54 49 52 55 68 76 64 84 58 32 29 22 23 24 25 25
62 65 69 79 82 69 70 80 90 97 95 99 84 76 75 57 54 55 56 48 45 48 50 54 46 54 53 45 46 50 57 60 65 76 92 67 66 60 33 25 22 18 22 21 22
65 69 79 82 89 65 72 88 100 98 97 99 95 75 66 69 68 64 72 76 81 91 91 60 61 52 48 55 53 58 68 95 99 99 92 39 58 50 27 23 22 20 24 23 22
73 78 75 72 82 71 89 100 98 80 100 77 74 73 69 68 72 70 79 82 62 58 77 81 85 62 51 58 70 70 75 96 89 91 72 47 59 36 23 20 24 23 24 26 26
76 84 86 83 81 81 92 98 80 99 83 93 76 95 76 65 72 75 79 66 57 57 73 76 78 50 51 50 54 69 87 66 81 69 90 55 32 23 18 19 20 23 25 27 26
95 92 88 74 75 90 96 77 91 95 66 67 86 69 85 74 73 69 75 56 54 51 47 60 88 56 56 54 54 61 52 86 96 97 88 58 43 37 32 31 26 26 27 26 28
98 97 84 74 82 95 97 98 94 80 57 58 59 61 56 71 59 63 65 52 44 49 48 52 70 75 66 80 76 74 82 75 73 85 93 90 56 35 38 34 36 34 30 30 38
96 100 88 83 97 100 98 79 91 84 55 48 46 48 55 53 60 54 60 50 43 45 57 52 75 95 81 55 53 56 67 69 92 86 89 98 73 32 35 38 40 39 32 32 34
98 98 85 89 97 97 83 94 92 90 59 52 50 43 42 53 67 52 52 45 47 48 58 58 86 86 77 70 53 71 62 60 68 84 87 91 69 30 31 35 35 36 37 34 33
98 99 97 96 94 78 85 98 95 69 60 50 48 42 48 52 47 56 61 56 54 49 62 56 73 93 96 77 74 94 74 68 85 98 76 77 67 52 46 51 54 54 47 42 40
99 97 95 96 98 78 83 90 84 71 60 53 56 46 49 56 53 54 63 66 60 67 58 66 92 82 78 67 62 69 75 77 91 85 95 69 69 63 70 65 62 58 63 64 43
99 99 96 90 85 76 80 94 77 66 66 56 58 48 49 54 52 55 54 61 71 67 66 68 94 85 93 66 64 79 68 67 67 70 95 93 95 74 58 51 58 68 76 80 66
93 92 99 81 83 80 77 81 66 64 57 47 51 57 58 60 51 51 52 49 55 69 68 84 91 97 90 65 61 78 68 66 88 84 89 98 78 64 68 57 80 84 82 77 70

GFSSW_sfc_rhum_051.txt.gz
RH
56 57 56 58 58 68 74 76 77 80 73 71 73 72 71 74 79 81 90 71 72 67 56 57 53 52 49 55 52 51 72 76 61 51 40 27 30 22 25 24 23 26 32 46 48
56 56 56 55 56 56 65 74 74 79 78 73 74 71 70 76 85 92 64 62 62 63 63 61 61 51 64 58 57 61 76 64 46 40 37 35 40 33 29 28 30 28 37 39 49
58 57 56 56 55 56 59 62 71 74 83 74 74 70 73 75 90 80 61 63 62 62 54 54 54 50 62 60 60 59 74 54 46 38 38 44 41 39 36 42 29 28 26 39 44
61 60 59 59 56 57 55 66 63 70 75 87 74 70 76 74 82 71 63 63 62 66 68 70 71 67 62 64 52 66 52 46 44 41 42 49 46 48 50 38 34 32 33 34 40
63 63 62 62 60 57 58 59 65 67 72 80 76 72 81 85 80 63 66 64 58 70 76 77 82 66 65 60 54 56 50 42 41 42 40 40 50 52 49 42 37 35 35 34 36
68 67 63 63 61 60 59 60 62 66 73 77 82 78 86 90 40 58 57 65 69 75 80 78 66 56 66 68 61 52 46 50 46 47 45 44 45 49 48 37 38 34 34 38 36
68 68 66 64 65 62 61 59 62 66 69 77 86 73 80 65 34 50 43 45 52 67 81 68 65 62 61 67 53 51 63 60 55 52 52 42 52 53 42 42 44 40 37 32 33
67 65 64 67 66 63 62 64 65 67 70 77 78 73 81 47 43 37 36 43 44 47 59 75 72 63 64 55 53 64 69 87 54 46 49 48 61 44 39 44 42 39 36 37 32
66 66 66 67 67 65 64 67 67 68 68 67 89 82 73 54 54 40 38 45 49 51 57 54 69 68 61 66 72 63 81 80 64 40 46 51 61 42 36 39 41 39 38 34 31
65 66 67 67 66 67 69 69 70 70 71 64 85 89 73 66 52 42 38 40 55 65 68 71 73 72 74 74 93 71 80 65 59 47 46 51 55 46 39 37 40 41 46 41 33
66 67 68 68 67 68 80 90 86 87 86 79 87 70 56 53 45 50 39 43 62 76 92 78 90 95 84 75 63 63 60 59 54 41 43 51 51 42 37 36 33 32 38 33 33
66 67 67 66 67 68 82 94 78 87 93 67 84 64 50 47 60 52 41 57 68 86 62 79 87 66 58 62 65 63 60 64 50 41 45 48 47 39 35 35 32 31 33 31 28
66 67 66 67 70 81 86 85 85 76 97 85 70 74 57 54 64 62 48 56 63 73 67 83 59 51 58 61 57 67 70 67 59 50 50 55 54 47 37 35 31 28 27 27 27
67 65 63 69 80 85 85 92 87 87 100 95 89 84 61 57 72 49 47 52 59 68 64 63 53 53 64 65 57 71 54 54 56 66 80 58 85 65 41 31 32 37 34 30 28
63 61 66 69 91 92 79 88 92 94 97 84 89 70 55 69 64 62 49 50 64 64 64 75 64 57 66 63 54 64 54 59 63 76 84 75 83 62 51 36 31 28 29 35 34
64 66 69 80 90 82 78 90 93 94 93 99 93 87 78 64 64 61 58 53 53 57 59 62 51 58 59 52 53 53 62 66 73 82 98 78 75 61 44 33 28 29 24 30 29
67 70 77 78 92 77 83 92 98 97 95 99 99 76 75 75 74 70 71 76 82 94 99 68 68 59 54 66 62 64 78 96 93 96 92 64 79 66 43 33 29 28 25 25 24
74 80 80 74 81 79 93 99 100 78 91 92 89 73 88 72 75 73 75 90 76 70 93 91 95 70 58 67 76 78 77 94 95 98 86 59 80 49 30 30 26 25 26 26 30
80 91 94 83 84 85 94 99 85 97 96 98 92 98 98 78 78 78 77 78 72 68 84 90 85 59 56 56 63 81 90 70 87 85 94 72 49 32 26 30 27 27 27 28 28
96 95 93 91 80 92 97 91 94 94 97 87 99 82 96 82 81 81 78 65 58 58 62 66 90 60 60 57 58 65 61 88 95 93 94 74 59 43 40 40 37 39 38 35 34
96 95 90 86 87 97 100 96 90 85 89 90 78 74 71 79 74 76 76 61 54 56 56 57 77 89 69 80 78 77 88 78 80 91 94 96 67 41 41 41 46 44 39 37 35
97 100 89 92 96 100 100 86 96 93 82 77 64 61 64 68 72 63 76 62 47 54 66 58 79 95 86 64 60 70 76 70 93 82 96 94 84 41 36 43 44 40 47 45 48
98 97 89 91 99 97 92 95 96 88 78 60 56 52 53 60 71 59 59 50 46 49 56 63 83 86 85 71 65 82 69 72 75 91 94 96 76 38 44 40 39 55 60 56 50
96 99 95 96 93 97 98 100 98 78 78 56 50 46 52 62 65 69 68 60 56 55 66 58 78 87 91 85 81 89 76 76 82 99 84 85 65 48 46 45 56 64 70 71 68
99 99 98 99 97 96 93 96 91 77 65 56 53 52 55 62 64 69 70 73 67 62 59 68 94 89 83 77 77 79 82 78 87 74 92 63 62 55 53 66 67 64 68 60 63
97 100 96 96 89 89 96 96 94 68 73 63 60 53 58 66 60 70 71 76 78 76 71 76 93 85 95 73 76 85 73 74 74 70 68 66 74 63 62 64 61 81 81 79 75
95 91 98 94 89 97 96 91 82 69 60 54 59 73 76 72 62 61 57 60 68 77 72 82 86 96 95 71 73 88 74 74 75 78 68 92 76 70 74 73 90 90 86 79 76

GFSSW_sfc_rhum_054.txt.gz
RH
58 56 57 56 56 56 56 56 66 73 75 86 74 73 74 73 77 85 89 74 76 70 57 58 57 55 58 62 54 56 80 87 66 55 46 37 39 27 26 28 26 30 44 53 54
59 58 58 57 58 56 56 53 56 61 68 74 86 74 73 74 86 96 72 67 62 62 80 65 70 62 69 64 61 67 84 72 53 49 49 39 46 39 32 30 31 40 49 59 59
60 62 61 62 58 58 58 55 56 63 64 68 76 78 72 77 87 85 60 67 65 61 66 67 60 58 70 68 66 67 80 55 50 48 48 48 48 45 45 38 35 38 51 48 65
61 64 65 65 63 60 60 58 53 54 64 67 72 87 74 82 77 62 67 62 64 67 71 69 76 83 71 72 60 75 56 48 50 47 50 50 48 56 50 41 44 47 38 34 44
70 70 68 67 65 64 62 61 59 57 56 65 72 85 84 89 76 50 69 62 59 77 80 80 87 83 72 66 62 66 58 49 47 48 48 43 51 53 52 45 42 41 37 37 38
66 66 67 67 68 65 64 61 59 58 59 63 70 82 89 92 45 44 64 74 66 79 86 82 83 74 64 67 64 57 51 51 51 52 51 50 50 50 49 42 42 41 41 39 37
63 67 67 66 67 66 64 63 60 61 62 65 68 83 89 69 41 61 59 68 75 76 82 78 70 61 67 70 55 56 68 64 57 55 55 50 53 57 43 43 45 44 45 41 38
66 68 65 65 67 67 67 66 63 64 64 67 67 81 92 52 47 47 40 46 49 61 72 77 76 68 69 60 57 66 72 83 58 53 49 50 62 50 43 49 48 47 43 42 38
68 69 67 68 68 67 66 67 67 67 65 65 76 86 86 54 63 47 42 48 50 52 67 70 78 85 80 72 74 73 86 81 66 48 49 59 68 46 38 47 48 46 44 42 38
66 66 68 67 68 66 68 70 70 67 70 67 70 93 84 70 56 51 44 42 58 66 74 87 92 87 94 80 94 82 86 75 68 47 57 59 66 51 45 47 47 44 43 46 43
65 66 66 66 66 67 77 92 83 89 73 78 74 77 66 58 49 54 42 46 68 81 93 86 87 92 87 72 65 64 62 69 56 45 51 49 51 48 43 42 39 38 40 37 35
66 66 66 67 68 69 89 95 80 82 95 72 71 72 73 56 67 58 43 59 79 88 87 87 89 72 65 70 72 74 81 79 56 48 51 54 54 44 38 37 34 31 30 32 33
67 68 63 65 70 82 81 87 90 88 94 74 65 81 77 57 66 68 48 60 79 83 83 88 73 61 61 67 75 74 73 70 65 55 57 58 45 41 40 38 33 30 30 30 30
64 64 63 65 81 91 86 81 89 87 97 84 88 83 92 63 74 53 43 57 69 76 70 66 54 54 62 69 61 73 58 57 60 67 79 62 75 63 46 45 36 40 42 34 31
66 66 66 67 88 83 82 86 89 92 100 78 94 71 82 66 67 61 50 54 72 68 65 82 63 66 71 66 57 68 56 60 66 79 84 81 84 58 47 39 36 30 28 30 36
65 67 71 82 87 81 85 83 93 95 94 98 88 94 84 69 67 59 58 51 53 59 62 66 57 58 58 56 54 55 64 72 82 86 96 78 78 60 47 37 29 27 28 27 36
68 76 80 81 91 77 88 93 99 96 93 99 100 95 80 80 76 72 75 74 83 96 98 71 71 60 56 67 62 64 76 96 94 98 83 70 86 67 47 39 38 34 32 26 30
79 80 82 74 88 85 91 99 98 94 93 97 95 84 96 75 75 75 77 87 73 76 92 92 95 69 60 67 76 74 75 92 84 98 91 66 83 50 41 34 29 29 34 34 34
80 96 95 92 84 82 97 99 95 98 100 100 95 99 96 83 83 76 74 82 75 69 82 85 86 64 60 60 62 80 89 71 90 86 96 78 58 34 40 40 38 40 42 44 41
99 95 94 85 78 91 97 94 98 94 100 93 99 89 95 95 92 76 72 68 65 63 67 71 93 64 62 56 61 67 65 89 94 82 88 76 72 50 45 46 42 47 48 48 48
96 95 93 89 88 96 99 98 97 85 94 95 93 79 85 84 80 77 70 68 57 62 64 67 81 97 70 80 82 83 90 86 82 90 94 97 60 46 42 46 51 52 49 58 61
96 99 86 90 95 98 100 99 97 96 86 87 68 69 78 75 76 77 78 70 54 58 72 68 83 95 91 71 65 72 80 76 92 79 97 90 76 48 55 51 50 42 57 57 64
97 97 88 89 99 99 90 98 97 95 87 70 60 58 62 70 74 70 69 55 54 58 68 65 81 95 89 74 70 86 80 74 77 89 95 94 72 44 49 38 40 50 59 66 67
97 97 94 96 96 98 100 100 97 81 89 59 58 53 60 72 69 75 68 68 57 52 67 64 78 84 89 80 84 90 84 82 85 98 91 88 66 47 45 44 47 55 62 63 66
98 98 97 95 94 96 93 96 77 78 62 64 61 62 65 80 72 80 72 67 64 65 63 66 91 90 85 78 81 79 79 82 89 75 90 72 70 54 45 45 55 64 75 75 74
98 99 92 97 89 95 94 95 84 72 71 70 83 63 67 73 71 78 76 80 77 66 70 73 88 83 92 76 82 91 82 80 77 72 71 68 69 45 44 66 71 85 82 80 72
95 91 99 85 91 96 95 92 86 76 69 69 66 74 78 75 70 64 62 63 69 75 83 79 90 92 94 76 79 92 81 78 76 75 65 79 60 52 70 73 87 78 73 70 65

GFSSW_sfc_rhum_057.txt.gz
RH
59 57 53 59 58 57 58 55 54 53 60 63 69 76 78 76 77 86 88 69 73 69 67 67 67 64 59 66 57 63 83 91 64 60 53 43 45 36 34 31 28 30 52 56 63
61 60 62 61 63 62 58 54 55 52 58 63 67 71 86 78 85 93 71 63 65 62 75 72 72 65 77 69 64 68 88 74 57 51 53 45 50 45 40 39 32 44 62 72 73
66 67 70 69 64 64 63 60 59 53 54 54 62 70 76 80 92 69 53 66 60 64 71 73 65 65 75 71 71 72 81 59 54 51 52 56 50 50 53 45 43 47 41 47 80
60 69 69 68 68 66 66 64 62 60 55 56 57 65 75 82 74 54 61 62 61 64 66 84 75 78 79 78 65 79 62 56 53 50 54 57 51 57 53 46 44 49 43 39 49
63 64 64 66 66 66 68 66 63 60 59 58 58 61 83 90 75 42 52 70 54 68 81 89 87 85 79 74 67 74 66 54 50 50 56 50 52 58 56 45 50 43 40 40 41
69 69 67 68 67 66 67 67 63 62 59 59 59 61 90 97 47 41 38 70 60 76 91 79 83 76 79 69 69 61 56 53 51 50 55 53 54 54 53 48 48 46 43 43 41
69 68 69 70 69 67 66 67 64 64 60 60 59 63 92 81 47 51 50 76 64 78 91 81 73 75 75 75 61 62 72 67 61 56 55 53 56 63 48 44 47 43 48 45 42
60 65 67 67 68 68 68 67 65 65 64 63 62 73 94 59 50 52 49 61 79 83 83 84 80 69 69 63 62 70 75 86 60 56 53 50 61 52 48 47 50 49 46 43 46
63 65 65 66 66 65 67 68 67 66 66 66 75 83 85 57 64 55 50 52 51 76 84 66 74 87 70 70 84 77 92 87 67 51 53 60 72 50 42 50 53 51 48 47 42
65 66 66 64 65 67 68 69 71 71 72 66 72 89 73 75 60 54 50 48 59 72 83 93 91 98 91 78 91 90 84 78 72 54 59 67 74 56 51 51 54 50 47 46 42
64 64 67 67 64 69 79 94 81 81 82 82 75 68 73 62 52 62 51 50 61 86 93 93 94 94 90 78 63 69 75 78 65 50 53 55 58 46 42 48 50 48 45 43 40
66 69 68 66 62 70 90 92 82 90 96 73 76 68 62 71 78 58 47 61 72 91 88 90 96 83 77 84 83 72 84 85 64 55 56 58 59 46 40 39 38 34 34 35 36
64 64 67 66 68 83 87 84 80 91 95 70 72 64 76 84 69 74 52 62 80 91 85 84 75 64 70 79 81 85 86 76 70 59 62 64 54 45 39 39 37 36 33 33 33
62 65 65 66 80 89 87 79 87 85 99 74 84 81 88 88 77 55 49 70 86 90 80 72 61 64 69 71 71 82 60 60 63 70 81 65 71 59 44 43 42 39 37 41 38
64 65 67 69 95 88 76 87 88 93 100 79 84 82 87 87 73 68 50 58 77 69 76 91 72 73 75 69 59 69 58 62 69 81 82 81 84 56 48 41 34 36 31 32 33
68 72 79 92 95 83 84 86 92 94 95 96 83 93 98 75 66 66 61 55 59 68 63 69 57 57 61 59 56 59 64 73 86 82 92 78 74 51 46 42 34 37 35 34 34
79 80 80 82 92 83 88 95 95 97 84 100 95 100 86 77 76 77 85 74 94 99 100 71 71 61 57 68 62 65 75 93 86 96 82 76 83 63 48 46 44 42 41 44 43
80 76 86 78 90 83 94 94 96 92 98 100 95 98 96 76 80 89 78 86 72 80 94 95 94 70 62 69 75 77 72 87 74 96 89 74 87 56 42 37 34 43 52 52 54
82 90 94 95 82 88 92 97 92 99 100 100 98 96 97 86 87 89 79 77 71 70 83 88 88 69 62 63 63 81 88 73 90 85 96 81 61 35 43 46 49 50 48 55 61
98 94 93 84 85 90 95 94 100 98 100 98 99 90 96 98 98 91 76 67 68 66 66 73 95 66 67 62 66 69 65 87 94 82 81 65 72 45 48 51 52 53 53 55 62
95 95 85 84 89 96 99 98 100 95 96 87 90 86 88 85 80 77 71 70 61 68 66 70 82 96 72 78 84 86 93 86 83 89 88 92 45 51 46 52 55 51 51 59 69
96 96 85 91 94 99 99 99 98 95 81 91 63 70 80 70 69 73 73 72 58 61 70 72 84 97 88 75 67 74 79 78 90 83 98 92 73 48 51 50 52 49 53 57 66
97 97 88 89 100 99 97 97 96 95 89 82 65 62 58 69 74 71 73 59 59 61 69 65 83 96 86 73 72 84 81 74 81 87 99 96 66 49 57 51 47 42 49 61 61
97 97 93 96 95 99 100 100 94 91 90 70 63 59 65 78 72 76 77 74 62 56 66 62 79 84 89 76 84 94 89 84 86 97 92 88 73 52 45 48 41 42 79 86 72
98 96 98 98 95 94 88 81 80 82 72 69 66 66 73 80 78 84 77 72 67 72 69 69 89 89 81 77 81 80 80 90 87 82 89 81 75 57 46 47 43 77 78 73 72
98 99 92 97 86 83 86 91 81 83 83 81 82 76 75 74 71 81 75 78 78 69 77 74 91 89 91 76 82 90 82 79 84 78 80 72 73 48 44 42 68 84 74 72 67
95 93 98 86 95 92 95 92 86 83 70 72 71 77 81 82 72 65 66 70 69 75 86 76 91 92 96 78 81 89 84 82 79 79 67 80 59 45 57 70 83 76 71 64 65

GFSSW_sfc_rhum_060.txt.gz
RH
61 67 63 65 66 62 64 62 57 59 56 56 60 67 72 82 85 87 87 72 68 69 71 70 74 82 62 70 61 66 86 91 69 62 50 42 45 42 38 37 33 30 53 62 89
58 59 63 69 69 72 69 66 63 61 56 55 55 58 65 75 92 96 70 64 64 61 61 84 89 75 81 73 67 71 90 78 56 51 48 48 50 52 48 45 40 41 52 85 98
61 61 63 66 65 65 65 63 65 64 63 57 58 57 61 73 93 79 61 67 64 59 65 70 70 69 80 77 74 75 81 58 57 50 51 54 59 52 58 52 40 48 45 64 97
68 66 70 68 65 64 64 64 65 67 62 62 58 58 60 74 89 52 61 54 64 55 72 84 75 78 81 85 70 80 66 58 52 52 54 59 55 62 56 47 42 50 50 44 79
69 67 67 69 67 68 68 67 66 65 65 63 60 58 62 94 82 48 50 45 58 61 83 90 87 76 76 77 69 75 70 58 52 52 57 54 57 58 58 50 50 46 49 47 44
66 66 63 65 66 68 70 69 67 64 65 66 63 57 69 97 54 49 46 53 62 65 86 86 88 76 76 76 70 64 60 58 54 53 53 56 59 57 54 53 52 50 48 46 42
62 61 64 64 64 64 65 66 66 66 66 64 62 57 76 82 57 54 54 69 64 64 88 82 77 76 76 77 65 64 71 68 60 58 57 59 63 67 50 47 49 49 51 45 44
63 63 66 65 66 64 63 64 64 65 64 64 64 74 87 57 57 61 56 69 71 65 74 76 77 77 71 66 68 73 79 89 65 60 57 50 63 52 52 53 51 50 56 52 45
65 65 66 65 64 65 67 68 66 66 67 65 82 86 79 61 66 55 59 59 85 84 90 70 77 86 79 74 78 75 96 92 74 58 55 62 76 55 51 56 56 55 53 51 50
64 65 69 70 69 70 66 70 69 71 73 70 71 85 73 77 65 65 64 54 65 84 83 88 90 92 87 77 87 82 74 87 79 58 63 73 77 57 53 57 55 56 56 53 49
64 67 65 67 67 64 77 89 83 80 86 83 73 74 52 62 60 67 58 57 75 84 95 93 97 96 84 74 73 76 80 82 70 55 59 60 63 51 42 49 51 52 49 48 45
64 60 62 66 67 68 88 91 82 87 98 74 76 69 57 62 84 71 59 66 72 91 88 96 99 82 70 72 67 64 73 83 70 60 59 61 62 49 42 44 41 39 38 40 40
62 65 63 64 66 80 87 80 84 88 98 76 76 71 60 72 87 82 58 64 82 83 90 86 91 88 90 92 89 80 81 84 78 63 65 66 58 49 40 40 40 40 40 40 40
64 64 67 72 83 91 89 84 87 89 99 79 81 85 72 73 92 64 54 66 83 83 83 81 78 91 90 93 89 99 68 63 64 73 84 68 78 59 48 39 39 43 37 36 36
75 80 81 76 95 95 86 86 85 86 98 67 86 77 77 93 87 75 56 66 86 89 84 92 78 76 83 73 66 74 60 64 71 83 82 79 79 53 48 40 35 42 42 45 46
81 76 74 89 94 88 86 85 92 94 94 89 83 96 98 95 86 75 60 60 70 77 70 72 60 61 63 62 58 62 67 75 81 80 90 80 72 45 46 48 47 44 48 54 55
78 74 82 83 94 85 91 92 93 97 91 98 97 100 100 94 86 75 79 85 94 98 100 83 79 63 57 68 60 66 78 92 81 92 83 82 84 60 51 50 51 49 53 58 63
79 76 86 86 93 87 91 92 96 90 99 100 88 99 99 90 95 94 92 97 86 84 97 96 96 72 62 68 75 80 75 86 69 91 79 74 87 57 47 44 46 52 56 60 65
79 92 91 90 82 87 94 98 97 99 99 100 100 100 99 90 93 96 86 86 78 74 84 87 95 67 62 64 63 83 90 70 89 88 94 81 66 41 46 52 54 50 54 58 65
96 95 92 88 92 93 99 97 100 99 100 99 100 93 98 93 98 98 87 75 74 70 70 80 96 74 68 63 67 71 67 85 93 86 77 62 67 40 52 57 51 51 55 56 62
94 94 83 84 91 94 99 99 100 96 98 94 89 91 90 88 78 85 80 72 65 72 67 71 82 91 74 80 84 83 92 85 82 89 83 82 40 48 48 52 61 56 56 62 70
96 93 83 90 94 99 99 99 97 92 87 74 65 74 82 75 77 80 78 71 59 61 72 71 87 96 90 76 71 74 80 77 89 88 97 93 64 47 53 56 50 50 52 68 78
98 97 87 88 99 99 96 95 92 90 90 67 68 60 62 74 74 72 70 63 61 60 68 67 84 97 90 75 72 85 82 74 80 88 97 88 53 46 65 56 51 50 50 84 84
97 98 94 94 93 96 96 98 89 92 76 66 66 63 72 79 75 77 77 74 66 59 65 61 79 83 89 75 84 94 90 80 83 96 92 92 71 55 48 49 50 48 75 88 71
98 97 97 99 96 96 85 85 89 94 75 72 75 71 74 82 81 85 81 75 70 73 70 68 90 87 77 78 82 82 85 88 87 85 89 79 79 60 53 50 49 47 76 79 71
98 99 90 95 82 94 88 90 90 86 83 86 88 80 74 77 78 84 78 82 82 76 78 74 95 90 91 76 83 91 82 85 85 81 84 76 78 50 45 45 48 81 76 77 70
96 93 98 85 95 93 97 92 88 82 76 81 77 80 84 84 78 69 70 75 73 77 85 80 91 95 94 84 85 91 86 82 85 85 76 90 62 45 50 54 78 78 71 67 58

GFSSW_sfc_rhum_063.txt.gz
RH
68 60 60 59 64 68 68 71 69 66 63 60 55 56 58 63 76 76 96 71 70 66 69 68 72 84 60 64 55 57 69 69 58 56 44 37 34 31 28 26 26 24 30 47 70
70 71 68 66 68 66 63 63 62 63 64 64 62 55 56 62 75 85 70 68 64 59 60 72 84 84 86 70 62 62 74 66 53 48 44 40 38 38 35 37 31 29 40 81 84
68 66 67 66 66 67 66 64 63 63 65 66 64 64 56 59 84 77 64 73 67 62 63 64 79 76 85 71 67 68 68 56 52 44 44 48 46 41 42 42 35 33 39 76 87
66 68 66 67 66 66 67 65 66 68 65 64 64 62 59 62 90 53 57 63 67 62 63 79 85 84 80 81 67 73 63 53 47 49 50 52 45 46 45 39 34 41 38 42 80
66 66 65 64 62 62 64 64 66 67 65 65 66 67 67 77 80 55 63 53 49 67 72 85 84 78 74 72 68 71 62 56 49 49 50 48 50 47 48 42 41 41 42 38 40
65 67 66 63 64 64 63 62 62 62 63 65 66 66 74 90 54 52 53 51 62 73 73 81 73 68 72 74 68 62 59 55 53 50 49 53 52 52 47 43 42 44 42 41 39
63 66 65 64 66 64 63 60 60 61 62 64 65 66 80 75 50 54 51 61 64 68 78 76 72 63 69 69 63 60 70 64 54 54 52 52 56 62 44 43 42 41 39 42 38
64 65 66 67 66 65 65 65 65 65 64 65 65 80 84 53 50 52 44 63 67 63 67 72 84 74 66 61 66 71 68 80 60 53 52 46 53 45 44 47 45 44 42 44 40
65 67 68 68 68 68 68 68 66 66 64 64 83 76 90 50 66 49 60 66 74 68 74 70 87 83 74 73 74 80 89 84 66 57 54 48 58 47 45 48 46 45 43 44 43
62 67 67 63 64 67 68 67 68 70 73 72 70 85 76 63 71 56 60 63 80 84 87 83 83 87 87 80 80 86 82 83 68 55 61 66 67 56 44 46 48 46 43 43 44
58 62 63 64 62 66 80 86 80 77 83 79 77 75 62 63 58 66 61 63 69 86 95 86 96 95 80 74 61 68 68 76 69 50 50 57 59 48 42 42 41 40 39 38 38
63 64 65 64 62 62 87 93 78 78 89 76 77 73 60 59 84 74 67 69 79 94 87 98 100 80 69 73 66 64 72 74 60 51 51 56 54 45 41 42 39 36 36 37 36
70 75 75 76 83 82 93 80 88 81 97 76 75 72 60 63 88 92 67 62 71 89 86 95 93 87 88 80 80 72 70 74 65 55 54 58 52 44 34 35 35 34 34 34 34
75 73 73 73 82 88 90 92 90 89 96 72 78 81 72 78 94 76 69 65 75 86 84 94 88 88 95 95 86 94 66 63 61 66 75 58 62 51 39 38 42 43 44 44 45
78 74 75 72 92 88 79 86 87 91 95 90 91 74 71 91 90 89 63 65 89 90 84 96 94 92 96 93 87 93 81 60 64 72 69 63 64 45 38 38 41 43 47 50 51
79 74 81 91 93 93 82 85 92 93 97 93 84 97 98 99 91 92 69 69 77 80 74 85 71 83 78 82 76 64 63 67 72 71 83 63 60 39 39 39 41 41 48 53 57
78 74 81 86 97 86 88 92 97 96 95 92 92 98 100 98 94 77 78 87 95 99 100 98 91 71 62 71 58 62 73 87 82 88 69 71 73 48 42 43 40 46 48 52 60
78 74 84 79 90 85 92 93 95 96 99 97 94 100 100 96 94 82 89 96 86 86 95 94 97 78 62 70 79 69 71 82 69 73 62 69 76 45 42 40 41 44 47 54 60
79 92 93 92 82 87 97 98 98 100 99 100 95 99 100 96 94 92 90 98 91 68 87 90 97 64 62 62 62 71 81 62 87 80 82 65 56 39 42 46 45 46 50 54 59
96 94 89 85 91 94 98 95 100 98 99 100 100 94 97 99 96 88 89 82 78 67 65 77 96 73 68 63 63 67 64 81 90 82 72 50 51 42 50 46 45 47 50 53 63
95 92 80 92 91 94 99 100 100 93 94 92 92 95 88 98 86 83 80 73 66 67 62 71 81 90 70 77 79 79 87 81 75 77 67 60 34 42 47 47 50 48 49 60 76
96 91 79 90 97 100 100 98 95 92 89 85 70 74 82 76 74 79 77 73 62 61 74 72 85 96 89 72 67 68 76 70 86 85 90 86 49 38 44 50 51 48 49 74 77
99 97 86 90 100 100 88 86 89 91 85 69 71 65 66 73 74 75 75 66 61 63 65 63 83 94 86 77 70 81 74 69 74 84 95 74 45 42 51 50 46 48 49 77 75
97 97 94 96 94 97 100 95 90 83 80 71 69 68 74 81 76 76 83 73 64 68 64 60 76 82 85 70 81 94 86 76 83 91 82 85 58 46 46 47 45 47 67 71 66
98 98 95 99 97 92 92 93 92 95 77 77 74 76 72 82 82 89 79 76 72 70 68 66 90 84 72 76 76 78 86 81 86 81 84 68 72 55 50 51 50 50 70 70 66
99 98 94 94 92 93 91 93 93 91 87 88 88 84 76 81 82 85 77 82 80 77 75 73 98 85 89 75 81 88 79 83 75 75 75 72 72 49 45 44 47 73 72 70 64
97 92 99 86 95 94 96 93 93 86 83 87 85 86 86 86 80 70 72 73 72 76 83 78 89 90 92 80 83 93 85 82 83 81 71 87 65 49 49 52 78 76 70 64 57

GFSSW_sfc_rhum_066.txt.gz
RH
62 70 67 68 67 66 66 66 63 63 63 64 64 61 58 57 59 57 76 70 58 57 66 49 54 66 60 49 43 37 35 32 35 35 28 24 26 20 18 16 17 16 18 31 44
66 66 65 67 67 67 67 68 69 65 63 63 65 66 66 58 48 55 52 66 68 62 52 56 59 74 70 56 47 38 37 29 22 25 29 30 23 22 22 20 20 18 25 47 47
65 65 64 64 66 66 61 60 64 64 65 66 66 65 64 55 58 37 48 64 68 64 48 48 46 74 76 59 50 42 38 28 39 34 30 33 28 26 23 28 18 20 25 50 65
68 68 66 67 64 61 59 60 62 62 64 66 67 65 68 59 56 60 54 56 66 57 55 54 59 84 76 76 49 54 38 35 35 41 40 40 29 28 27 21 21 26 28 34 56
64 63 64 66 65 62 64 63 60 59 61 62 64 65 64 76 63 34 57 54 46 64 67 58 61 65 73 66 56 59 44 39 32 40 40 40 37 28 30 25 28 29 32 29 36
62 63 64 65 64 63 62 60 60 58 60 59 63 65 66 94 42 33 58 55 46 48 81 54 56 52 52 55 64 50 48 44 37 37 40 43 39 39 30 25 27 28 28 27 28
64 64 65 68 66 65 64 62 61 61 62 60 58 59 73 56 35 30 51 57 52 52 78 48 55 53 45 59 48 50 57 48 43 42 41 37 43 41 28 26 24 25 24 26 27
66 66 66 68 70 68 68 65 65 66 64 66 63 64 74 38 34 37 36 42 46 48 60 45 64 57 48 43 51 57 54 64 43 41 44 37 33 29 27 25 24 22 20 21 23
66 59 60 64 62 61 63 68 68 63 64 62 70 67 68 41 49 38 36 53 53 54 57 48 74 75 64 53 65 60 52 50 47 40 37 42 33 25 26 29 27 26 24 24 23
61 65 66 67 66 65 63 70 67 64 62 58 58 75 55 48 40 43 37 46 60 67 79 71 89 96 84 70 60 56 51 47 44 49 42 42 38 39 35 36 32 26 24 25 26
63 71 76 76 76 67 69 67 63 68 70 57 58 50 53 43 40 50 45 61 66 78 84 68 94 97 87 54 36 33 47 49 45 40 50 46 44 38 33 32 30 26 23 22 22
71 73 72 71 71 76 74 83 61 66 69 54 57 56 51 51 64 65 56 85 80 94 58 83 99 70 63 59 49 45 48 46 53 44 42 43 43 37 34 32 30 27 24 23 24
71 74 74 70 72 81 88 85 70 63 83 67 61 62 55 50 68 88 57 82 64 87 66 79 85 70 78 75 67 51 42 44 47 47 42 43 42 38 31 27 26 26 26 27 28
72 73 76 68 67 78 87 83 75 76 97 66 72 67 63 65 77 68 67 70 69 94 83 82 83 79 80 87 72 87 50 48 50 50 52 44 35 37 30 36 33 33 34 33 33
74 74 78 72 79 84 74 81 84 88 91 88 81 64 63 70 94 82 80 62 65 95 89 98 94 95 99 88 78 94 50 50 52 55 52 50 46 34 30 38 38 38 40 40 39
73 75 73 77 74 81 69 79 90 94 94 88 74 97 95 97 91 86 84 61 57 82 84 93 84 83 82 86 77 77 62 51 50 52 79 46 47 32 28 30 37 39 40 43 43
74 76 68 72 77 69 83 92 96 89 85 89 84 94 100 100 96 92 86 73 75 97 100 96 97 91 82 96 92 81 81 95 88 82 57 53 53 32 32 31 34 40 44 46 46
78 73 75 66 82 77 92 93 82 85 100 86 94 100 99 83 94 89 90 86 68 63 83 96 98 96 90 72 72 67 61 63 67 59 41 56 49 32 32 29 33 37 40 47 49
77 67 73 76 73 82 96 95 98 99 97 100 89 100 100 91 94 86 95 91 80 64 83 87 98 84 81 64 52 60 73 46 70 60 51 35 41 32 34 35 35 37 40 49 53
84 75 69 70 72 79 92 96 98 84 97 98 100 65 96 70 83 64 72 81 63 55 48 62 95 70 60 54 51 53 46 64 83 73 56 36 34 35 44 39 38 39 38 44 54
78 67 65 70 78 88 100 100 100 83 89 86 73 68 62 64 57 61 70 65 56 52 46 51 62 85 63 68 64 62 66 61 50 54 43 32 22 24 35 36 35 36 38 47 55
82 95 66 73 92 98 99 94 86 77 77 78 58 56 58 53 55 56 62 55 49 47 51 55 62 88 78 58 53 51 54 47 73 76 66 60 31 26 31 32 36 34 37 48 57
84 82 66 78 100 94 74 73 73 67 63 55 55 50 50 53 58 56 58 52 49 49 47 47 66 88 82 64 60 67 58 52 58 74 85 52 34 31 31 33 32 34 37 52 53
84 97 79 80 78 86 96 94 75 67 61 57 54 49 51 54 51 62 61 59 55 53 62 49 58 78 65 56 64 98 70 61 93 87 58 53 38 34 33 33 33 38 44 54 52
87 94 87 95 81 79 74 74 70 78 60 57 56 60 53 58 59 66 63 58 56 58 50 47 78 70 60 61 63 68 75 69 88 70 87 44 42 32 32 35 38 39 53 59 56
88 98 84 78 71 72 79 79 76 75 71 67 67 64 55 57 58 60 56 55 52 53 51 54 86 71 82 64 66 78 66 67 64 56 55 52 52 33 32 34 39 56 64 63 58
84 84 91 72 74 74 93 88 84 74 71 68 64 61 64 67 62 50 50 50 52 55 60 58 70 75 82 67 69 76 68 66 65 58 54 66 45 36 39 40 50 65 66 62 55

GFSSW_sfc_rhum_069.txt.gz
RH
64 67 66 65 65 67 69 69 68 68 72 66 65 67 68 65 62 45 48 54 59 59 55 39 44 62 57 54 39 28 36 36 32 27 24 17 21 19 16 16 13 13 12 29 41
68 67 67 66 66 65 65 64 60 62 66 66 66 65 64 67 54 50 39 49 60 64 50 53 43 61 75 54 46 44 41 31 23 22 22 22 21 21 19 18 15 13 15 29 37
70 68 64 64 66 67 64 59 59 59 62 64 64 66 66 61 62 43 44 47 63 65 50 37 34 50 78 57 47 44 38 27 18 27 23 26 24 17 19 19 14 15 14 26 32
69 64 64 64 62 64 64 62 62 62 61 63 64 71 65 55 64 57 59 42 56 56 54 41 38 59 66 69 47 46 35 27 25 32 34 30 23 18 19 16 14 14 19 26 38
66 64 64 64 67 65 64 62 61 60 58 65 62 67 66 63 56 33 43 43 44 54 66 63 41 44 57 49 52 49 33 31 30 35 33 29 30 21 21 19 20 23 27 23 29
66 68 67 68 69 69 67 65 63 62 58 60 58 66 60 68 26 26 34 48 50 53 66 64 38 34 42 48 54 50 42 38 34 32 36 40 31 28 23 19 22 23 23 23 23
67 67 66 61 62 68 68 67 67 66 65 65 64 56 62 50 26 26 49 63 55 59 63 61 38 35 42 50 45 48 56 47 38 33 36 35 41 38 26 23 22 22 19 20 21
62 62 64 65 66 65 65 63 65 69 68 66 66 64 70 32 28 30 28 43 43 40 57 54 52 46 41 43 44 60 53 59 47 38 36 38 38 25 25 25 23 19 17 18 18
65 63 66 72 74 73 69 65 62 68 66 60 70 68 56 39 40 31 29 39 53 50 59 52 77 69 46 71 68 62 73 49 39 35 38 43 34 21 23 24 22 19 16 16 16
67 70 74 74 73 73 75 68 61 63 56 46 60 73 46 40 35 34 29 35 74 71 74 91 82 96 71 81 91 58 52 36 38 39 37 40 39 26 25 26 24 19 18 18 18
68 74 73 72 70 72 78 82 68 66 58 52 53 44 42 36 33 39 35 43 70 90 97 89 84 93 80 57 45 31 35 34 30 38 40 37 32 31 26 31 28 22 19 18 18
72 74 72 74 73 74 64 69 61 67 63 43 46 43 37 38 50 38 41 64 76 98 76 72 87 68 70 53 53 38 32 32 32 32 43 35 35 28 29 29 28 24 19 17 17
78 75 72 74 64 57 70 91 77 61 91 55 48 51 46 44 48 51 58 62 84 97 60 63 66 55 81 76 71 66 39 33 37 40 41 36 38 34 29 27 25 25 24 22 23
77 75 73 76 69 63 73 76 74 66 93 58 62 62 50 47 58 55 67 77 68 84 55 52 71 56 74 93 85 64 32 30 36 47 44 38 29 29 27 29 27 25 25 26 27
75 76 74 77 65 76 73 66 68 79 82 81 88 60 57 73 93 72 64 78 75 88 81 97 79 81 81 90 86 76 46 38 43 43 45 49 49 32 28 34 30 29 33 32 31
76 76 76 70 60 65 62 72 77 96 87 92 73 85 86 88 95 88 83 80 69 91 73 89 74 80 81 86 88 51 49 50 50 54 82 40 40 37 32 30 32 32 33 35 35
77 77 72 62 69 63 75 92 98 88 69 87 82 95 100 99 100 97 95 96 93 100 99 97 96 89 84 97 88 76 84 98 98 93 59 39 47 29 27 26 30 33 35 40 38
80 78 67 53 65 66 88 98 86 80 98 75 81 100 100 98 100 83 64 77 68 68 96 99 99 99 92 93 95 95 96 97 77 62 44 44 53 32 26 24 31 34 38 42 41
79 52 61 57 62 70 96 98 95 97 96 100 92 99 85 74 81 64 74 72 60 51 72 94 99 94 89 77 76 94 88 47 53 42 42 35 31 30 30 29 34 34 38 45 46
64 61 57 56 61 83 91 88 90 74 91 100 98 53 75 55 54 50 53 60 53 46 43 58 96 94 91 73 54 64 51 66 83 69 51 32 29 31 34 36 34 36 37 41 46
62 59 59 57 71 75 100 100 99 73 78 87 53 52 48 46 42 48 53 55 46 45 40 47 60 87 66 87 77 60 62 56 51 52 45 34 24 25 32 33 36 36 36 41 48
70 94 59 60 86 95 86 75 78 64 68 69 52 43 44 41 44 48 52 47 43 39 44 46 57 84 71 52 48 45 47 42 73 68 60 62 35 24 29 31 31 35 36 41 50
64 65 55 64 98 89 65 61 60 55 52 48 47 42 38 43 51 48 50 44 43 43 41 42 62 87 74 58 52 60 49 43 49 78 82 51 38 25 29 31 30 31 35 43 50
67 97 61 56 63 77 86 85 60 55 48 46 43 39 39 43 39 52 54 51 50 46 62 46 50 74 65 58 59 96 60 54 89 86 49 47 32 33 32 32 28 34 36 44 50
71 88 77 85 73 67 61 57 54 60 48 44 45 46 43 46 47 56 53 51 48 52 43 40 71 62 52 51 53 64 68 61 92 66 85 37 33 29 29 29 30 36 44 50 51
91 97 81 70 58 60 68 69 64 60 60 54 52 48 41 46 52 51 47 45 44 43 43 44 79 62 83 53 56 70 58 58 60 51 46 42 42 28 25 31 36 40 53 58 54
67 77 89 66 60 63 80 80 75 63 58 57 56 49 54 59 48 40 40 40 42 45 47 47 59 69 76 60 59 72 60 57 56 49 46 58 40 34 36 36 39 48 58 59 54

GFSSW_sfc_rhum_072.txt.gz
RH
70 68 68 65 64 65 66 65 64 63 61 63 67 67 69 71 71 60 63 46 54 60 56 47 41 60 66 72 57 42 60 63 53 41 33 21 23 20 21 24 18 18 26 52 61
68 68 66 64 64 62 62 65 66 63 61 60 63 67 68 68 64 61 49 49 46 58 60 59 46 59 77 72 69 56 59 52 36 30 30 25 23 24 26 27 23 21 36 46 68
68 65 63 64 63 63 62 62 63 60 60 61 61 63 67 66 71 55 49 51 50 52 58 51 41 51 71 67 65 58 64 41 33 29 34 29 28 24 27 31 24 22 25 37 62
63 64 68 68 66 66 65 65 63 62 63 62 62 64 70 66 81 52 48 56 50 44 62 66 45 54 71 76 59 58 49 44 31 36 36 37 31 28 25 25 21 21 23 41 44
67 66 65 66 66 66 66 66 64 63 62 59 62 67 65 83 70 39 47 45 42 49 71 72 57 47 60 63 61 65 47 37 34 35 38 33 36 30 24 23 26 29 31 32 42
69 64 64 64 64 63 64 66 65 65 65 64 63 63 68 83 34 27 32 42 44 57 59 67 64 39 46 50 54 57 51 41 33 36 38 42 41 36 27 23 30 30 34 35 34
68 66 65 65 68 70 70 65 66 65 65 65 65 63 67 60 30 31 41 50 50 49 66 57 63 42 39 53 41 52 68 57 44 39 43 43 49 41 30 28 30 30 32 29 30
67 66 68 70 72 72 73 73 68 63 65 66 65 67 74 37 34 34 31 50 46 44 47 54 62 76 41 43 46 65 66 82 50 44 40 42 57 40 31 32 32 30 30 28 25
66 68 69 72 70 70 71 72 72 66 64 64 68 74 63 39 43 34 32 35 54 50 48 46 78 83 62 63 77 79 88 77 58 46 43 47 52 32 27 33 33 31 28 24 25
67 71 73 72 72 72 73 73 70 62 60 48 56 77 56 42 33 32 30 39 67 72 72 82 95 94 81 76 95 75 78 62 58 50 45 52 52 32 28 30 32 29 26 23 22
68 73 73 71 72 73 73 70 80 80 64 58 54 53 41 34 32 37 33 60 65 90 96 87 98 96 80 60 64 64 57 50 45 35 50 50 52 43 33 36 37 33 30 26 24
68 72 74 72 72 66 65 77 79 75 90 55 45 44 38 35 47 38 31 61 81 99 94 91 97 80 56 55 66 61 54 50 38 40 48 46 46 36 34 34 36 33 31 28 26
70 73 75 72 71 72 72 87 79 68 75 54 46 47 44 40 49 48 50 54 74 94 97 87 76 65 68 65 66 62 70 64 41 46 52 50 48 40 32 31 31 31 32 31 31
72 74 75 74 77 65 76 73 74 69 97 77 90 62 52 46 54 44 60 64 86 95 83 86 57 67 74 77 67 77 54 58 40 54 76 51 63 41 36 38 36 36 32 32 37
73 74 74 74 86 73 69 63 71 85 94 76 76 59 61 64 93 72 62 83 92 96 94 94 75 80 93 90 79 85 78 52 58 58 58 61 73 44 37 38 38 34 36 40 39
73 73 75 68 79 66 69 72 82 99 97 94 93 86 92 82 93 84 79 86 88 87 81 92 73 80 78 76 78 86 90 81 66 67 95 60 63 53 42 35 35 39 42 43 42
79 76 73 58 73 62 73 88 100 96 72 93 97 95 100 98 94 78 92 98 94 99 98 89 96 89 79 97 91 93 100 99 99 98 89 50 64 49 33 31 36 43 47 49 48
81 77 69 52 67 68 86 99 91 82 96 92 96 99 100 91 97 94 90 96 86 78 89 89 98 98 93 88 94 96 96 99 91 92 73 50 75 47 34 33 35 40 49 51 54
81 65 68 69 65 73 99 92 94 98 97 100 93 100 100 97 95 98 95 92 88 79 88 97 98 94 91 86 84 98 99 85 78 56 78 62 51 42 38 44 45 46 49 57 59
73 67 68 61 66 83 97 89 95 71 88 100 98 68 81 62 83 68 66 56 57 48 50 69 98 96 94 85 82 93 68 89 97 86 77 56 53 52 47 46 44 46 51 58 59
78 70 70 64 78 90 100 100 98 69 72 86 67 53 45 46 46 52 61 53 43 47 48 55 76 98 95 97 97 95 99 69 64 71 85 72 50 38 40 40 43 46 46 54 60
82 97 71 72 94 99 88 71 78 61 67 69 58 48 46 44 52 52 63 55 44 47 54 55 72 94 79 57 53 56 62 59 93 83 86 89 59 32 38 42 45 45 44 55 60
74 77 72 76 99 97 72 72 58 58 52 51 48 45 41 46 59 54 59 47 49 54 55 53 79 91 80 72 62 72 60 53 72 90 90 90 60 37 43 43 39 44 46 57 60
74 98 78 66 71 80 87 78 62 59 54 46 45 42 43 47 46 57 59 59 57 48 65 57 65 88 91 79 77 89 71 67 90 94 78 77 46 45 42 43 38 43 46 59 60
77 88 82 87 83 69 72 65 56 64 55 48 51 47 46 53 52 60 58 59 55 59 52 58 79 78 60 57 61 78 78 76 90 81 85 58 44 38 40 41 37 48 50 60 60
93 97 82 82 58 60 66 66 72 62 63 55 56 47 48 59 60 58 55 56 56 55 56 53 84 79 91 58 61 78 65 67 72 66 60 52 51 33 32 34 44 52 61 66 64
71 76 95 75 62 64 79 68 75 64 61 56 62 60 60 61 52 48 47 49 52 57 56 58 76 84 90 68 68 84 70 66 67 60 57 70 53 45 45 43 48 58 67 69 63

GFSSW_sfc_rhum_075.txt.gz
RH
67 67 66 62 62 62 60 59 60 64 65 63 60 61 66 69 68 65 81 67 52 57 63 63 52 67 74 84 79 78 85 82 72 65 54 38 42 28 22 24 24 27 66 74 71
68 62 63 64 68 65 64 63 62 61 62 59 59 59 61 67 72 72 56 57 55 51 64 74 70 73 90 92 80 84 86 65 48 48 46 37 43 45 45 30 29 62 82 76 75
63 66 64 64 65 64 63 63 63 62 62 63 63 62 64 65 78 59 50 56 56 51 47 67 70 69 94 88 86 79 70 49 42 38 37 44 58 31 39 33 28 52 88 82 83
66 68 65 63 63 64 63 64 62 62 61 61 61 61 63 68 84 53 62 49 53 48 52 73 79 78 92 89 78 79 58 51 43 38 41 39 33 33 37 26 32 28 49 81 86
68 68 66 65 64 65 65 63 62 64 64 63 62 61 68 83 72 43 63 43 44 51 59 77 90 72 86 73 78 86 64 49 43 46 45 40 37 32 27 26 34 32 40 54 72
64 66 66 67 68 71 72 72 69 62 65 65 66 63 71 92 47 43 43 42 58 56 57 74 87 71 62 69 76 71 64 58 49 54 42 44 41 38 31 26 33 33 35 36 42
64 65 66 66 70 68 69 70 71 67 65 63 66 68 81 71 38 40 46 52 53 55 64 60 77 80 52 62 57 66 85 74 64 48 49 45 51 45 34 32 37 38 39 38 36
66 66 70 72 72 71 69 68 69 72 65 60 65 80 79 44 44 44 42 56 48 53 49 50 64 83 88 52 58 65 76 92 68 49 46 48 65 44 36 38 37 40 37 35 31
65 65 73 70 73 68 72 72 69 70 62 62 80 85 77 41 53 43 42 50 53 50 51 44 71 88 76 71 87 82 94 85 67 54 49 50 62 40 36 38 42 39 34 33 31
66 67 71 72 71 69 64 69 70 64 57 56 65 83 61 47 42 38 38 53 67 66 75 78 91 97 89 80 91 79 88 84 84 59 58 58 57 43 30 35 40 41 35 33 31
67 71 71 73 71 69 73 80 84 89 82 67 64 63 46 43 36 45 51 62 69 81 98 90 96 96 82 64 66 70 79 82 69 53 62 63 58 49 41 36 39 39 34 32 29
68 72 73 74 72 66 77 89 90 85 95 61 59 56 46 45 50 46 51 70 74 94 97 96 98 82 70 59 70 73 75 73 56 49 58 65 60 51 43 43 38 37 37 33 34
71 74 73 73 72 78 86 92 84 82 92 62 53 51 53 47 54 55 52 73 80 97 100 99 89 84 69 69 76 85 88 83 64 56 53 59 65 58 45 39 39 35 35 33 33
72 74 71 74 80 78 90 81 82 79 97 86 83 72 62 54 67 58 60 68 83 91 92 97 67 76 76 75 70 88 62 62 63 65 95 59 83 56 46 41 37 37 38 34 33
70 73 72 75 92 86 80 77 75 88 96 98 82 59 66 68 83 80 70 81 80 92 94 83 81 94 91 77 71 85 81 78 71 84 74 72 74 57 44 45 37 43 38 37 40
74 76 75 80 89 82 79 82 89 96 95 100 96 94 90 80 92 80 82 81 80 95 95 90 76 82 83 83 83 80 87 85 84 91 99 77 74 62 59 42 41 36 45 47 50
77 77 79 67 87 78 85 95 95 95 72 96 99 94 100 99 97 82 93 100 99 99 99 97 97 88 78 96 85 85 96 99 99 99 93 68 74 51 45 41 36 46 52 51 51
80 81 76 63 78 74 92 94 94 83 91 78 83 96 100 86 98 88 99 98 98 95 100 98 99 98 89 85 86 95 96 98 93 96 86 63 84 58 42 38 43 45 53 55 63
80 88 86 82 75 87 96 97 98 94 90 100 89 100 100 86 83 99 99 97 85 79 89 95 99 92 85 81 80 95 99 93 90 78 82 71 62 41 46 59 56 57 55 66 69
97 90 85 75 78 95 95 93 98 75 89 98 99 77 96 97 96 95 88 68 64 62 64 89 96 92 88 82 85 93 74 98 99 96 88 73 71 61 51 66 61 63 62 68 69
96 92 80 77 90 97 98 96 96 78 82 91 84 76 60 72 69 76 68 58 49 52 54 72 85 99 93 95 91 98 100 93 84 98 89 83 58 44 42 55 57 58 62 65 67
95 96 81 88 95 99 98 81 74 69 74 75 81 67 60 56 65 73 74 61 50 52 61 60 81 99 93 77 72 76 90 76 93 94 86 93 63 38 44 53 50 53 57 66 66
96 94 80 77 97 88 78 72 72 67 67 60 58 54 50 55 72 66 65 55 55 58 62 58 83 95 90 74 66 75 72 68 72 87 89 87 65 46 48 53 53 55 64 67 66
95 97 90 88 80 82 90 83 70 69 66 56 55 53 53 57 58 69 69 65 58 53 65 60 75 82 88 78 80 88 73 72 80 89 86 80 60 51 46 46 46 51 58 70 65
96 95 86 99 90 76 73 69 71 69 64 61 58 59 59 63 65 72 68 68 59 58 54 61 80 78 69 63 74 82 79 81 83 76 80 60 52 49 44 44 42 45 55 71 66
97 98 94 96 87 66 73 74 70 66 73 74 81 73 68 78 76 74 62 65 66 61 62 63 86 80 90 63 66 81 73 77 71 66 68 63 57 37 37 40 42 56 64 71 68
93 91 96 85 86 71 78 74 73 75 66 64 72 78 75 70 68 65 57 59 61 65 65 68 80 89 91 72 75 86 76 76 78 71 64 72 53 48 41 40 54 65 72 73 70

GFSSW_sfc_rhum_078.txt.gz
RH
56 66 63 63 64 66 66 64 62 62 61 63 60 60 60 64 71 70 82 69 59 52 50 59 67 68 76 88 79 80 96 79 75 62 55 40 41 34 42 47 25 51 78 74 78
63 65 68 64 62 63 64 64 63 63 62 61 61 60 59 62 77 85 59 58 58 58 52 68 81 76 89 85 81 88 96 80 60 54 53 56 59 67 53 48 45 90 86 83 81
65 67 68 66 64 63 63 64 65 64 62 62 62 64 62 68 86 68 53 60 60 55 54 58 72 79 92 86 88 84 84 60 51 47 41 72 73 56 54 59 42 79 88 88 91
62 66 66 65 65 66 70 70 68 66 62 64 62 59 60 74 86 59 65 57 61 58 58 61 78 90 94 89 86 92 71 59 54 48 60 69 52 71 58 51 36 40 83 89 92
62 64 66 64 65 68 70 70 70 70 66 66 69 60 71 91 84 58 55 54 53 60 66 69 87 82 94 83 86 91 81 60 54 50 48 54 55 46 52 37 32 34 84 88 90
64 66 66 70 70 70 70 66 65 69 76 66 67 67 74 88 49 48 46 55 62 73 65 66 83 69 73 80 84 69 72 69 56 55 46 46 46 38 40 44 31 36 61 88 88
64 64 69 69 69 71 67 68 67 68 77 68 63 66 84 74 46 55 49 57 65 69 65 58 65 77 68 80 62 74 80 75 69 60 54 46 52 48 33 33 32 36 45 40 60
66 65 64 70 71 69 68 69 71 72 79 71 65 78 86 49 50 47 47 56 69 77 66 52 72 83 87 62 70 77 82 91 66 57 50 45 57 46 38 37 35 34 39 40 40
67 66 71 69 73 70 69 66 70 70 69 64 81 84 83 47 59 49 49 55 61 80 66 45 77 82 86 83 85 87 96 90 81 60 51 53 60 41 38 40 37 37 40 38 34
67 68 73 73 72 71 65 66 62 63 61 64 68 85 60 54 47 54 51 55 67 71 77 75 90 92 89 90 90 87 74 88 90 69 66 61 60 46 37 42 43 42 43 41 36
69 71 74 72 72 70 75 84 81 81 82 83 74 70 53 47 41 56 58 64 63 77 99 86 96 99 90 73 64 74 82 77 84 63 72 69 61 49 42 43 39 42 43 40 33
71 74 74 71 74 64 82 91 86 83 88 65 66 66 55 48 54 53 57 68 78 96 100 94 97 85 72 67 69 66 80 89 70 59 74 67 62 54 47 46 43 39 38 36 34
72 74 74 70 72 78 91 90 83 86 89 66 62 60 63 52 58 59 58 70 84 96 96 98 76 67 86 73 76 87 82 82 73 63 70 77 73 63 55 49 44 39 37 36 36
73 74 72 74 79 85 90 81 87 79 93 92 76 72 62 58 71 65 62 72 86 92 89 96 68 84 94 79 68 93 78 70 76 80 93 67 92 66 54 54 48 45 42 42 36
72 73 76 74 91 87 80 80 82 84 93 99 87 64 69 71 80 85 77 74 81 88 87 78 82 94 99 77 67 85 75 71 84 94 71 74 80 67 50 57 50 42 38 42 38
75 78 75 86 88 84 80 85 90 87 93 100 97 94 82 82 87 85 88 83 81 83 80 79 75 84 84 88 76 83 83 83 87 96 99 83 82 80 52 43 44 41 39 41 49
77 79 80 74 87 77 83 92 90 96 72 96 100 100 100 100 99 88 88 98 95 99 99 96 94 93 88 96 84 86 96 98 100 99 95 78 76 62 49 43 42 42 46 54 59
79 80 78 67 82 82 91 91 95 82 90 72 99 100 100 95 100 94 97 99 95 98 99 98 99 98 91 86 94 95 86 94 92 97 89 74 88 62 48 43 42 44 50 55 60
79 90 88 85 81 90 95 98 94 94 85 100 96 100 95 95 95 99 100 97 85 95 100 98 99 92 83 85 79 96 100 90 91 84 92 83 70 46 62 74 65 64 63 65 66
95 92 88 79 83 94 94 95 97 80 86 96 96 88 97 98 99 98 99 76 76 86 74 82 98 87 93 81 89 86 81 99 100 97 92 81 75 64 74 76 69 71 78 79 71
94 92 80 84 90 94 97 94 94 79 84 94 92 86 65 72 85 85 75 66 56 56 63 77 82 97 87 94 95 98 98 92 86 96 95 91 68 48 52 63 71 77 78 79 73
94 94 82 88 90 97 96 78 77 73 85 83 87 90 65 62 76 79 78 65 56 58 68 69 78 94 83 79 64 78 84 84 95 99 94 90 71 44 45 62 64 69 75 78 72
96 95 82 78 96 95 74 74 71 71 68 67 67 59 58 63 75 75 68 55 55 56 57 59 87 98 98 93 84 99 87 74 79 88 90 89 67 48 58 59 55 60 74 77 77
95 93 90 92 90 88 89 80 69 65 70 68 62 60 58 60 66 73 72 65 61 53 66 62 78 79 88 75 84 90 90 92 83 91 83 85 58 55 57 56 59 66 72 77 78
97 95 92 98 93 90 84 76 65 70 63 68 63 77 79 67 70 76 72 69 58 58 58 57 79 77 72 75 77 78 81 83 81 70 82 61 59 50 49 54 53 59 72 76 73
97 98 91 99 93 96 81 77 68 67 75 79 82 78 75 84 80 80 69 75 70 60 64 70 89 79 88 69 74 82 78 80 72 65 68 68 63 41 43 42 44 52 63 76 72
97 90 93 87 94 93 87 79 77 71 72 67 72 85 79 72 72 72 74 64 66 66 68 72 84 88 91 80 78 85 77 84 81 71 62 71 54 49 45 42 44 53 58 68 73

GFSSW_sfc_rhum_081.txt.gz
RH
59 68 69 68 67 64 62 64 64 64 63 62 62 64 62 61 65 79 93 67 64 54 50 55 66 70 82 90 83 83 98 82 78 67 59 42 41 35 53 54 49 48 82 81 93
56 67 67 67 66 65 62 64 66 67 66 63 62 62 62 66 80 88 66 59 66 64 60 64 73 79 94 90 88 92 89 87 63 61 58 64 51 43 55 61 53 50 86 95 95
62 59 62 65 64 64 66 69 71 70 68 65 65 63 67 70 84 77 56 61 59 70 57 59 61 80 96 89 89 89 83 66 60 63 65 69 67 61 60 68 55 52 59 96 98
64 64 66 66 67 66 68 69 70 70 71 68 67 68 59 76 85 65 59 59 60 63 71 68 68 90 95 93 86 92 79 66 57 68 69 69 58 73 66 62 52 50 46 71 97
67 64 65 65 66 70 70 67 65 66 68 71 72 67 72 92 87 51 57 52 49 66 77 78 78 82 95 88 82 80 72 68 60 64 67 58 64 58 65 54 55 50 41 79 96
65 65 64 65 65 70 67 64 64 66 68 72 72 66 75 95 51 51 54 62 56 66 78 73 74 68 82 82 76 68 66 72 64 61 59 58 58 55 51 74 64 63 43 87 95
61 67 66 70 68 71 66 65 66 67 71 77 71 66 82 73 48 52 55 63 62 71 90 69 66 74 77 82 63 73 83 78 79 66 60 52 55 56 47 79 70 63 43 58 91
65 66 67 72 73 70 68 65 70 69 75 72 62 76 82 55 57 48 63 77 68 68 85 73 72 76 82 71 74 71 77 92 76 71 62 51 64 50 58 77 80 67 52 41 55
64 68 70 73 73 72 66 67 68 69 65 66 83 84 72 49 61 54 58 75 79 76 78 60 75 81 83 88 93 87 97 91 80 69 61 62 68 44 42 56 56 52 42 37 35
68 70 74 73 72 72 65 63 61 65 66 63 72 80 60 58 53 59 57 64 74 78 86 80 88 95 94 90 90 86 94 93 88 80 72 72 71 45 44 44 40 37 35 38 38
68 72 75 73 72 68 77 79 78 77 79 85 84 73 57 50 43 65 62 61 65 76 100 88 94 98 96 77 66 79 77 89 85 72 74 77 74 52 44 42 43 43 45 38 38
68 74 76 70 73 65 83 89 90 82 81 66 70 68 61 52 57 62 61 68 72 94 99 98 96 86 79 71 69 69 82 89 79 70 74 80 76 55 48 47 42 37 40 41 42
71 74 75 71 71 80 89 89 88 88 86 68 65 69 69 58 61 59 63 69 80 95 95 84 78 82 92 79 79 82 73 87 77 73 80 78 80 65 52 53 49 42 38 40 41
70 73 73 75 78 88 88 82 88 84 93 89 78 74 67 60 74 73 69 72 79 92 86 83 68 94 97 82 76 89 68 68 74 82 91 75 96 72 54 53 53 47 48 45 44
73 74 76 75 88 86 83 83 83 78 93 98 89 69 75 70 81 80 78 72 84 88 88 79 77 88 100 88 72 84 73 75 84 88 85 83 87 80 56 62 51 48 44 45 42
75 78 74 84 91 85 83 87 85 86 92 99 95 91 83 86 83 86 86 79 86 84 84 87 77 79 85 86 75 81 82 88 89 94 96 85 88 89 65 49 53 48 49 46 42
78 79 82 77 87 84 83 88 89 96 78 96 100 100 100 93 94 90 89 95 89 99 97 99 87 90 84 97 85 84 92 99 99 99 94 85 89 70 60 45 44 40 47 48 50
80 79 81 72 85 82 92 90 92 82 91 92 99 100 100 98 99 90 88 98 91 94 98 98 99 96 90 92 92 90 86 94 92 92 94 85 94 70 56 49 45 43 46 56 66
78 91 91 90 83 82 94 98 93 91 87 100 97 100 100 98 96 99 98 90 86 89 99 98 99 95 92 87 79 97 95 84 89 85 93 87 79 54 54 57 59 62 65 69 71
94 93 90 86 87 93 94 93 96 81 86 91 94 88 94 99 100 99 100 83 89 83 82 82 99 88 94 81 85 86 85 92 98 98 94 83 80 69 60 59 73 74 71 75 79
95 91 85 88 92 94 95 92 90 80 83 92 93 94 72 83 97 96 94 84 78 86 77 75 83 98 87 97 95 95 97 93 89 96 95 94 66 57 52 59 72 78 84 85 84
94 91 89 89 92 98 94 79 76 78 88 88 91 92 80 71 84 80 90 87 65 70 86 71 85 98 95 85 74 83 84 88 95 97 92 92 72 54 51 57 75 85 83 87 81
96 96 85 78 94 95 77 72 77 76 74 78 77 78 66 71 80 75 69 62 60 58 68 70 88 98 92 84 87 90 79 71 78 91 97 90 72 51 68 71 75 84 86 82 82
94 93 86 92 93 92 89 83 73 72 76 69 74 70 74 67 71 79 72 70 61 56 66 62 80 80 87 75 89 100 95 85 87 94 88 90 69 49 63 68 68 72 78 82 81
97 98 88 95 94 96 93 83 77 75 67 73 76 82 84 84 76 81 74 68 59 60 64 60 84 81 75 78 78 83 86 94 92 82 85 73 66 45 54 63 64 68 78 79 86
96 97 95 98 96 95 87 85 78 74 82 78 86 81 86 84 80 83 77 78 70 64 65 71 90 79 86 71 77 81 80 89 89 83 77 69 68 49 47 56 61 71 83 79 76
97 92 92 86 94 92 92 72 73 66 85 75 83 87 87 77 71 75 78 77 71 76 71 74 86 83 85 80 79 79 78 85 80 74 68 73 56 50 54 46 55 62 74 76 76

GFSSW_sfc_rhum_084.txt.gz
RH
59 56 62 62 65 65 64 64 65 70 68 66 63 62 65 66 64 78 84 71 63 55 55 58 61 72 82 82 86 84 94 77 80 75 65 42 41 43 51 50 55 53 76 77 86
59 59 64 65 64 64 64 65 69 71 70 69 67 66 67 68 82 90 70 63 64 65 69 75 67 83 91 91 83 88 89 87 65 64 61 53 48 43 47 54 60 57 48 74 93
64 63 64 65 66 68 68 68 68 68 68 71 72 72 70 70 79 73 63 60 60 60 71 67 72 80 94 93 90 87 94 72 66 57 61 65 70 58 62 64 57 53 59 52 81
63 64 63 64 61 66 68 66 62 62 62 69 73 69 65 74 79 59 64 61 57 62 77 71 80 88 95 93 88 92 74 68 60 66 71 66 68 77 62 42 57 59 62 56 58
63 65 64 64 65 65 67 64 62 62 65 71 72 64 71 91 83 54 52 55 47 67 85 82 84 86 91 87 89 82 76 72 66 69 71 61 68 65 67 52 61 59 61 58 53
62 67 66 67 70 69 68 64 64 63 68 72 72 70 78 91 53 54 65 60 56 62 85 84 76 78 84 85 85 79 75 76 71 60 63 62 68 61 57 61 60 63 61 66 55
64 66 66 70 72 71 67 65 68 68 70 64 70 64 80 73 52 64 63 67 63 63 78 77 77 74 84 82 70 82 79 75 81 65 66 57 67 73 66 77 59 60 68 66 55
67 66 69 71 73 71 66 69 69 71 67 68 66 73 83 54 59 56 70 80 65 69 78 83 78 81 88 73 75 86 84 88 76 74 65 60 76 60 80 81 74 49 60 66 58
68 69 71 73 72 72 65 65 65 65 64 65 82 84 72 49 64 56 72 80 76 70 78 73 78 84 84 89 90 80 94 87 83 71 71 67 80 52 80 80 83 54 65 66 45
71 72 73 74 71 71 64 62 60 66 66 62 73 77 60 62 59 63 65 76 77 70 79 93 91 89 95 97 88 91 94 71 79 83 66 81 76 58 82 76 86 76 77 66 39
74 74 75 76 71 67 75 75 77 74 76 87 85 74 57 50 48 66 64 60 77 75 100 98 92 92 90 90 71 73 88 86 76 70 68 83 73 66 64 79 75 83 86 70 42
75 76 76 72 72 67 83 88 90 81 76 66 72 70 63 59 58 60 63 74 74 94 96 99 90 71 72 84 78 64 76 87 83 76 76 84 79 64 56 59 50 62 64 51 39
75 77 74 74 71 78 87 89 90 90 81 69 68 73 74 64 62 64 69 74 82 93 95 98 78 72 93 95 94 72 69 88 80 80 79 81 84 77 67 59 54 45 42 41 38
76 77 72 72 77 89 88 86 89 78 92 89 80 75 70 66 78 76 79 76 78 92 94 97 80 81 100 99 87 88 59 65 75 83 92 81 91 80 71 64 61 54 47 38 39
75 76 77 72 87 86 81 86 86 72 90 88 94 70 77 70 79 79 80 77 79 86 91 94 82 97 100 97 80 86 62 72 76 89 85 87 91 82 69 70 55 51 51 48 43
73 74 77 87 91 87 86 88 81 86 90 96 93 89 89 86 84 87 85 76 81 86 84 90 80 74 87 95 80 83 82 86 91 90 98 85 89 87 76 55 56 53 46 46 44
77 79 84 78 86 86 86 86 90 94 82 97 100 99 98 88 88 92 89 93 94 96 95 98 91 87 82 99 90 89 91 99 100 100 89 87 92 75 72 52 47 46 48 51 47
80 80 82 74 82 82 89 90 90 79 91 88 98 99 98 87 94 84 78 96 88 86 97 97 99 92 87 97 99 92 85 92 92 93 94 90 96 71 63 57 53 44 42 45 52
74 93 93 92 82 82 92 97 88 89 85 100 94 99 100 99 97 96 95 96 83 87 95 98 99 90 87 86 93 97 98 74 89 88 93 88 78 55 60 54 53 56 56 58 64
94 93 92 90 80 87 96 90 96 82 89 89 93 88 98 98 100 99 96 76 85 84 77 84 98 90 93 88 90 90 84 93 92 96 94 82 82 67 56 52 58 64 71 76 82
95 92 92 91 82 94 95 92 88 78 85 94 92 96 90 92 98 92 92 93 75 85 78 89 85 99 96 99 98 89 99 89 88 93 93 94 69 59 57 49 52 68 76 86 88
93 91 94 92 94 98 95 82 76 82 88 90 94 93 92 78 95 98 99 92 84 75 90 83 87 98 97 91 79 87 87 87 94 95 91 94 79 57 59 55 61 75 83 87 88
94 95 88 86 94 96 84 76 78 80 77 84 88 88 75 75 83 84 84 63 68 82 79 71 88 98 98 89 89 94 88 83 84 92 95 94 77 49 67 63 82 85 88 90 90
90 87 85 92 94 96 98 92 82 68 81 75 79 74 79 74 75 85 97 80 66 60 68 61 80 82 87 74 85 99 95 86 85 98 89 92 77 60 54 58 77 86 88 90 91
95 96 84 92 91 98 98 93 88 80 74 71 79 91 89 86 79 81 72 81 67 60 63 65 87 82 78 77 90 92 93 92 90 80 85 82 74 58 50 51 69 82 89 88 91
87 91 95 97 92 97 90 92 79 76 83 94 88 95 82 86 85 83 74 72 67 60 65 72 87 78 88 82 84 85 87 92 87 78 88 78 76 56 51 73 74 83 88 84 84
97 93 96 80 84 85 90 72 70 72 65 74 73 97 97 82 70 78 80 80 76 71 70 75 85 82 81 81 77 74 76 87 88 87 82 91 66 59 57 54 61 70 85 78 81

GFSSW_sfc_rhum_087.txt.gz
RH
58 62 61 69 64 64 68 68 68 69 69 68 69 69 64 67 68 72 83 67 64 57 59 60 57 66 70 73 81 77 91 76 66 66 53 41 42 42 42 45 43 47 65 66 80
56 68 62 64 65 62 62 69 68 65 65 65 67 73 68 66 74 82 65 57 62 67 71 73 76 75 81 75 77 87 80 69 59 55 52 43 42 48 44 48 48 46 48 50 78
60 62 67 64 64 64 65 70 63 61 60 62 67 72 65 67 69 61 64 62 59 59 68 72 74 79 84 86 76 79 78 62 57 53 47 52 56 47 47 51 43 42 50 50 57
65 64 66 63 68 66 68 64 60 60 64 66 68 70 68 68 62 52 62 58 57 58 74 78 82 84 83 86 81 85 70 62 58 59 61 61 56 55 51 43 43 48 48 48 52
66 64 65 65 70 70 67 64 63 63 60 68 67 67 68 80 72 51 56 58 46 57 76 80 80 83 83 80 83 87 69 63 56 65 62 60 61 53 56 54 54 54 56 54 52
68 67 68 69 71 72 68 65 66 66 68 68 66 64 72 72 50 62 63 56 53 60 67 83 74 67 80 76 77 74 68 66 64 59 62 59 59 54 48 49 53 50 53 57 52
67 69 69 71 71 71 67 68 69 70 68 66 65 65 76 61 52 65 60 66 64 59 64 82 79 86 83 83 59 71 74 76 74 65 59 52 66 65 49 64 56 55 50 54 54
70 71 71 71 71 72 66 68 69 69 63 66 66 71 72 54 58 63 65 70 63 68 73 82 79 85 92 82 64 80 74 89 67 66 58 54 70 53 50 62 53 55 51 52 53
70 71 74 73 73 72 64 64 64 62 63 66 78 81 69 53 62 62 69 68 70 68 78 70 76 84 83 96 85 82 88 81 78 69 62 59 68 49 55 68 53 59 48 51 53
73 73 75 74 73 72 63 65 62 67 65 63 72 73 58 59 60 61 66 72 73 72 82 83 93 89 92 99 89 80 80 78 75 78 64 68 62 52 63 67 54 66 56 53 53
72 75 75 75 72 68 76 73 77 71 74 78 83 75 58 53 55 68 65 65 72 75 94 100 99 98 96 92 77 64 80 76 70 70 67 65 66 56 67 74 68 71 69 61 52
73 76 76 75 72 67 80 84 87 82 77 67 70 71 63 63 59 65 63 74 74 91 94 98 97 78 74 81 89 64 79 78 73 67 70 69 67 60 57 73 69 66 67 57 52
75 76 76 75 72 78 86 88 90 87 81 68 68 72 71 68 60 65 68 72 82 90 97 93 90 59 84 80 99 75 78 84 74 72 67 73 76 68 60 52 56 57 61 52 44
75 75 72 72 74 89 86 88 89 73 92 80 83 73 72 69 71 74 77 73 75 90 92 98 90 70 98 96 95 85 62 65 78 76 78 69 77 70 64 62 55 50 49 54 48
74 73 78 73 88 85 85 88 84 71 93 82 82 69 75 70 76 77 78 76 77 84 84 96 92 87 95 94 95 96 55 62 72 79 76 78 79 66 62 65 58 54 51 44 42
76 72 82 87 90 90 90 84 79 88 85 91 88 88 89 86 83 82 82 73 80 85 84 81 83 76 83 87 90 92 74 76 83 81 94 76 78 68 63 54 52 47 48 45 42
73 78 84 79 87 83 83 86 91 92 75 99 99 100 98 88 83 90 88 93 92 97 97 98 85 87 81 98 90 99 79 96 95 96 86 76 86 62 58 53 45 44 45 46 45
80 82 81 76 82 82 86 90 84 74 91 78 94 100 98 95 90 86 72 94 83 90 96 96 98 84 89 97 100 81 78 89 92 90 86 84 91 59 52 51 45 46 40 42 52
80 95 95 94 80 82 89 96 84 88 80 100 95 100 99 99 98 91 89 90 81 82 96 98 100 80 80 87 97 98 94 68 86 80 83 76 66 47 50 50 49 47 49 48 46
95 94 94 91 80 82 95 86 94 81 91 87 94 91 96 100 100 98 94 80 87 73 69 87 98 86 93 81 92 96 78 90 92 93 86 70 67 49 46 44 44 47 52 53 61
95 93 94 87 82 90 96 92 88 76 81 93 95 98 96 98 99 97 96 79 74 78 67 91 89 98 92 96 97 97 99 88 81 83 80 76 53 48 48 44 43 45 54 61 73
94 86 96 84 97 98 97 84 73 82 89 82 91 87 98 89 94 99 100 98 74 70 90 83 88 97 92 88 82 86 85 76 89 95 88 84 59 41 45 50 53 53 66 73 78
90 94 90 86 97 98 90 86 80 78 82 90 91 87 79 73 96 92 98 73 79 76 83 77 88 97 96 86 89 99 86 78 82 88 93 86 66 46 52 50 59 68 74 81 85
81 84 80 92 95 95 94 89 93 72 84 87 85 85 82 78 70 90 100 83 81 80 74 67 80 82 86 71 84 99 92 81 83 96 90 86 66 52 51 51 48 66 78 82 83
91 96 92 90 84 96 87 85 72 74 70 70 89 96 99 96 77 80 99 97 85 74 71 70 95 79 78 74 88 88 91 92 91 80 84 67 70 50 52 51 47 60 82 84 86
82 88 94 94 91 90 83 82 73 66 75 73 89 81 95 98 99 99 86 99 97 76 78 70 84 76 86 80 80 84 85 89 87 82 81 80 79 55 49 51 58 68 85 85 83
98 94 89 73 78 76 83 71 73 73 68 68 71 83 92 98 96 96 77 74 70 78 78 74 80 82 84 78 73 70 73 88 88 86 75 85 62 54 56 53 52 63 83 79 78

GFSSW_sfc_rhum_090.txt.gz
RH
58 58 67 66 66 62 62 65 68 65 63 63 64 66 70 66 66 53 52 43 49 57 55 56 53 54 54 60 64 60 74 58 38 35 31 28 32 31 29 29 31 48 44 58 60
64 62 66 67 61 65 64 64 64 64 58 59 61 65 65 65 51 48 41 58 56 56 54 63 68 64 60 56 67 61 64 46 31 30 32 28 32 30 32 32 34 39 41 61 64
64 63 65 65 62 69 64 66 64 59 60 58 66 66 64 56 51 39 60 60 60 53 58 58 76 73 60 56 57 57 45 38 37 38 35 33 34 29 31 34 28 31 40 53 57
64 65 65 65 65 70 68 65 61 62 60 63 67 69 65 52 55 43 58 57 56 48 76 62 64 78 71 60 47 59 43 39 41 45 42 37 29 33 30 26 25 24 34 40 45
65 65 67 67 67 70 69 64 64 64 64 68 64 66 54 55 44 36 57 52 39 52 72 83 70 72 81 55 54 57 41 44 38 46 44 37 39 33 34 30 30 32 38 35 35
66 67 68 69 68 70 68 66 66 68 70 65 63 58 50 50 36 46 46 43 42 46 56 86 74 64 70 62 57 41 42 44 43 43 48 44 38 40 33 36 35 37 37 36 34
67 68 69 70 69 70 67 68 68 68 65 65 64 49 53 47 38 46 48 48 48 48 49 65 73 80 71 80 51 44 51 54 50 38 45 45 47 48 31 38 37 33 32 37 35
67 69 70 71 70 70 67 67 65 63 63 65 62 54 53 40 39 50 49 46 46 49 57 65 75 76 80 66 57 56 50 62 47 47 39 42 48 37 32 36 38 34 31 32 32
68 71 72 73 71 71 66 64 65 62 62 62 58 58 55 52 50 43 49 50 51 57 63 61 75 85 80 95 86 64 57 47 50 48 48 47 40 35 33 37 35 31 31 32 30
68 72 73 74 72 71 64 65 61 58 53 50 54 61 45 47 46 49 47 54 58 61 78 82 89 96 89 99 91 61 48 40 46 53 51 50 40 39 35 37 35 29 28 31 30
70 72 73 74 72 67 60 53 56 56 56 52 53 56 49 43 44 53 51 55 56 60 86 96 99 98 82 82 80 35 40 40 36 48 52 45 41 38 35 38 33 29 34 33 29
71 72 73 72 71 65 58 57 63 71 57 53 56 56 50 51 50 53 50 60 58 74 79 99 93 65 51 69 88 70 40 48 37 56 52 43 45 39 36 37 33 30 27 29 35
73 74 74 75 72 61 62 67 70 72 60 55 53 53 52 53 49 50 56 54 57 70 83 96 61 53 67 95 100 67 41 41 50 57 54 48 54 43 36 37 34 34 32 28 35
74 74 71 72 66 66 65 69 69 58 92 68 70 61 58 57 54 56 57 56 60 81 94 83 82 64 82 84 96 77 36 46 48 52 62 52 45 39 37 40 38 34 36 36 36
75 74 75 73 66 66 68 67 64 58 88 83 76 57 60 60 61 65 62 62 64 56 95 81 90 80 99 77 92 93 54 47 52 50 53 63 61 32 42 41 39 34 33 33 33
77 73 79 70 68 70 70 69 66 93 82 96 83 85 73 67 66 63 64 59 64 81 75 74 80 76 64 82 87 93 66 59 55 62 85 40 51 32 35 34 34 31 30 32 30
73 74 81 61 66 70 67 69 97 90 71 90 98 100 99 90 74 69 67 80 76 90 93 75 80 75 66 98 89 100 82 97 94 89 58 44 56 34 31 34 29 27 27 30 30
79 81 73 62 69 71 68 87 83 70 97 63 83 99 98 96 86 70 72 76 66 69 88 79 88 78 74 78 100 99 95 68 63 55 41 60 59 34 28 25 27 29 28 30 31
79 71 74 72 72 77 83 100 82 97 74 100 89 100 97 100 98 87 90 66 48 59 90 84 94 72 67 84 87 95 98 53 65 59 51 43 43 34 30 33 34 33 31 32 30
67 68 76 77 75 74 90 85 85 64 76 83 100 85 94 100 100 99 90 55 61 43 59 94 98 70 92 82 93 97 83 76 89 81 56 53 44 22 33 31 29 27 29 29 30
72 66 84 81 77 80 100 90 77 54 68 91 86 90 96 96 94 95 96 70 51 50 51 86 91 100 96 94 87 97 98 68 58 69 48 52 36 31 31 31 32 29 31 33 36
72 83 87 80 88 89 75 60 70 60 65 75 85 98 98 88 86 99 100 95 47 51 65 60 92 94 97 74 60 88 67 55 74 82 69 60 38 29 31 35 36 34 43 44 46
59 74 74 84 91 76 56 61 67 53 62 64 87 89 95 98 80 83 100 86 56 58 66 65 87 95 98 90 87 94 79 60 62 75 82 52 38 31 35 37 32 37 42 52 54
48 85 54 60 59 64 77 65 55 44 60 47 90 71 76 94 62 76 100 92 73 62 74 72 69 76 67 56 68 100 77 63 88 90 62 57 41 35 35 35 32 32 44 50 55
59 80 72 58 54 58 69 58 55 60 51 52 56 59 99 92 92 93 98 97 89 82 81 68 86 67 66 63 65 71 74 73 94 68 85 46 52 33 28 32 32 37 47 52 58
58 73 68 57 62 53 55 52 59 61 61 59 66 65 88 95 100 99 98 100 100 89 94 76 81 64 78 63 65 70 68 68 66 60 57 55 52 38 33 31 33 33 49 54 56
80 75 59 58 51 49 59 59 61 62 53 54 59 74 81 92 71 74 80 92 75 90 74 68 70 70 78 63 57 59 52 66 67 64 57 70 48 39 40 39 38 35 45 52 51

GFSSW_sfc_rhum_093.txt.gz
RH
60 62 62 66 65 61 66 64 65 66 63 58 59 62 66 67 66 48 46 40 46 52 57 42 45 44 46 50 49 57 94 60 36 27 22 20 22 19 19 24 25 37 37 44 46
61 63 62 66 64 64 68 65 66 61 58 61 59 65 65 65 49 44 46 55 60 58 52 50 47 48 63 50 59 64 79 53 30 21 22 24 25 26 27 26 30 34 50 47 52
62 64 64 63 65 66 70 67 65 61 63 62 64 66 63 55 48 37 59 59 57 59 44 51 56 61 66 47 52 50 54 40 30 25 42 32 29 26 28 28 25 30 48 60 70
66 65 66 66 66 67 69 68 64 64 64 65 66 68 64 47 60 34 51 55 56 49 53 55 56 68 70 67 36 52 38 32 34 62 43 39 38 27 27 25 21 22 33 50 59
68 68 67 67 69 67 69 66 64 66 67 67 63 66 59 50 39 32 48 46 37 42 62 65 62 64 71 55 42 41 35 29 31 49 53 41 36 31 27 23 22 21 31 36 45
69 68 70 69 69 69 69 66 68 68 64 63 63 64 48 50 31 36 37 36 33 39 56 75 65 55 65 67 58 33 37 35 31 52 47 42 35 29 29 22 26 26 31 29 35
70 70 70 71 70 70 68 66 66 63 62 64 61 44 47 40 30 34 39 40 36 40 50 53 79 77 57 72 50 48 49 41 39 32 48 36 39 34 26 27 30 27 27 30 30
70 72 71 72 72 72 69 64 64 63 63 64 62 44 45 36 32 38 37 38 37 39 43 50 80 90 66 62 55 59 54 51 40 35 32 40 45 28 26 26 33 26 25 30 30
69 72 72 72 73 72 71 62 65 65 62 62 55 50 44 49 42 34 37 42 41 43 51 46 67 86 85 94 93 75 90 44 39 41 33 43 40 22 24 28 31 28 25 25 27
70 74 74 75 73 71 65 63 60 60 53 40 43 57 40 42 38 38 38 43 46 47 63 68 76 93 97 99 90 81 66 38 34 42 39 41 38 24 26 28 28 26 24 25 25
68 74 75 75 73 67 57 50 52 54 48 44 43 40 40 35 36 43 40 45 44 50 74 88 100 99 94 84 53 71 45 34 26 32 39 42 36 28 30 30 29 25 23 23 25
71 75 75 74 73 64 51 48 53 65 52 42 45 47 40 41 43 41 42 51 49 61 71 97 96 58 60 64 89 92 65 38 25 35 41 41 39 29 30 31 29 26 22 22 23
72 74 75 74 72 61 52 53 56 56 56 47 44 45 44 46 43 42 46 42 44 51 65 84 62 48 59 93 100 87 60 43 31 44 42 44 43 36 29 28 28 26 23 21 21
73 75 76 76 77 55 58 55 56 54 95 62 61 56 51 47 50 37 41 46 46 61 85 76 60 60 78 94 84 82 41 43 36 52 53 40 50 34 31 32 29 28 26 25 23
71 76 75 78 61 61 62 55 54 56 92 72 67 48 55 57 53 55 48 51 55 56 68 94 74 62 77 74 71 94 72 40 47 48 43 47 48 28 27 33 31 28 25 24 25
72 75 79 64 59 59 56 59 61 94 90 90 70 82 91 85 53 51 53 50 48 55 69 91 86 72 70 60 63 85 69 73 52 58 86 42 40 26 32 28 26 24 24 24 25
73 71 78 51 65 59 56 62 96 91 63 85 78 98 100 100 78 54 54 67 73 90 95 82 98 83 79 99 95 98 87 98 96 95 55 30 44 28 24 25 22 24 24 23 24
79 81 71 54 60 65 63 90 96 57 98 51 61 93 100 100 97 60 59 71 56 52 72 75 94 94 77 83 100 100 97 87 76 70 46 41 43 30 21 20 24 24 22 22 24
85 66 66 70 66 69 70 100 80 95 52 98 69 100 99 99 98 81 88 60 39 46 87 69 92 82 67 71 79 99 95 58 59 34 43 38 29 27 27 27 29 27 27 28 27
55 60 76 74 70 68 79 72 57 50 65 65 94 66 87 100 100 100 81 47 41 33 49 96 92 62 79 69 81 97 94 75 86 70 56 39 27 30 32 29 28 28 28 27 25
58 56 80 74 72 66 94 66 55 51 53 60 56 71 85 99 92 98 82 57 38 34 41 74 88 100 84 78 92 98 99 79 56 64 45 51 32 26 29 29 28 26 26 25 26
55 76 76 70 80 71 64 48 61 42 43 60 82 96 98 98 89 100 97 75 38 35 56 76 91 94 98 71 51 65 72 52 74 66 61 62 40 26 30 32 30 29 36 35 35
34 62 67 72 79 70 41 47 39 42 52 44 74 74 56 98 95 94 100 78 51 44 74 77 86 96 99 90 85 86 74 69 51 78 78 62 42 26 31 31 28 30 33 39 42
35 85 46 40 40 47 56 54 46 40 46 47 51 53 59 62 80 93 100 86 55 53 80 75 94 97 77 65 64 96 75 55 86 86 46 48 37 32 30 32 28 30 32 38 44
42 69 46 46 44 42 46 47 49 53 44 41 47 52 99 77 57 78 100 97 82 78 80 84 98 61 55 54 55 68 68 61 97 63 83 44 42 29 25 29 28 28 35 40 45
39 59 42 37 44 41 44 44 52 54 52 49 57 58 73 81 93 95 93 100 100 89 95 68 80 59 75 56 56 65 57 59 58 54 51 49 49 33 30 29 29 27 34 41 46
54 53 42 47 40 40 46 50 54 54 47 47 55 60 72 70 56 60 64 73 90 94 81 60 60 66 76 55 52 66 57 59 57 53 53 65 47 36 36 33 35 32 34 38 42

GFSSW_sfc_rhum_096.txt.gz
RH
58 63 64 62 66 65 65 70 66 67 61 60 60 61 65 66 68 58 61 46 50 55 74 50 44 44 49 61 59 66 98 84 64 42 31 21 25 23 22 29 32 49 57 73 74
58 65 64 65 64 66 67 70 68 66 62 62 64 61 65 66 60 55 48 50 50 54 53 55 62 48 64 62 69 79 93 73 48 36 29 34 24 25 30 33 44 61 56 68 75
62 68 66 66 64 65 67 69 67 64 65 65 64 66 66 61 65 48 52 54 55 51 50 46 64 64 64 71 67 66 76 57 47 36 55 53 37 22 31 39 40 60 65 67 83
66 69 68 66 66 69 67 68 64 62 66 66 67 67 66 59 67 40 44 48 52 46 52 49 72 75 80 78 58 68 51 46 45 64 71 59 62 49 36 32 29 46 61 75 82
67 70 71 68 68 67 68 68 62 68 68 68 66 66 66 64 46 33 44 39 38 36 58 65 72 68 77 56 60 57 44 38 39 56 62 54 52 51 56 37 26 40 55 64 79
66 69 70 71 70 70 70 66 64 68 66 64 63 65 68 61 30 33 35 34 34 37 47 70 72 82 58 62 69 57 48 40 38 53 63 60 55 52 49 37 34 34 43 52 57
67 69 72 72 72 72 70 65 66 63 63 65 62 55 54 46 28 33 35 37 35 39 54 53 68 89 82 66 59 67 66 48 52 59 72 62 60 70 53 35 31 32 39 39 49
66 68 72 74 72 73 71 68 66 66 64 66 64 56 59 34 36 34 34 35 35 38 44 50 68 77 91 66 61 87 67 81 58 50 57 66 79 49 41 44 43 34 37 40 42
64 70 72 74 74 74 70 67 64 67 64 62 60 59 59 47 40 33 34 39 37 39 49 42 67 84 89 93 95 96 90 78 54 41 39 59 63 38 31 31 40 40 36 39 41
69 70 72 74 77 73 68 62 60 64 58 41 41 59 50 43 37 35 35 40 44 44 56 63 78 96 98 100 97 90 97 61 49 40 48 44 44 33 27 33 38 37 36 34 37
69 72 74 75 76 72 63 63 70 70 53 51 46 43 38 34 35 41 35 41 44 49 80 90 96 97 89 90 83 75 62 56 41 36 43 52 48 37 30 30 36 37 36 34 32
67 72 73 74 76 73 64 55 62 66 65 42 40 42 38 39 44 39 38 51 52 75 84 89 94 59 67 79 96 97 94 57 46 39 45 51 52 36 33 39 39 35 33 32 32
66 72 74 75 74 74 57 58 57 54 71 46 42 44 48 43 47 41 44 44 51 59 67 88 64 56 64 83 100 90 90 67 75 48 52 46 57 45 32 37 37 35 32 29 30
68 72 72 74 83 61 63 55 58 58 90 67 60 55 57 48 54 35 38 49 50 65 71 80 54 69 69 92 92 85 63 64 51 65 99 65 91 76 55 38 38 39 38 36 32
71 71 72 74 70 66 62 56 59 67 95 68 65 46 63 74 54 54 45 54 65 60 68 90 80 67 98 96 75 81 80 72 78 65 57 66 72 65 46 40 36 36 37 35 34
73 74 73 72 66 59 59 62 71 98 91 87 63 75 96 96 77 53 55 53 51 59 64 90 80 85 70 72 71 81 76 74 82 86 99 75 58 43 38 36 37 32 32 33 34
71 70 74 53 69 61 62 77 99 94 64 78 67 88 100 100 88 56 58 71 84 89 98 98 94 83 78 98 91 98 99 99 99 99 89 58 59 42 30 28 30 30 33 31 32
78 75 72 56 63 68 74 96 89 63 85 49 56 88 100 100 97 64 64 85 65 61 91 89 99 88 88 90 100 99 100 99 89 92 66 49 90 46 32 31 31 32 34 32 33
84 80 78 74 68 73 81 97 80 84 61 87 71 98 97 100 98 92 87 77 49 53 97 84 98 77 81 84 85 100 100 90 99 59 78 54 46 32 36 39 38 38 34 38 41
82 73 81 72 73 81 87 68 70 57 56 56 87 57 92 100 97 99 91 57 41 38 56 90 94 71 76 68 83 98 92 97 99 97 92 56 48 42 42 39 38 41 41 41 40
84 75 79 73 78 82 97 73 61 43 47 80 72 83 78 99 96 95 85 57 37 36 49 68 87 99 78 79 88 97 94 95 82 83 88 75 57 46 43 37 36 36 35 37 38
75 96 78 77 96 88 86 50 55 40 44 51 80 89 76 88 97 100 93 72 40 36 57 84 98 97 90 67 57 66 73 76 97 77 95 91 64 41 42 38 38 42 42 47 43
61 78 77 79 92 88 49 45 38 44 50 49 63 56 57 87 99 94 100 72 62 44 94 84 95 99 99 94 83 90 75 74 75 89 86 95 62 39 44 40 37 42 50 51 53
57 95 70 73 50 59 68 59 48 47 43 42 46 52 71 64 68 93 100 82 67 68 78 79 94 99 98 81 81 96 77 70 92 96 66 95 52 42 41 41 41 42 48 56 58
60 86 62 73 60 50 50 48 49 54 44 42 50 60 94 82 70 83 94 96 75 77 79 83 100 96 63 59 66 77 83 73 87 76 84 60 51 42 42 44 40 42 45 53 59
62 73 55 45 47 47 51 52 53 55 51 48 59 60 73 82 87 92 84 94 99 80 88 84 96 72 87 58 62 78 68 66 68 63 61 59 64 46 42 39 42 50 44 50 57
64 61 58 52 47 52 59 54 53 53 48 46 55 64 70 67 61 58 64 69 79 90 89 74 94 84 94 65 62 82 68 68 67 63 63 75 60 54 51 44 47 48 45 47 52

GFSSW_sfc_rhum_099.txt.gz
RH
63 62 64 63 64 64 65 67 71 68 66 63 62 64 61 65 68 70 81 62 60 50 57 71 66 52 55 73 64 77 97 93 67 59 48 35 29 28 29 37 54 65 85 79 80
63 63 68 66 64 66 65 67 69 68 63 64 65 64 65 66 72 75 58 49 48 51 58 74 70 70 71 73 78 86 95 84 67 59 60 61 38 30 39 55 74 81 88 83 81
63 65 68 68 66 64 69 66 69 62 60 66 66 66 66 65 74 68 51 51 52 50 52 59 58 72 77 74 79 77 88 65 66 60 68 63 51 52 47 60 70 84 92 87 88
62 66 68 68 66 66 66 67 67 62 68 68 67 66 67 71 79 50 42 44 47 50 58 66 69 87 81 80 72 91 65 63 53 74 71 65 60 59 58 51 61 70 85 86 92
64 65 69 69 70 69 70 69 66 62 67 66 67 66 74 81 63 42 41 38 39 46 59 77 79 73 86 74 72 84 68 54 47 79 82 66 68 74 68 56 53 71 84 91 87
63 66 68 69 70 70 71 70 65 66 67 66 63 66 79 88 38 38 40 37 39 46 56 77 78 81 82 66 71 76 67 59 48 80 77 75 72 74 61 54 56 75 90 93 92
65 66 68 71 71 70 71 68 64 66 64 66 63 59 75 70 36 42 39 44 42 45 55 60 77 79 87 69 55 76 82 59 68 79 84 66 82 77 70 67 62 65 79 84 90
63 65 69 69 72 72 71 68 68 68 67 64 64 71 79 43 50 39 39 37 42 46 57 68 72 83 86 83 70 82 85 86 65 64 71 67 84 68 70 82 71 57 59 71 75
64 65 70 72 71 74 72 70 63 64 68 64 75 78 70 46 48 40 41 44 43 50 57 55 70 84 87 99 95 96 99 92 66 54 84 74 79 68 63 86 78 66 42 58 58
65 70 68 70 74 76 73 69 64 67 64 54 53 71 58 49 41 40 43 46 53 53 68 75 86 89 98 100 95 96 96 76 72 56 78 84 67 50 74 75 75 58 47 53 48
67 68 72 73 74 73 79 77 81 87 73 67 58 56 42 42 40 47 42 49 54 59 87 92 97 98 95 89 98 77 89 87 57 44 67 79 66 57 52 72 79 63 54 44 50
68 66 72 72 73 73 81 80 80 72 80 54 56 46 42 45 53 47 44 63 62 85 93 92 95 66 76 76 91 99 93 74 56 40 46 54 57 44 38 38 42 46 42 43 41
68 69 72 74 75 83 75 76 68 69 92 57 50 50 56 55 57 53 52 58 67 75 76 90 67 53 70 86 95 95 98 75 62 55 55 55 64 59 42 38 43 39 37 36 34
68 72 74 72 88 76 76 67 67 70 87 68 60 57 66 66 66 47 50 59 68 81 79 88 74 60 76 91 94 98 92 74 64 79 85 78 90 67 54 44 42 44 45 40 36
70 72 70 72 90 80 75 66 69 79 95 65 72 51 70 82 79 61 57 63 75 71 80 88 94 77 100 92 82 98 85 77 79 87 81 93 97 71 60 51 50 43 45 42 39
70 73 74 80 79 71 68 74 83 89 92 89 67 78 97 96 85 63 68 64 62 62 73 89 83 89 76 77 84 83 89 90 87 97 97 92 98 54 59 52 53 45 44 39 38
70 72 78 65 83 71 74 91 94 92 62 75 79 93 98 98 87 68 69 86 90 95 98 98 99 86 77 97 90 99 99 99 99 99 94 73 78 54 44 40 40 38 42 40 39
74 75 78 65 76 80 92 93 92 67 85 63 69 89 99 100 96 88 76 91 72 83 98 96 98 90 83 90 98 100 100 98 94 96 83 67 79 60 38 39 34 35 38 38 39
82 94 91 88 79 87 94 94 85 89 65 82 75 95 98 100 99 91 92 90 65 71 99 96 98 87 81 78 88 100 99 96 91 81 84 82 61 36 45 43 40 41 42 44 40
97 90 95 84 86 96 92 75 79 62 57 69 91 68 89 99 99 94 95 69 59 45 64 91 97 74 82 75 86 93 87 97 97 94 89 70 56 48 55 46 41 42 41 40 43
98 95 89 83 92 94 92 81 68 48 56 80 91 86 90 98 100 98 91 66 42 45 47 80 84 96 84 86 91 93 98 95 94 92 89 86 64 52 53 45 47 45 41 41 42
96 97 90 91 91 97 88 61 56 51 52 64 82 88 87 80 99 91 90 89 72 45 88 95 94 90 89 91 66 80 78 84 96 92 98 92 70 47 47 45 48 49 47 50 46
86 97 92 91 89 94 60 57 50 56 56 57 66 68 68 91 99 80 100 80 73 77 94 85 96 96 93 87 79 84 80 78 85 90 96 98 69 44 47 44 44 54 58 56 57
74 93 90 96 65 70 77 69 62 57 54 51 58 69 78 82 79 89 99 87 79 78 82 87 86 98 93 80 86 97 82 80 90 95 98 94 63 54 49 50 53 52 60 62 63
78 92 74 88 72 61 65 57 63 65 54 54 63 80 84 93 76 88 93 93 73 75 82 86 98 93 85 72 76 82 84 82 88 74 86 76 56 54 49 48 50 52 59 62 63
67 72 67 59 51 57 64 65 66 64 61 62 70 64 72 85 90 90 82 98 96 82 89 90 94 84 90 64 71 87 80 80 76 70 70 62 68 59 51 47 44 50 52 61 64
78 73 60 62 58 65 69 63 64 62 58 53 64 72 70 77 76 67 68 69 76 92 85 82 93 93 98 69 63 83 73 75 71 65 64 79 67 58 54 48 50 50 47 52 61

GFSSW_sfc_rhum_102.txt.gz
RH
63 63 64 67 64 62 65 65 67 70 67 63 65 67 65 65 67 73 87 72 64 52 51 64 65 66 72 68 72 81 97 90 79 71 64 41 36 29 31 40 60 78 87 83 82
61 63 65 67 68 64 65 69 66 69 63 60 65 65 65 66 77 84 67 58 58 52 60 70 66 69 85 80 78 86 88 75 62 66 64 64 40 32 56 74 85 95 84 84 83
61 64 64 68 68 65 65 66 66 63 67 67 65 67 66 69 84 74 51 50 51 52 59 61 64 76 83 75 74 83 82 60 67 62 67 70 63 51 59 78 87 91 92 90 92
62 62 67 69 68 68 67 68 67 59 63 67 67 66 67 77 83 53 42 42 44 50 63 64 74 85 86 84 73 79 74 60 74 77 82 79 71 67 57 64 68 81 75 86 93
64 61 65 67 68 69 69 68 67 63 66 68 65 67 76 89 83 46 42 42 40 48 59 75 82 79 88 85 68 89 74 60 60 87 82 75 75 67 58 61 63 82 82 87 88
62 67 67 69 71 70 71 69 65 63 65 66 65 66 82 93 44 43 44 41 42 48 57 77 81 75 78 84 80 76 76 67 57 86 88 89 79 79 67 70 71 77 94 91 84
63 66 69 69 67 71 69 67 67 65 66 65 65 63 81 74 44 47 43 46 46 51 60 66 83 80 81 92 76 68 84 70 62 80 86 85 90 80 77 75 76 73 78 94 94
67 66 70 69 71 70 73 70 69 68 68 66 62 76 87 46 51 45 43 42 42 52 60 73 73 80 85 86 80 86 81 89 74 78 85 90 91 74 84 79 78 79 80 85 94
63 68 70 69 69 73 74 71 67 61 64 66 79 83 82 46 51 44 47 50 48 53 60 56 74 85 86 98 99 92 97 96 78 72 85 80 88 79 76 84 80 82 82 68 93
68 67 71 71 72 75 74 71 66 68 64 58 61 78 57 55 47 44 46 49 57 59 71 77 87 88 96 100 98 97 98 96 86 72 81 83 75 81 82 82 85 91 90 80 76
66 69 70 73 73 74 81 76 75 84 77 72 65 62 51 48 44 49 46 55 60 65 85 92 94 95 90 91 98 98 95 88 72 62 79 79 66 86 86 86 86 88 81 73 61
66 70 70 74 72 74 82 80 79 70 67 59 57 58 45 48 59 52 46 65 67 88 93 88 95 74 61 90 97 99 90 98 76 54 68 76 75 72 87 84 84 84 85 71 53
69 70 72 73 73 83 78 76 71 71 85 62 57 57 66 58 66 62 53 62 70 82 84 91 72 58 64 94 98 99 89 87 86 70 72 70 81 78 71 71 77 86 85 59 42
68 72 72 72 87 83 82 69 71 70 92 77 65 67 67 70 80 54 54 61 72 82 81 87 77 77 70 91 97 95 86 80 76 92 98 83 96 85 85 60 53 66 77 54 40
67 73 69 74 92 83 76 71 72 72 76 54 78 61 70 82 85 67 59 66 78 73 80 79 91 89 89 75 84 100 88 82 76 89 84 94 84 75 62 60 46 40 45 41 41
69 73 74 81 88 74 73 78 78 84 76 87 78 82 94 87 78 74 70 66 64 72 75 92 83 97 90 76 78 87 94 84 86 90 97 92 82 64 64 54 44 42 44 41 42
71 74 82 71 84 76 79 88 88 86 58 68 82 93 100 92 82 78 73 87 89 96 98 95 100 87 77 96 91 99 99 99 99 99 96 95 96 73 52 45 39 40 42 42 40
75 77 79 68 80 84 88 87 87 72 82 64 75 86 99 92 93 88 82 90 86 95 98 97 99 98 81 90 97 100 100 98 96 97 95 75 92 60 43 38 42 39 40 41 44
80 97 92 91 80 90 86 92 86 90 71 81 75 90 90 93 84 79 95 93 78 82 99 96 99 81 82 82 90 100 98 94 93 82 92 94 66 41 43 45 44 42 41 44 44
99 96 96 88 90 95 87 74 85 62 64 78 89 80 96 96 96 89 96 73 64 69 81 89 95 81 85 80 82 95 90 96 96 89 94 82 61 51 53 53 52 48 46 46 46
98 96 92 88 92 85 91 83 69 50 62 79 92 88 87 96 92 100 91 71 72 45 66 94 82 92 83 90 93 93 96 96 86 93 90 87 65 59 58 49 49 52 53 50 52
95 98 94 91 91 95 89 62 56 56 56 78 81 82 90 87 89 89 98 91 78 69 96 91 85 98 88 81 73 75 81 92 92 92 98 92 75 52 58 57 55 58 55 58 50
89 97 94 82 92 94 64 56 53 61 59 62 66 73 65 86 96 68 94 75 84 79 89 85 92 93 88 83 78 90 86 85 87 90 99 93 77 48 58 52 54 61 69 62 61
76 94 93 94 73 75 76 64 67 58 58 54 66 72 77 87 86 94 98 83 82 86 81 84 91 93 84 70 84 97 90 88 87 94 98 97 88 57 50 50 50 62 72 73 69
83 86 77 87 76 73 70 61 66 65 58 59 74 74 85 87 76 89 94 92 71 74 82 85 94 94 83 81 83 85 88 86 89 90 97 88 76 62 57 59 49 57 66 70 73
80 77 69 68 61 64 69 64 69 67 63 67 74 66 80 88 91 89 84 95 90 87 89 91 95 89 92 68 79 90 82 84 85 74 83 80 74 59 57 56 55 63 66 67 69
87 76 60 66 65 68 71 70 67 65 59 58 65 74 83 80 79 66 69 74 75 90 87 82 94 94 93 72 70 85 81 84 78 71 67 78 64 60 56 52 57 55 53 56 65

GFSSW_sfc_rhum_105.txt.gz
RH
60 62 65 65 69 69 63 66 68 66 69 64 60 63 62 66 68 77 93 75 76 63 54 66 63 67 73 84 74 72 92 88 76 68 75 54 46 36 29 42 54 75 85 83 90
61 62 65 65 67 68 66 65 66 67 61 65 61 66 65 67 82 90 69 59 61 59 62 71 76 72 83 89 83 84 91 76 62 55 67 76 62 39 43 62 81 94 94 90 90
61 66 66 66 69 68 67 67 68 68 59 65 67 67 66 73 92 81 54 52 50 48 61 64 71 72 87 87 88 81 83 77 60 60 76 88 85 58 52 50 82 90 96 92 96
61 63 63 66 65 68 68 68 68 66 59 67 66 69 67 81 86 58 44 42 41 50 65 67 83 88 80 87 77 87 70 69 68 70 64 85 89 75 61 68 65 73 89 92 92
62 61 66 66 67 70 69 70 70 64 65 68 67 64 78 94 86 49 40 43 42 52 64 74 89 88 87 83 75 95 63 59 62 62 85 80 91 79 63 72 78 78 90 91 89
65 65 68 69 69 68 71 69 68 65 65 66 67 65 85 96 50 46 46 43 46 52 60 79 84 80 81 87 84 88 69 59 57 72 76 88 87 88 80 69 76 86 84 86 88
65 66 67 71 66 70 69 72 69 68 66 65 65 68 85 77 47 49 45 50 48 54 63 67 82 89 85 86 78 85 94 77 64 71 86 84 88 95 85 68 82 83 82 87 92
69 64 68 71 70 69 70 72 70 67 65 68 62 78 86 53 52 46 48 47 47 53 63 75 73 83 88 83 89 97 84 85 64 67 79 86 98 85 85 73 85 89 90 80 82
68 64 68 71 70 72 75 73 70 64 60 65 81 85 86 48 54 45 49 53 51 57 67 56 77 90 89 98 96 99 97 95 74 70 90 84 97 85 88 77 84 92 91 81 77
67 68 69 69 71 73 74 71 67 70 64 63 66 86 59 59 51 46 49 51 58 63 72 74 87 91 94 100 97 98 92 96 80 82 82 89 84 85 86 87 86 90 91 83 76
67 66 67 70 72 74 84 74 74 83 78 73 70 65 54 49 47 52 47 58 62 68 83 90 93 94 77 97 95 99 96 94 81 75 86 90 76 82 82 81 90 90 88 84 78
71 66 69 70 73 73 82 80 77 70 69 62 64 63 53 54 60 56 50 65 72 89 92 88 92 75 66 84 94 99 96 96 83 68 79 84 83 75 83 79 93 88 87 87 83
70 69 69 71 72 85 80 78 74 73 81 64 60 60 70 64 70 67 58 65 75 85 89 92 71 63 63 99 98 98 90 98 82 86 82 80 92 90 92 84 83 85 81 85 84
70 69 72 74 84 87 79 71 75 64 91 72 72 72 73 73 80 59 57 64 71 85 86 89 75 82 72 99 90 96 78 79 85 89 99 91 99 94 89 89 86 87 86 89 85
73 69 72 77 90 87 78 74 75 62 62 51 81 66 75 80 86 66 60 66 74 75 82 79 91 89 88 80 91 100 79 81 92 98 95 97 87 77 84 86 86 78 84 82 78
74 71 73 86 89 78 78 76 73 82 55 85 82 91 89 77 77 79 72 68 66 73 82 93 82 94 92 79 92 95 93 84 95 99 97 92 82 70 85 64 63 58 74 75 78
75 72 83 76 83 79 81 83 87 75 56 69 87 94 97 92 73 86 77 84 91 94 97 93 99 96 78 93 95 100 88 98 98 98 94 87 81 59 58 49 46 49 44 60 51
77 77 80 70 80 82 82 83 62 65 83 66 83 92 96 93 88 80 84 90 84 97 98 98 99 96 83 90 97 100 100 95 96 97 98 90 85 58 51 42 42 39 37 38 39
81 93 91 88 83 86 73 90 74 85 71 79 75 89 79 96 84 81 97 93 76 84 99 96 98 84 87 89 89 100 98 95 89 86 93 92 76 44 45 46 46 48 45 44 46
96 95 96 90 88 85 86 72 88 75 67 76 87 86 99 96 88 87 94 72 71 72 84 93 95 77 80 82 83 97 92 97 95 87 95 89 72 57 56 49 49 50 50 45 44
94 93 96 93 81 83 90 83 72 55 68 82 92 89 90 91 88 87 90 76 89 68 74 93 82 86 79 89 93 92 96 94 85 92 90 88 66 54 61 56 48 51 47 48 46
96 99 97 89 94 96 92 67 58 60 64 80 82 76 82 84 85 85 98 92 79 86 90 91 87 99 86 78 82 78 83 91 92 92 95 92 79 50 58 60 56 59 58 59 54
90 98 92 77 93 94 65 61 56 64 62 68 69 74 75 83 86 62 92 74 85 82 88 85 90 95 84 84 78 92 86 88 87 90 94 91 81 48 53 54 59 63 65 68 67
80 96 97 95 78 75 74 66 66 59 60 60 73 75 84 85 90 97 98 76 81 83 78 84 95 90 88 71 84 96 92 91 87 95 93 96 86 62 52 52 55 68 75 77 76
82 83 78 87 78 75 70 66 68 64 60 64 79 78 88 92 90 94 95 79 73 76 78 86 99 99 84 74 88 86 89 91 89 92 92 91 84 72 66 57 56 61 72 72 73
80 82 69 70 70 71 69 69 68 69 64 70 79 70 80 91 91 90 89 91 94 81 84 85 93 94 90 73 84 92 88 88 86 91 89 87 87 72 67 71 62 63 62 66 71
81 71 59 67 68 68 75 71 68 66 62 62 69 80 85 80 79 68 79 78 86 86 86 82 92 94 88 73 78 84 73 90 84 80 85 85 74 63 58 60 70 71 60 59 61

GFSSW_sfc_rhum_108.txt.gz
RH
65 61 64 65 66 67 70 67 66 67 70 61 64 63 68 68 69 82 94 78 78 64 61 67 67 68 76 81 81 80 91 87 79 76 64 53 71 53 40 39 47 82 88 85 91
66 62 63 65 66 71 69 67 69 69 65 64 65 64 65 68 86 95 72 59 59 62 66 64 76 72 81 91 87 87 93 74 61 61 62 51 65 77 68 46 54 94 93 94 94
65 63 62 64 65 64 67 69 68 72 64 59 65 68 67 75 91 83 58 48 51 50 63 64 73 73 88 89 90 90 85 60 60 63 65 58 67 68 85 77 52 88 97 96 97
68 64 63 63 67 66 70 68 70 70 64 66 68 65 69 82 79 61 45 43 43 53 66 72 84 78 78 80 86 96 76 66 60 69 69 75 68 75 83 80 58 68 90 93 90
70 64 64 67 65 66 66 71 67 67 64 66 70 66 78 95 90 54 42 45 44 54 65 73 89 94 85 89 80 91 78 74 64 60 62 68 79 85 79 74 64 73 88 94 88
68 67 66 66 66 66 69 69 72 67 65 65 66 65 87 98 54 49 48 46 48 54 60 77 83 81 92 82 88 83 79 83 71 66 61 71 75 82 77 73 71 82 90 80 87
70 69 67 69 68 65 70 68 74 68 68 66 64 69 89 82 52 50 50 53 50 56 67 66 84 87 86 80 90 86 93 85 79 60 69 77 88 82 74 85 80 88 93 91 86
72 70 68 68 68 66 69 73 71 69 64 64 65 78 86 54 56 50 52 49 49 52 64 73 77 87 87 81 90 98 92 96 82 58 66 77 86 73 83 93 90 88 92 88 87
74 70 66 70 68 69 71 74 71 66 59 65 81 85 85 50 57 48 50 54 54 57 67 58 78 91 94 92 99 97 98 96 78 53 57 85 80 70 83 90 88 93 94 87 86
76 71 68 72 68 70 74 67 68 67 66 65 68 87 62 62 52 47 51 53 59 64 69 74 84 93 92 99 96 97 97 95 83 66 59 86 83 84 90 89 86 92 94 91 83
86 73 69 69 69 73 80 74 75 82 81 75 72 69 58 51 51 54 49 59 64 72 80 90 94 94 84 78 98 95 96 98 76 74 72 84 78 72 82 90 85 89 94 90 87
85 72 71 69 72 78 78 79 73 68 72 65 71 66 59 59 63 59 53 70 74 89 92 90 95 69 72 70 95 95 94 94 81 77 72 88 90 89 85 87 86 89 91 88 82
93 74 70 70 75 82 78 76 76 73 78 66 61 64 69 70 78 71 61 68 78 84 90 95 74 68 75 83 99 91 98 95 88 84 86 90 96 96 90 87 85 83 85 86 79
92 74 70 75 82 84 79 74 77 60 89 69 74 74 71 76 80 63 61 68 73 84 88 91 74 82 82 94 97 99 90 93 79 94 99 95 98 95 94 92 89 86 87 91 84
92 75 72 73 88 86 79 78 74 60 83 49 83 70 76 82 86 72 63 66 82 76 84 81 93 85 95 92 96 100 87 88 95 95 99 95 85 98 86 91 84 84 84 82 82
90 74 75 88 84 80 79 71 68 82 59 88 82 95 81 77 80 79 75 69 68 80 80 88 81 87 90 95 96 95 92 86 88 92 97 99 76 88 92 81 77 77 87 83 78
84 74 83 77 86 81 78 78 85 82 60 74 86 92 89 81 77 86 89 84 97 96 97 91 96 97 95 99 96 100 93 98 96 96 96 87 82 62 75 65 65 61 74 82 66
83 77 80 70 78 76 72 83 85 58 82 65 86 88 95 89 89 84 89 91 95 98 98 98 98 98 81 92 99 100 92 95 94 94 92 82 86 61 54 52 55 54 54 79 65
84 92 89 87 82 75 68 91 68 83 72 78 76 91 80 93 80 88 97 95 80 91 99 97 98 86 79 83 94 100 96 91 87 86 94 95 75 47 47 47 52 50 52 52 48
94 95 95 89 79 79 84 70 86 73 67 76 88 82 95 94 82 81 92 80 94 73 88 96 92 76 77 84 91 98 94 96 94 88 90 88 70 66 61 57 54 55 50 47 47
94 93 97 89 72 81 92 82 76 58 72 83 92 91 84 83 86 90 92 79 91 88 78 94 81 78 77 90 93 93 96 92 86 90 94 91 73 56 63 61 59 60 54 52 48
94 99 96 86 93 96 93 71 59 63 76 80 82 83 71 81 89 91 96 92 80 87 89 92 87 98 84 77 85 80 83 91 93 92 95 93 82 52 59 64 60 64 64 61 62
97 97 96 86 95 95 69 66 59 65 65 72 75 74 72 76 86 79 96 74 88 90 95 91 92 94 76 71 77 89 87 89 85 90 93 90 80 53 57 58 68 72 70 68 66
92 98 99 95 79 76 75 68 68 61 62 68 78 78 79 80 90 95 98 77 82 84 78 82 90 89 96 85 83 93 89 92 87 95 96 94 81 66 59 56 57 70 77 75 72
83 91 86 98 84 80 70 68 67 64 63 71 83 82 88 96 94 94 97 75 71 71 75 88 96 88 84 75 87 88 89 91 94 93 88 85 81 75 72 67 67 67 72 73 73
80 89 70 73 76 71 70 72 66 68 67 69 80 78 84 90 86 92 83 85 95 79 84 84 94 93 87 75 85 93 89 90 88 91 89 87 83 76 70 67 66 71 63 66 74
78 60 61 70 72 70 76 74 66 66 65 64 74 86 86 83 79 82 84 85 88 82 85 83 92 93 87 75 85 84 75 89 83 82 85 78 80 65 67 66 76 77 72 67 70

GFSSW_sfc_rhum_111.txt.gz
RH
70 66 63 62 66 67 71 69 66 67 68 61 65 65 62 67 70 76 84 66 75 63 56 62 58 59 67 72 74 69 87 78 68 76 63 44 43 46 47 47 41 39 67 63 78
69 66 64 62 65 66 66 65 69 65 71 57 63 65 62 70 81 90 67 59 58 58 67 67 65 63 71 82 81 84 87 68 48 48 56 50 49 49 51 56 60 56 56 71 82
70 67 65 62 63 67 65 70 66 70 67 64 64 65 69 73 76 64 59 44 48 54 58 59 65 66 80 78 84 82 83 53 52 47 58 64 57 45 68 72 65 58 67 65 91
72 67 66 63 65 64 65 66 67 70 64 64 69 64 66 77 60 55 45 42 45 62 65 71 77 78 68 79 76 92 74 66 54 53 57 63 62 64 57 60 51 61 63 64 88
73 69 66 66 66 65 66 66 70 68 62 64 66 65 75 88 82 55 45 44 43 52 60 66 88 88 86 71 77 84 71 65 62 67 61 56 66 65 66 61 48 51 62 66 65
76 73 69 66 66 66 64 69 69 70 65 63 64 63 80 84 51 48 48 47 45 49 56 73 75 76 84 85 84 74 78 70 69 69 67 62 58 71 68 61 68 62 63 69 68
84 78 71 68 68 68 65 68 71 69 66 64 64 66 85 76 54 50 49 52 48 50 62 59 74 84 75 76 78 85 98 89 73 73 70 62 70 66 62 66 74 70 63 66 68
90 85 82 69 67 67 63 69 72 68 64 63 66 73 76 51 57 56 50 49 48 51 60 63 76 82 86 77 74 92 88 87 60 69 65 68 77 61 60 71 76 69 69 75 78
90 89 85 67 69 68 69 72 71 66 61 66 78 80 76 48 56 48 48 52 52 54 63 56 71 84 87 82 84 85 90 74 62 66 63 72 70 69 75 84 75 75 79 81 79
90 91 85 69 69 68 73 65 64 67 68 64 66 84 60 61 54 47 50 52 57 63 66 69 78 88 90 91 94 95 96 84 78 70 64 78 66 85 84 78 79 87 80 79 81
91 92 92 74 66 69 73 79 79 82 82 68 69 68 58 52 51 55 49 58 61 68 86 86 91 93 75 78 84 91 96 94 72 62 74 82 64 66 87 86 87 87 85 78 81
93 90 84 73 66 77 78 78 65 62 72 71 71 69 59 62 65 58 52 69 71 84 84 84 95 71 66 73 83 90 97 88 70 63 72 68 68 69 88 83 86 88 84 78 79
93 91 88 71 75 85 81 74 75 68 74 68 61 64 69 67 77 71 61 67 76 84 86 93 72 68 74 88 93 92 97 93 84 76 73 76 96 95 86 84 86 85 83 82 83
92 89 82 78 87 85 79 73 74 60 88 71 75 75 72 76 78 62 62 67 74 82 84 89 73 78 83 95 90 97 92 98 79 97 99 96 98 93 89 87 89 87 88 89 79
88 83 75 76 86 88 78 77 72 59 79 54 86 71 77 79 81 73 64 66 80 76 81 78 77 84 86 93 97 100 99 97 87 98 99 97 84 99 85 90 86 84 88 90 71
89 84 80 87 83 79 77 70 64 84 70 91 86 94 78 79 78 76 74 66 65 81 84 85 70 85 93 95 97 96 94 95 84 91 97 98 75 86 92 82 76 77 90 87 72
91 84 86 76 85 79 74 69 90 85 62 77 93 79 91 88 78 82 89 86 96 94 96 92 98 97 96 99 88 100 88 94 93 96 95 93 74 63 69 69 66 73 91 80 70
91 82 82 74 80 74 67 85 83 54 81 71 92 78 99 92 86 80 85 92 90 97 98 98 97 94 87 98 100 100 88 93 88 91 91 70 85 61 48 46 54 58 81 82 67
90 94 90 87 79 66 72 93 71 80 71 84 77 92 89 94 79 82 97 94 79 91 99 97 92 78 83 96 99 100 93 95 85 76 81 83 56 45 44 47 49 51 79 83 70
97 96 95 87 80 73 87 77 83 69 69 72 91 86 95 88 83 88 92 82 95 73 83 94 89 66 76 88 86 91 87 92 92 89 91 73 70 71 60 62 57 54 62 83 72
93 95 97 89 72 81 96 82 78 66 76 81 90 91 84 92 84 97 92 79 88 88 80 94 78 75 75 90 98 92 93 85 83 84 82 78 91 52 62 65 68 65 56 70 79
88 99 97 87 96 94 93 69 60 68 80 80 82 83 76 88 87 96 92 89 78 86 93 92 84 98 86 74 84 76 87 89 89 89 89 84 86 52 58 66 66 69 64 62 76
97 99 98 89 98 96 71 68 62 66 70 74 78 76 77 82 85 83 98 71 85 90 88 89 90 91 75 64 70 85 83 88 81 85 96 90 76 50 52 53 63 72 70 68 70
93 99 100 99 73 77 75 69 69 63 65 70 80 81 83 84 91 91 98 75 80 81 73 75 90 90 95 88 85 92 83 88 86 90 89 88 70 64 63 62 61 71 71 70 68
86 98 91 96 95 79 72 68 69 67 66 78 83 82 90 97 94 93 95 78 66 68 78 84 89 96 79 79 80 87 88 87 95 90 87 79 74 70 67 66 66 64 62 64 70
91 94 72 82 88 77 72 74 67 68 70 74 82 81 86 91 82 89 84 88 95 82 89 87 94 89 84 83 81 82 84 84 84 82 84 78 78 63 61 64 67 73 64 67 73
82 63 64 74 79 72 78 75 64 67 69 67 76 85 86 82 81 84 86 86 89 88 89 90 90 87 87 73 78 81 72 82 78 82 77 83 76 64 70 74 80 76 74 77 76

GFSSW_sfc_rhum_114.txt.gz
RH
70 70 66 62 63 65 67 68 66 67 67 64 62 64 64 64 67 54 55 39 48 61 52 52 47 46 47 48 50 45 66 62 46 37 34 27 29 25 23 31 33 32 34 29 31
74 70 68 66 62 63 66 65 67 68 69 63 55 63 68 70 59 58 42 56 56 57 58 69 63 53 51 51 53 56 58 48 32 28 30 28 38 35 35 27 33 41 33 35 44
81 76 70 67 65 63 67 66 69 67 68 64 63 65 68 63 61 48 58 50 54 53 48 52 53 54 55 50 51 51 58 35 32 30 32 35 38 35 44 50 33 36 37 44 49
86 80 70 67 63 64 64 65 65 67 64 62 64 65 65 60 39 42 46 42 48 43 46 50 51 54 55 56 43 57 41 38 40 36 38 43 36 39 40 39 31 33 33 44 46
88 84 82 76 67 66 64 65 66 69 64 63 64 65 64 62 44 40 46 40 32 41 44 50 53 52 55 43 46 52 42 37 37 46 46 43 44 42 40 35 38 35 44 44 45
84 88 88 87 77 65 65 64 69 72 66 64 62 64 60 55 39 37 37 37 34 37 43 49 46 48 53 51 53 40 48 48 46 49 51 53 48 42 40 37 46 50 49 47 43
85 92 88 84 74 67 65 64 68 70 67 63 63 56 67 46 37 36 39 38 36 38 44 44 47 55 48 50 41 48 62 53 46 48 58 51 61 53 33 34 47 53 49 42 42
78 93 88 90 84 68 66 62 70 70 65 62 68 59 51 37 39 44 38 35 36 38 43 45 53 55 59 48 52 56 57 70 31 36 45 58 72 42 33 32 44 51 48 44 38
78 82 89 89 83 68 67 68 70 67 63 65 64 60 49 40 43 37 35 38 38 41 47 46 56 56 57 74 77 70 77 44 36 29 40 58 63 42 40 37 41 47 46 54 41
80 83 89 88 81 71 73 65 65 63 64 57 56 70 46 49 41 38 36 40 43 47 54 56 59 66 69 85 78 65 75 55 49 39 54 55 53 48 58 60 64 55 54 56 51
80 88 90 88 79 73 73 70 68 74 71 52 51 54 48 42 40 42 38 43 46 52 69 67 78 75 50 48 64 69 80 76 47 41 49 78 52 46 66 69 65 66 61 63 56
84 89 89 86 74 79 64 64 58 54 61 61 59 57 50 50 56 48 40 49 54 63 65 75 75 43 49 52 60 70 74 72 51 42 50 57 61 41 52 64 63 66 63 62 56
91 90 90 80 79 76 71 64 64 52 58 59 51 51 55 54 61 56 47 50 55 60 62 76 47 45 55 66 79 72 85 74 73 72 54 59 68 55 74 70 65 61 55 69 62
91 92 87 78 75 73 72 63 63 52 89 64 63 62 61 62 60 49 48 53 58 65 58 62 50 60 61 72 84 94 83 96 95 99 97 55 86 83 78 84 73 66 67 70 60
81 88 82 78 73 71 70 67 58 50 77 59 72 58 62 60 62 56 51 54 62 55 63 66 55 61 77 72 99 99 99 97 98 98 99 88 84 100 92 89 74 63 63 59 65
82 89 80 73 74 70 67 59 50 85 69 85 72 77 69 62 63 58 57 53 54 67 65 71 54 67 73 70 93 95 98 98 99 100 98 84 68 98 93 69 63 57 62 66 75
78 88 79 66 76 68 61 58 95 81 51 80 84 70 83 78 62 63 66 68 83 95 97 75 91 82 94 98 78 95 94 89 95 95 95 91 60 69 51 63 64 63 68 81 88
88 90 79 76 68 62 60 80 71 48 73 64 74 70 97 77 74 60 65 72 72 85 94 90 85 82 91 98 100 100 94 91 90 90 92 71 84 78 44 41 40 61 79 85 89
92 92 87 84 64 62 65 91 59 73 55 80 79 99 85 76 67 64 81 72 61 64 94 81 84 79 96 97 98 93 91 95 79 62 68 89 63 45 44 47 44 71 83 89 90
99 94 94 79 64 64 75 71 58 53 61 60 89 64 84 85 80 83 78 63 79 69 60 76 89 55 68 86 74 88 94 91 83 77 88 81 86 86 60 62 54 80 87 94 85
98 96 96 87 71 76 96 75 65 58 60 61 64 69 59 73 66 85 77 60 74 74 63 73 66 72 62 84 99 85 84 75 64 65 65 73 91 56 62 63 59 70 90 95 90
96 100 97 91 94 84 84 52 55 54 62 61 61 61 58 62 62 90 82 70 65 79 72 71 69 85 84 60 72 65 74 73 80 71 72 62 89 42 49 58 58 61 83 92 89
98 98 98 93 90 90 56 57 49 55 60 59 64 59 57 63 68 61 98 57 65 77 72 68 74 81 72 66 60 66 64 70 66 70 87 72 83 42 44 51 53 58 60 83 84
94 100 99 96 65 57 61 58 57 51 53 54 60 60 61 60 65 62 96 60 68 66 71 66 68 91 82 78 75 90 68 66 86 80 64 68 59 52 53 52 52 53 58 59 69
86 92 82 96 93 61 54 50 56 56 52 59 63 66 84 72 67 65 79 62 54 64 64 61 91 73 66 66 67 72 69 63 92 65 82 60 62 57 54 52 50 47 51 61 67
82 92 76 69 69 72 57 53 51 55 53 58 61 63 70 73 67 70 62 73 81 56 65 61 79 68 76 55 52 62 62 56 61 56 56 54 62 49 49 44 47 50 52 57 58
75 58 48 73 71 70 51 49 48 51 54 52 56 65 68 62 58 57 58 61 63 68 64 67 65 66 75 57 59 65 70 66 62 60 56 63 59 49 53 58 62 57 55 58 58

GFSSW_sfc_rhum_117.txt.gz
RH
76 73 70 67 64 65 66 67 68 66 67 69 59 60 62 65 69 51 50 41 39 51 54 38 37 38 37 39 36 35 52 56 44 34 28 19 20 17 16 19 17 16 20 21 28
85 78 75 70 67 63 64 68 66 69 68 66 56 60 64 68 49 45 41 46 53 60 48 47 50 46 48 44 45 47 49 41 28 25 25 21 21 19 20 22 20 20 23 26 31
83 84 84 81 70 66 65 66 65 69 69 65 60 66 64 62 49 36 59 63 61 57 46 45 46 49 52 44 48 48 56 36 30 26 25 28 27 22 26 33 30 22 20 31 36
79 84 87 83 76 66 66 65 65 67 67 63 62 66 64 52 47 41 48 45 52 40 42 41 43 49 47 46 36 48 36 32 32 30 32 37 30 29 27 28 22 26 25 22 34
73 80 88 83 78 76 70 66 65 66 68 64 62 66 60 57 40 38 45 39 29 34 39 42 43 43 46 35 32 36 33 30 28 30 32 31 38 36 31 24 21 24 32 38 37
70 78 89 85 85 82 76 65 63 70 67 66 63 65 54 58 33 32 33 31 28 31 36 38 38 36 42 41 41 34 33 31 28 34 36 39 38 37 33 26 25 26 30 32 39
70 76 92 84 85 83 68 65 63 73 70 66 64 51 58 43 30 31 35 34 30 31 36 35 37 44 37 41 31 33 42 35 32 29 35 35 47 44 33 26 26 27 29 32 38
70 77 82 89 85 77 71 67 71 73 67 62 65 56 55 33 28 38 32 32 30 32 36 34 38 47 47 42 42 49 46 58 30 24 23 35 70 40 30 32 31 26 31 34 37
70 75 80 88 87 81 69 70 76 74 68 66 63 62 46 41 42 32 32 33 32 33 36 34 44 49 44 67 72 49 67 41 31 19 21 32 67 41 33 31 32 27 24 30 37
72 78 80 87 88 75 72 68 69 64 57 52 49 69 44 43 37 34 31 33 38 38 46 49 49 51 55 81 83 61 63 45 39 27 36 58 57 41 33 32 32 28 26 32 39
73 81 83 90 88 75 72 64 67 74 63 60 51 48 40 37 35 39 33 37 39 43 61 54 73 75 59 42 47 50 56 62 38 30 34 35 44 60 38 42 42 36 39 37 44
77 91 88 91 84 77 67 56 48 49 74 58 52 48 43 42 51 44 36 45 45 61 50 65 83 44 34 33 44 48 55 51 38 33 40 43 42 34 38 49 55 52 48 51 44
77 89 88 89 88 84 70 54 52 44 56 62 48 44 48 48 51 48 40 40 46 52 52 65 46 35 39 47 59 57 65 62 58 53 57 65 54 42 39 42 44 50 47 44 44
70 93 88 89 91 70 68 55 55 50 96 66 56 55 54 52 58 40 40 45 49 59 50 52 38 44 47 55 60 95 55 88 89 96 91 49 77 58 41 48 52 48 50 50 45
73 81 91 82 65 69 61 57 52 54 74 58 62 52 52 58 52 48 41 50 62 53 54 63 52 49 60 58 93 92 83 98 99 100 99 74 96 72 42 66 64 59 58 52 48
77 82 88 87 64 63 56 54 54 93 78 77 62 67 65 51 50 48 52 49 48 63 56 62 46 55 63 59 78 90 99 99 100 100 94 70 90 99 98 88 66 66 62 63 66
79 89 91 61 66 60 55 57 98 88 48 81 74 66 70 66 55 52 55 62 76 94 98 69 77 64 83 99 70 89 98 98 99 98 84 91 90 99 85 71 75 76 81 81 72
87 86 88 68 60 59 53 86 90 49 67 54 61 58 92 61 65 50 57 65 59 75 87 89 95 84 94 98 100 100 95 97 96 93 80 50 85 98 70 53 67 69 83 82 75
92 92 94 84 62 53 58 100 56 77 46 68 64 99 70 62 64 55 78 60 52 60 92 82 86 62 75 95 97 88 91 82 96 92 76 93 96 82 60 66 78 81 88 89 80
98 94 93 74 57 54 73 72 49 42 51 55 86 57 74 76 74 80 63 51 60 63 58 73 91 52 58 78 82 94 84 90 90 94 92 90 87 95 87 86 85 86 96 92 88
97 97 94 80 57 62 94 63 56 46 46 50 49 54 48 63 57 72 61 51 62 64 59 69 76 87 73 97 100 92 83 70 64 61 92 80 93 92 76 74 87 88 96 96 93
95 100 94 88 88 75 77 42 53 48 54 52 51 52 50 48 52 85 80 58 57 67 70 58 69 94 75 51 55 67 69 65 93 68 69 61 95 58 58 70 79 86 92 94 92
98 98 97 90 89 85 50 51 45 50 53 53 55 52 47 52 63 56 93 47 52 64 79 63 70 96 78 53 50 68 53 56 56 68 73 74 93 44 47 58 68 88 89 93 91
98 100 99 97 62 53 51 50 53 48 49 46 51 50 50 50 48 57 92 49 56 56 70 67 65 87 82 73 73 90 54 58 88 81 75 85 76 54 51 53 55 60 64 70 82
88 87 76 96 73 48 43 42 48 52 46 47 54 56 69 60 51 53 73 56 47 56 54 55 81 59 53 57 52 57 56 51 75 55 82 63 64 57 50 49 50 48 50 56 61
69 77 68 63 56 54 48 43 43 47 47 51 58 51 58 62 63 59 54 67 71 48 52 49 68 59 65 48 49 65 58 54 54 50 52 54 62 48 46 45 50 50 53 56 57
53 54 46 63 61 57 43 39 40 43 49 46 44 56 60 54 48 44 44 47 53 58 55 56 56 61 67 51 50 58 70 62 58 54 51 67 55 43 52 58 58 53 51 56 55